GFSGL_sfc_dewp_000.txt.gz
Dewpoint
63 63 63 62 62 62 62 63 64 64 65 64 64 64 64 63 63 64 64 62 62 63 63 65 66 69 66 66 70 72 72 71 65 60 59 64 72 69 69 69 70 71 68
61 62 62 63 63 62 62 62 63 63 64 64 64 65 64 63 64 64 62 62 62 62 62 64 65 65 68 69 68 69 69 70 67 67 64 62 68 72 71 74 73 66 69
59 59 61 62 62 62 62 62 62 63 64 64 64 64 63 63 63 63 63 61 61 60 61 62 61 63 64 67 69 67 65 68 68 67 64 61 62 64 68 73 73 72 67
57 57 60 62 62 61 62 63 62 64 64 64 65 64 64 63 63 62 61 61 60 60 60 60 60 62 64 66 66 69 69 67 68 67 65 60 61 66 68 68 71 67 67
58 59 60 62 63 62 63 64 64 63 62 63 63 62 62 60 58 62 60 60 60 60 60 59 60 60 60 61 63 67 67 68 65 66 64 61 62 66 67 66 68 67 69
61 60 61 62 64 64 63 63 63 62 61 62 61 61 61 58 59 59 60 59 59 60 60 59 59 60 59 60 60 60 64 66 68 66 64 64 66 65 65 67 66 65 64
62 61 61 63 63 64 61 62 62 62 62 61 60 60 61 61 59 59 59 58 58 59 60 61 58 59 59 58 59 59 59 62 65 69 67 66 67 67 68 69 69 69 69
62 62 62 62 62 63 61 61 62 62 61 61 60 60 60 58 58 58 59 59 62 60 60 60 60 58 59 58 57 57 59 60 67 65 68 67 68 69 70 70 72 72 72
60 60 60 61 62 62 62 62 62 61 59 58 59 60 60 60 56 57 59 58 63 60 60 61 60 59 58 57 56 56 57 60 61 62 63 63 63 63 67 71 69 69 67
58 59 58 60 62 61 62 62 61 60 58 55 56 58 57 59 56 55 57 62 62 64 60 63 59 58 55 54 55 56 56 57 62 66 65 64 64 66 62 70 69 68 67
57 56 58 62 64 64 62 62 61 61 60 59 59 59 58 56 59 55 54 59 64 62 63 55 62 55 53 52 53 58 56 58 63 65 67 68 67 68 68 65 69 67 66
60 59 62 65 63 55 64 62 60 62 63 60 60 56 52 56 56 55 53 52 56 57 59 60 62 53 50 51 55 55 56 58 64 65 64 64 66 69 67 68 69 69 69
64 64 64 62 61 62 64 64 58 59 55 55 52 50 53 51 53 54 51 52 52 53 54 56 53 51 50 56 56 56 57 58 57 56 59 61 64 68 68 69 71 71 71
62 62 64 62 62 62 60 55 54 51 55 55 53 50 50 51 51 53 52 52 52 52 53 57 55 55 54 57 59 59 59 58 57 56 56 58 59 61 64 67 67 68 69
60 61 60 57 59 59 64 58 55 56 53 53 53 53 52 51 51 45 45 49 51 50 50 55 54 52 52 55 57 59 59 59 57 57 56 56 57 58 58 60 64 67 65
59 56 55 53 53 52 54 55 46 46 44 43 43 46 51 44 42 41 41 41 42 45 53 50 48 48 47 49 49 53 55 57 59 58 57 56 56 56 58 58 59 61 59
60 57 53 53 51 56 61 57 52 49 44 42 42 42 41 41 40 40 42 42 42 46 49 48 48 47 46 46 49 49 50 52 56 56 58 59 57 57 56 58 58 58 58
58 53 53 54 59 60 59 57 57 55 54 51 45 46 43 41 40 40 41 43 48 46 46 46 45 47 47 46 46 48 50 50 53 55 55 56 57 58 58 56 56 55 56
54 53 57 56 57 55 54 52 52 51 49 49 50 47 47 43 41 42 43 47 46 45 44 44 44 43 43 44 46 48 48 47 48 51 54 54 54 56 58 59 58 54 54
57 56 55 56 55 53 53 52 52 52 52 47 46 46 47 47 47 46 46 46 44 42 41 41 41 41 42 42 42 43 44 44 46 46 47 49 49 52 54 57 59 58 58
57 56 55 56 54 54 53 52 52 50 46 44 44 44 41 45 44 44 43 42 41 40 41 40 35 33 33 34 35 37 39 39 41 43 45 47 47 47 50 52 53 56 56
54 55 52 48 47 47 48 47 47 44 43 43 42 42 41 43 43 43 42 41 39 39 38 39 36 34 32 31 30 31 33 35 37 41 43 44 44 44 46 48 51 51 51
45 44 44 44 44 44 43 42 43 43 41 41 39 38 39 41 42 41 41 40 40 39 38 37 35 33 32 31 30 29 28 31 32 37 38 40 41 42 44 43 45 48 49
41 42 42 42 42 40 40 41 40 38 37 36 37 36 37 38 38 40 39 39 37 35 33 31 30 30 30 28 27 25 27 29 32 34 35 34 32 35 40 41 43 43 42
39 40 39 38 37 37 37 37 37 36 36 35 35 35 34 34 33 32 32 31 30 29 27 26 26 28 29 29 28 26 27 28 31 30 30 31 30 32 30 29 36 38 41
37 37 35 34 34 36 36 36 36 35 33 32 31 31 31 30 29 29 29 28 26 26 25 24 27 27 26 24 26 27 28 28 29 29 30 29 29 27 26 27 28 23 28

GFSGL_sfc_dewp_003.txt.gz
Dewpoint
63 63 62 62 61 63 62 62 64 65 65 65 64 63 64 64 64 66 66 64 63 65 65 65 64 66 59 61 67 69 68 70 67 64 65 67 67 71 70 72 69 71 67
61 62 61 63 63 62 62 62 63 63 64 64 64 64 63 63 65 64 63 62 63 63 61 61 61 58 63 63 65 68 68 68 68 66 66 64 68 72 72 73 69 67 68
59 60 61 62 63 63 63 63 62 63 63 63 64 64 63 63 63 64 63 63 63 61 60 60 60 60 60 60 60 67 68 68 68 67 67 66 65 67 70 72 72 71 70
55 56 60 62 64 63 64 63 63 64 63 64 65 64 63 62 62 63 63 63 62 60 60 60 60 59 60 58 59 60 62 66 67 67 68 67 67 66 67 67 70 70 67
57 58 60 62 64 64 64 64 63 63 62 63 64 62 61 60 55 63 63 61 61 61 60 60 60 60 59 59 59 58 58 59 59 67 67 67 65 66 66 64 67 71 71
60 60 61 61 63 63 63 63 63 63 63 63 61 62 63 56 61 59 60 59 61 61 59 59 62 61 60 59 59 59 59 58 58 58 67 66 67 66 65 64 68 68 68
61 62 61 62 63 63 62 62 63 63 65 64 61 61 62 63 59 60 60 59 59 61 61 61 58 60 61 58 56 57 58 58 59 60 59 65 66 67 66 68 69 68 68
62 62 62 62 62 63 63 63 64 64 65 64 63 63 62 60 58 59 60 60 60 63 63 63 63 61 60 58 56 55 55 57 59 59 63 63 67 69 69 67 70 70 72
61 62 62 62 62 62 62 63 64 64 63 62 62 63 64 64 57 57 60 59 61 63 63 63 63 60 58 57 56 55 56 57 58 58 58 59 62 63 65 70 68 70 68
61 61 61 61 61 61 63 64 64 64 60 57 58 60 59 63 58 55 57 55 62 59 61 63 58 57 55 54 56 57 56 56 56 58 60 60 62 66 63 68 70 67 68
59 59 62 62 65 64 65 65 67 63 62 62 59 62 62 62 60 56 55 58 55 56 58 61 55 55 52 51 52 57 57 57 57 60 61 63 67 68 68 69 70 69 66
64 61 63 66 60 56 66 65 64 63 63 61 59 56 59 62 58 57 54 53 56 54 53 54 59 52 49 51 54 55 55 56 57 58 64 66 67 67 67 68 70 70 70
65 66 64 64 60 61 64 67 59 63 63 59 55 55 54 54 59 53 53 52 53 54 53 52 52 51 51 54 55 55 57 58 56 55 56 57 59 67 71 70 70 71 71
66 64 65 66 65 63 64 57 56 56 57 50 52 54 56 55 54 52 52 53 53 53 54 53 55 53 50 52 54 56 57 57 58 56 55 57 59 58 63 66 67 68 69
63 61 60 57 61 61 63 56 55 55 52 52 52 53 51 51 49 45 45 49 50 51 49 59 52 50 49 50 52 54 55 55 55 57 56 56 56 57 58 60 65 68 68
60 57 55 53 52 50 58 54 46 46 43 42 43 45 49 44 42 41 42 42 42 43 50 51 50 49 47 48 51 51 52 53 56 56 56 57 56 55 55 56 59 60 58
60 57 52 52 50 56 58 60 57 50 45 43 43 43 43 42 41 40 41 43 43 45 49 49 49 49 48 49 50 51 51 52 53 56 56 56 57 57 55 54 55 55 56
58 52 51 51 56 59 57 57 58 57 55 53 45 46 44 42 41 41 41 45 49 47 47 47 46 45 45 45 46 48 49 50 51 50 53 54 57 57 57 55 55 54 55
53 55 56 56 55 53 53 52 53 54 53 52 50 47 45 43 42 42 43 48 47 45 45 44 43 43 42 43 44 45 46 45 47 49 51 50 51 56 57 58 56 53 54
56 56 55 53 53 53 52 53 52 52 52 52 52 46 46 46 46 46 46 45 44 43 41 38 36 35 35 36 37 40 41 42 44 45 46 48 48 49 52 57 58 57 58
52 54 54 52 51 52 53 52 50 49 48 46 44 44 41 45 44 44 43 43 41 41 42 41 38 35 34 34 33 34 37 38 40 41 45 45 45 45 47 49 53 55 54
51 53 53 51 48 47 47 47 46 44 44 44 43 43 42 43 43 43 43 43 42 41 41 40 38 35 34 33 31 30 30 33 36 38 40 40 42 45 45 46 47 50 49
50 49 45 44 43 43 43 42 43 42 42 41 40 39 40 42 42 42 42 42 41 39 37 35 34 32 32 30 28 27 27 30 33 35 34 35 35 38 43 44 45 45 45
42 42 42 41 42 40 40 40 40 39 38 37 37 37 37 38 39 40 39 38 36 33 31 29 30 29 29 26 25 22 25 30 33 33 35 31 30 31 32 37 40 41 42
41 40 39 38 38 36 38 36 36 36 35 36 36 35 34 34 34 33 32 31 29 29 26 26 26 28 28 28 26 25 28 28 32 30 34 33 32 33 29 27 27 29 32
37 37 36 35 33 35 34 34 36 36 34 33 33 33 33 31 30 30 30 29 28 26 26 25 28 28 26 25 26 27 28 28 29 29 30 32 31 30 29 29 30 26 28

GFSGL_sfc_dewp_006.txt.gz
Dewpoint
68 70 70 67 67 69 69 68 69 71 70 69 69 68 67 67 68 67 68 66 65 66 66 65 65 64 61 60 60 60 60 60 60 60 63 65 67 67 69 71 71 71 70
67 70 69 69 68 69 69 68 69 69 70 69 68 68 66 66 67 65 65 65 65 64 64 64 63 60 62 61 59 59 59 59 59 61 62 64 66 67 67 68 70 70 71
66 65 68 68 68 69 69 69 69 69 68 68 68 67 66 66 66 66 66 65 65 65 64 63 63 62 60 60 59 58 58 58 58 58 62 65 65 65 67 69 69 68 70
61 63 67 68 69 68 69 70 69 69 68 68 68 67 66 66 65 65 65 65 64 63 64 63 62 62 61 60 59 58 58 56 57 57 58 62 65 65 67 66 67 70 69
64 65 67 69 69 69 69 69 68 69 68 68 67 67 67 65 59 65 64 64 65 63 64 63 62 62 61 61 60 59 57 56 56 56 57 58 60 63 63 63 66 67 69
62 65 67 68 68 68 69 69 69 69 68 68 67 66 66 62 60 62 63 64 64 63 62 63 62 62 62 61 61 60 58 56 55 55 56 55 57 62 65 64 64 65 65
66 66 67 67 67 68 68 68 69 69 68 68 67 66 66 65 60 60 62 63 62 62 63 63 62 62 62 60 60 59 58 57 58 57 56 57 57 60 63 65 65 64 63
67 66 66 67 67 68 68 68 69 69 69 67 66 66 66 63 58 59 61 62 62 62 63 63 62 61 61 60 59 58 57 55 56 56 57 57 58 61 62 65 65 65 67
65 66 66 66 67 67 67 68 69 68 67 67 66 65 65 65 59 57 59 63 61 61 63 62 62 61 59 57 58 57 56 55 56 56 57 57 58 58 60 64 65 63 64
64 65 67 67 67 67 68 68 67 69 66 62 62 65 62 66 57 57 59 59 59 60 62 62 59 58 55 53 55 57 56 56 56 57 56 58 58 58 59 60 64 64 62
64 66 67 68 69 69 70 69 69 65 65 65 65 64 64 63 61 58 56 60 59 60 57 57 60 54 51 50 52 57 55 55 57 57 56 57 61 60 59 60 65 67 64
68 67 68 69 65 62 69 69 66 68 65 65 65 61 59 62 56 57 56 56 56 57 56 56 60 50 48 50 53 53 54 55 56 56 56 56 57 62 62 66 65 67 69
71 70 70 70 68 69 67 67 66 65 65 66 63 57 56 58 63 57 54 52 53 54 57 55 51 49 49 51 51 53 54 55 55 55 55 56 56 59 65 67 67 66 67
70 70 70 70 70 68 66 66 63 65 63 61 58 60 59 62 58 52 53 54 53 54 54 54 55 52 50 51 53 54 54 54 55 55 55 57 58 57 58 61 66 67 66
69 69 69 66 66 63 58 57 60 52 51 55 53 54 52 54 48 45 45 49 51 48 46 54 58 53 49 49 51 53 53 53 53 55 56 56 57 55 56 57 59 63 65
66 63 62 62 58 62 58 53 46 45 43 42 43 47 48 44 42 41 41 42 42 44 50 53 50 50 49 47 49 50 52 52 52 53 55 54 56 56 55 56 57 56 55
65 63 59 56 57 59 59 59 58 51 46 44 43 43 43 44 42 41 42 42 45 46 50 48 47 47 47 46 45 48 48 50 53 52 52 53 54 57 56 55 55 55 54
61 54 57 56 56 59 57 56 55 58 55 54 45 45 44 43 42 42 42 45 49 48 47 46 45 44 43 44 44 44 44 45 46 51 50 50 52 53 56 56 55 54 54
56 55 57 58 58 54 54 53 52 53 52 51 52 47 46 43 43 43 44 48 46 44 43 40 38 36 36 37 38 38 41 40 42 45 46 46 47 49 51 56 57 54 54
56 55 55 56 53 54 52 52 51 51 50 50 48 47 47 47 46 47 47 46 44 43 41 38 36 35 35 35 35 35 36 40 40 40 43 44 46 46 47 51 54 53 55
54 54 54 57 52 51 50 49 49 47 50 47 45 44 42 45 45 45 44 44 43 43 44 43 42 40 38 38 36 34 34 35 38 39 38 39 40 45 46 46 47 49 49
53 54 51 54 53 52 51 51 46 45 43 44 44 43 42 44 43 43 44 45 44 46 43 44 40 38 36 35 31 30 29 34 36 38 38 36 37 40 42 46 45 45 45
53 49 49 47 47 45 46 43 43 42 42 42 41 42 42 42 42 42 42 44 44 41 39 37 37 35 34 31 29 29 30 31 35 35 36 36 35 37 36 40 41 42 43
44 43 43 43 44 43 42 41 42 41 39 38 38 36 36 41 40 40 40 39 39 36 36 35 33 30 31 29 27 24 28 28 33 31 35 38 33 36 35 35 35 35 40
42 42 41 40 41 40 40 38 38 36 36 35 35 35 34 34 33 33 33 33 33 33 32 32 32 30 29 27 25 23 27 28 31 29 32 37 36 35 35 33 35 35 35
39 39 38 37 36 37 35 35 35 36 35 35 34 34 34 33 31 30 31 30 29 29 28 31 30 29 28 25 26 28 28 28 28 29 31 35 32 33 32 33 33 31 35

GFSGL_sfc_dewp_009.txt.gz
Dewpoint
67 66 66 67 65 65 64 63 63 64 65 64 64 63 63 63 63 63 62 62 62 62 62 61 61 59 58 58 58 56 55 55 54 53 56 57 61 63 64 69 69 68 68
66 66 65 61 62 64 63 63 63 63 63 64 63 64 63 63 63 62 61 61 61 61 61 61 60 60 58 57 56 56 55 55 56 53 54 56 59 61 64 66 66 67 70
64 66 64 62 61 62 63 63 63 63 62 62 63 62 62 62 62 62 62 62 61 61 61 61 59 59 57 58 57 56 55 56 55 54 54 55 58 60 62 65 66 67 68
63 64 63 63 63 63 64 64 64 63 63 64 64 63 63 63 62 63 63 61 61 60 62 61 59 59 58 58 57 56 56 54 54 54 54 55 56 57 60 61 63 66 66
62 62 62 63 64 64 64 65 64 63 64 63 63 63 62 63 62 58 60 62 62 60 61 61 61 61 62 60 59 58 56 56 54 54 53 54 54 54 56 58 60 64 66
61 61 64 64 64 65 64 65 63 63 63 64 62 61 61 62 59 59 60 59 60 59 59 60 60 62 60 61 61 61 60 57 54 54 54 54 54 56 57 56 58 61 61
63 62 63 63 63 64 64 65 65 64 63 61 63 62 61 62 61 60 61 59 58 59 59 59 59 61 61 59 59 60 60 60 59 57 55 55 56 56 57 56 57 59 62
63 63 63 63 63 64 64 64 64 63 61 62 62 61 62 62 59 58 60 58 59 60 60 59 59 59 59 58 57 56 56 57 57 56 56 55 56 56 57 57 57 58 63
63 62 64 63 63 64 65 64 64 63 63 63 62 61 61 60 57 57 58 57 58 57 59 59 59 58 57 55 54 54 55 56 56 56 56 56 57 58 58 58 57 58 58
63 63 65 64 64 64 65 65 63 63 62 62 58 61 59 58 57 56 57 56 53 56 58 58 58 55 53 52 53 54 55 54 54 55 55 56 57 58 59 59 57 58 59
63 65 65 65 65 65 65 65 63 63 58 59 60 60 60 59 58 56 55 55 57 57 55 53 55 51 50 50 51 54 53 54 55 55 56 56 57 58 59 58 58 57 60
63 64 65 65 65 64 65 65 63 62 61 60 59 59 58 58 55 54 54 54 56 52 52 53 53 48 49 49 51 52 52 54 55 55 55 55 56 56 57 59 57 58 61
65 65 65 66 66 62 64 63 62 61 61 60 59 58 56 57 56 53 51 52 53 52 53 52 49 47 48 49 51 52 53 53 54 53 54 54 56 58 58 62 60 58 62
60 65 65 65 64 64 63 61 60 60 58 58 56 55 56 55 50 49 50 50 52 50 49 48 52 50 49 50 51 52 53 53 52 52 53 55 56 57 56 57 59 63 63
57 57 64 64 63 58 54 54 58 49 50 54 52 51 51 49 46 44 46 48 48 47 45 50 52 49 47 46 47 51 51 51 51 52 52 52 53 56 56 57 56 56 58
57 62 62 61 60 58 53 49 45 45 43 42 43 47 45 44 42 41 41 41 41 43 47 48 47 46 46 45 45 46 47 48 49 51 51 51 52 54 56 56 56 55 54
62 60 59 56 57 58 54 51 48 47 45 43 42 43 43 43 42 41 41 41 44 46 47 46 45 44 42 41 40 41 41 42 46 50 50 50 50 52 54 55 55 54 54
58 54 55 56 57 58 58 58 56 52 50 49 44 45 43 43 42 41 43 46 46 45 43 41 38 37 37 37 37 37 39 39 40 41 46 46 50 50 52 54 54 54 54
58 58 58 56 56 56 55 53 53 53 52 52 49 46 45 43 42 42 43 46 43 41 38 36 35 34 33 33 34 36 36 36 39 38 38 39 42 50 49 52 51 50 51
54 54 55 55 55 53 53 51 51 51 50 49 47 47 46 46 45 45 45 44 43 42 39 37 35 34 34 34 34 34 35 35 37 37 37 36 37 44 47 48 49 49 49
56 54 55 53 52 51 50 49 49 49 49 46 45 43 42 45 44 44 43 43 42 43 42 41 40 37 36 35 31 30 31 35 36 36 36 37 36 37 43 43 45 46 47
54 53 53 53 52 51 50 50 50 46 46 45 43 42 42 44 43 43 42 43 43 43 41 38 37 35 32 29 28 29 31 33 34 34 34 36 35 37 36 40 40 42 43
53 52 48 47 47 46 44 45 44 47 45 45 43 42 43 43 42 41 42 42 41 37 36 35 34 32 31 29 28 30 30 29 30 32 32 35 34 34 36 35 34 37 39
46 46 45 45 45 44 43 41 40 41 40 39 43 43 43 43 42 41 41 40 34 33 35 33 31 29 27 26 26 27 26 27 30 29 31 34 34 33 34 33 35 33 35
44 45 45 45 45 42 41 38 39 41 38 37 38 36 39 41 41 40 39 33 33 32 32 34 30 27 26 25 23 22 26 28 28 29 31 33 33 32 31 32 31 34 33
43 43 41 40 39 41 37 36 36 38 37 36 36 36 35 34 33 32 31 31 31 29 31 31 31 27 26 25 26 27 27 27 27 29 31 32 29 31 30 30 29 31 31

GFSGL_sfc_dewp_012.txt.gz
Dewpoint
65 64 63 64 63 63 63 62 62 62 63 63 63 63 62 62 62 62 62 62 61 61 61 61 60 60 58 58 57 56 54 54 52 52 53 53 54 54 56 59 62 65 68
65 64 64 65 65 63 63 62 62 62 63 63 63 63 63 63 62 61 61 61 60 60 61 60 60 60 58 57 56 55 54 54 54 54 54 54 54 54 56 58 59 62 66
66 64 64 63 62 63 63 62 62 62 62 62 61 61 61 61 61 61 61 61 61 61 61 60 59 59 58 57 56 56 55 56 55 56 54 54 54 54 55 57 58 60 64
66 64 64 60 59 61 63 62 61 62 61 61 61 62 62 62 61 61 62 61 61 61 60 60 60 59 58 57 57 57 56 54 55 55 55 54 54 53 54 55 55 57 58
65 65 64 62 61 61 62 62 62 62 62 62 62 62 62 62 62 62 60 60 60 60 59 60 60 61 61 60 59 57 56 55 57 56 54 53 53 52 53 53 56 56 56
64 64 65 63 62 62 62 63 63 63 62 62 63 62 60 61 61 60 59 57 58 59 58 58 59 61 62 62 61 61 60 57 56 56 55 54 53 54 53 54 55 54 53
64 64 64 64 62 63 62 62 63 62 62 62 62 61 61 60 60 60 62 59 57 57 57 58 58 60 61 59 59 60 59 59 59 57 55 55 54 54 55 55 55 55 54
64 63 64 63 62 62 62 62 63 63 63 62 61 62 61 60 59 59 60 57 57 57 58 58 57 58 58 57 55 54 54 54 55 56 55 54 54 53 55 56 56 56 56
63 63 64 63 62 61 62 63 63 63 62 61 61 61 60 60 57 56 57 56 55 55 55 57 57 56 57 56 53 52 52 53 56 57 56 56 56 56 57 57 55 55 53
63 63 62 61 61 62 63 63 63 63 62 62 60 60 60 60 57 55 55 56 52 53 56 56 56 54 53 53 51 51 52 53 53 53 54 55 56 56 57 57 57 55 54
63 63 62 63 62 62 63 63 63 62 60 61 60 60 60 60 59 54 54 54 55 55 54 52 53 51 50 49 50 49 52 53 54 54 54 54 54 56 56 58 58 58 55
64 64 64 64 63 63 63 63 62 61 60 59 59 57 59 57 54 53 54 52 54 52 51 52 50 49 48 49 50 51 52 53 54 53 53 53 54 54 55 57 59 59 57
59 59 59 61 61 64 64 63 61 60 59 58 57 58 56 55 52 50 50 50 52 50 51 49 49 47 47 48 50 51 52 52 52 51 51 52 53 54 55 57 59 59 57
60 60 58 60 59 59 62 62 61 59 58 58 57 55 54 50 48 48 49 49 50 50 48 47 50 50 49 48 48 50 52 51 50 50 51 52 53 54 54 57 56 58 57
58 58 58 59 62 59 56 55 56 49 52 53 52 52 53 49 47 45 44 46 47 45 46 49 48 46 45 45 45 48 49 48 47 48 50 50 51 52 53 56 56 56 55
58 58 57 60 59 56 51 48 45 44 43 42 45 46 45 45 43 42 41 40 41 42 46 45 44 44 43 42 41 42 42 43 44 46 49 49 50 50 52 54 55 55 54
57 57 60 57 58 54 51 50 48 48 45 43 41 43 43 42 41 40 41 41 42 44 44 42 41 39 38 38 38 37 38 39 42 44 48 47 48 50 51 52 52 52 54
59 56 56 55 57 54 52 51 49 48 47 47 45 44 43 42 41 41 42 43 41 40 39 37 34 33 33 34 34 35 36 36 37 38 43 38 44 49 49 49 50 50 51
58 57 56 56 56 55 54 54 52 51 50 47 46 45 45 43 42 41 42 43 40 37 35 34 33 32 32 32 33 34 35 36 37 35 36 36 36 45 47 48 48 47 49
56 56 56 55 54 53 52 52 51 50 49 47 46 46 46 45 44 44 44 43 42 39 37 36 35 34 34 34 31 30 33 35 35 34 35 36 36 36 41 45 47 47 48
57 55 56 54 52 52 50 50 49 49 48 47 46 45 43 44 43 42 43 42 42 42 40 38 38 36 34 28 28 30 32 33 33 33 34 35 36 36 36 36 41 45 46
55 54 53 52 51 50 49 49 48 48 48 46 43 43 41 43 43 42 42 43 43 41 37 35 33 30 27 26 29 29 29 29 30 31 32 34 35 35 35 35 35 38 40
54 53 53 53 51 50 49 49 49 47 47 45 42 43 43 43 42 42 41 42 38 35 34 32 30 28 28 27 28 27 26 26 28 30 31 34 34 33 34 34 34 34 36
50 49 47 45 44 43 43 42 43 42 46 45 43 42 43 43 42 41 41 38 35 34 32 30 28 25 23 23 23 22 24 26 28 28 31 32 32 32 32 32 33 33 34
44 44 44 44 44 43 42 39 41 40 39 41 43 42 43 43 42 41 40 33 32 34 31 29 26 24 21 19 19 19 25 28 28 30 32 29 30 30 30 31 32 32 32
41 41 45 45 45 44 42 39 36 39 37 37 37 39 42 42 40 39 35 32 31 32 31 29 27 23 23 22 22 26 27 27 28 30 31 28 28 29 29 29 30 31 31

GFSGL_sfc_dewp_015.txt.gz
Dewpoint
65 63 61 61 61 63 62 62 62 61 61 61 62 62 62 62 61 61 61 61 61 60 60 60 60 59 58 57 57 55 53 53 51 51 53 54 54 54 54 55 57 58 60
65 63 62 63 62 62 62 62 61 61 62 62 63 63 62 62 62 61 60 61 61 60 60 60 60 61 59 57 56 55 54 53 53 51 53 54 53 55 55 55 55 55 58
65 63 63 63 63 62 62 62 61 61 61 63 62 61 61 61 61 61 61 60 60 60 60 60 59 58 58 57 57 56 55 56 54 55 55 55 55 55 54 55 55 55 57
64 64 63 63 64 63 63 62 61 61 61 61 61 60 60 61 61 61 61 61 61 61 60 60 59 59 58 58 57 57 57 55 54 55 56 54 53 54 54 54 53 53 54
64 63 62 64 65 63 63 62 61 61 61 61 61 61 62 62 62 61 61 61 59 59 59 59 59 60 62 61 58 57 56 55 55 56 55 54 54 53 52 52 51 52 53
65 63 65 65 64 61 61 62 61 61 61 62 61 61 61 62 60 61 62 57 57 57 57 57 57 60 60 61 62 62 60 56 55 55 55 54 54 53 52 51 51 52 52
65 65 65 65 65 64 62 62 61 61 61 61 61 62 61 61 59 60 62 60 58 57 56 56 57 59 60 58 59 60 59 60 60 56 54 54 54 53 52 52 52 53 52
64 65 66 65 64 63 62 61 61 62 61 61 61 61 61 61 59 58 61 59 57 56 56 56 55 55 56 57 56 54 53 53 54 54 54 55 54 54 53 53 54 55 55
64 64 65 65 63 63 61 62 61 62 62 62 61 60 61 61 58 57 57 57 55 54 54 54 55 55 56 57 53 52 51 52 54 56 56 56 56 56 57 56 54 54 52
64 64 64 64 63 63 62 62 62 62 61 62 61 61 60 61 58 56 56 55 53 53 54 54 55 54 53 52 50 49 51 51 52 53 53 54 54 54 56 56 55 53 53
64 64 64 63 63 63 63 63 63 62 60 60 60 61 61 61 59 55 54 54 54 54 53 51 52 52 50 49 50 48 49 51 53 53 53 52 53 53 54 55 56 55 54
63 63 62 63 65 64 63 61 58 59 61 60 60 60 59 59 55 53 53 53 54 52 51 50 50 49 48 48 49 51 51 52 53 52 51 51 52 52 53 55 56 57 59
60 59 60 60 62 62 61 57 57 58 61 59 58 56 56 55 51 49 49 50 52 50 50 49 49 47 47 48 49 50 50 51 50 48 49 51 52 52 53 55 56 57 59
60 59 58 58 58 59 60 59 60 60 59 58 57 56 54 51 49 48 48 48 50 48 47 46 49 49 48 47 46 46 50 49 47 46 48 50 51 51 52 54 54 55 56
58 58 57 59 60 59 52 51 56 52 53 57 56 54 53 50 48 45 44 45 45 44 46 48 46 45 44 42 41 43 46 44 43 44 46 47 48 49 51 53 54 54 54
56 56 56 57 57 57 53 49 46 45 43 43 45 48 45 45 43 41 40 40 40 40 46 45 43 42 39 39 37 37 39 39 42 43 43 45 45 47 49 51 52 52 53
55 55 55 56 57 56 52 49 47 46 43 41 41 42 43 43 41 41 40 40 41 43 44 41 39 37 36 35 35 35 36 36 37 40 41 40 41 44 48 49 50 50 51
55 53 56 57 56 54 51 51 49 47 46 45 43 43 42 41 41 41 41 41 41 39 39 36 32 31 31 31 31 32 34 35 36 35 37 36 38 41 45 46 48 48 49
57 56 55 55 56 54 52 50 49 48 47 46 45 45 44 42 41 41 41 42 39 36 34 32 32 31 31 31 30 30 34 34 35 34 34 35 35 38 40 44 46 47 48
55 55 55 55 54 53 53 52 50 49 47 46 46 46 45 45 43 43 43 42 39 37 36 35 34 34 33 29 27 29 32 32 32 32 32 34 35 35 36 39 43 45 46
54 54 55 54 53 52 52 52 51 50 48 47 46 45 43 44 43 42 41 41 42 40 38 37 37 35 26 25 29 30 30 30 30 31 32 33 35 34 35 35 36 40 43
55 54 54 52 52 51 51 51 50 50 49 46 44 43 41 43 42 41 42 42 43 42 39 34 30 26 24 27 28 27 27 27 28 30 31 33 33 34 34 34 35 35 35
53 53 52 52 52 51 50 49 48 48 49 48 45 43 43 42 42 41 41 41 37 34 32 30 29 27 26 27 26 26 25 26 27 29 30 32 32 32 33 33 34 34 34
52 52 52 52 53 50 49 47 45 46 47 45 43 43 43 43 41 41 41 38 34 33 31 29 27 24 23 24 23 21 23 25 27 29 30 30 30 31 32 31 32 32 33
49 49 48 49 47 45 43 41 41 42 46 45 43 43 43 43 42 41 41 35 34 32 30 27 24 20 17 16 17 18 23 28 29 31 29 28 28 29 29 30 31 31 31
40 42 45 44 44 44 43 41 40 40 39 42 43 42 42 43 42 41 39 33 33 31 29 27 24 20 19 18 18 25 27 28 29 30 28 27 28 28 28 29 29 30 30

GFSGL_sfc_dewp_018.txt.gz
Dewpoint
68 66 64 61 60 61 62 63 63 62 63 64 64 64 63 63 64 64 63 63 63 63 63 62 62 62 61 61 60 59 58 57 54 54 54 56 57 58 58 58 57 58 57
68 66 64 62 61 62 63 63 63 63 63 64 63 64 64 64 64 63 63 63 62 62 63 62 62 62 62 62 60 60 59 58 56 56 57 55 57 59 59 58 57 55 57
68 66 64 62 62 63 64 63 62 62 63 63 64 64 64 64 63 63 63 62 62 62 62 62 62 62 61 61 60 60 60 59 58 57 56 57 57 58 57 58 58 58 57
67 66 64 62 63 64 64 64 62 62 62 62 63 63 63 62 62 63 63 63 63 62 63 62 62 61 61 61 60 60 60 59 59 57 56 56 56 58 57 56 55 55 54
67 66 64 64 65 65 65 65 65 62 62 62 63 62 62 62 61 63 63 63 63 62 62 62 61 61 61 62 62 62 60 59 59 57 56 56 55 56 55 55 54 54 54
66 65 64 64 64 64 63 62 63 63 62 62 62 62 62 62 61 62 64 62 62 61 60 61 60 60 60 61 61 61 62 60 59 58 56 55 56 56 55 55 53 52 50
66 64 64 63 63 63 62 62 62 62 62 62 62 62 63 63 60 60 62 64 62 61 61 60 59 60 60 59 59 59 60 60 61 60 57 57 56 56 56 55 54 53 52
66 64 63 62 62 63 63 62 62 63 62 61 62 63 63 64 60 59 60 63 62 61 60 59 59 58 58 58 58 58 56 56 56 54 55 55 56 57 57 55 54 54 55
65 64 63 62 62 63 64 64 64 63 63 63 63 63 63 64 58 58 60 61 60 59 58 57 57 59 56 56 57 55 54 53 54 55 55 55 55 55 56 56 54 53 51
65 65 65 64 63 65 64 64 65 64 64 64 62 62 61 62 59 57 59 60 58 56 57 58 55 55 53 52 54 53 52 52 52 53 53 54 54 55 55 56 55 53 52
66 66 66 66 65 65 64 64 64 63 63 62 61 61 62 61 62 57 56 58 57 56 56 54 55 53 51 50 50 53 52 53 52 52 52 50 51 53 53 55 56 54 52
65 65 64 64 65 64 64 64 63 62 61 61 61 61 62 62 57 57 52 54 56 57 55 53 54 49 48 48 50 50 50 51 52 50 48 49 51 51 52 53 55 55 56
63 63 64 64 64 64 64 62 60 59 59 60 61 61 62 59 56 51 50 51 52 52 52 51 49 47 47 48 48 49 49 51 49 47 47 48 50 51 52 53 55 55 55
61 61 62 62 62 62 61 60 59 59 60 60 61 60 59 57 54 51 50 50 50 51 48 49 50 49 48 47 46 46 48 47 47 46 46 47 49 49 49 52 52 53 53
61 60 60 59 59 55 51 53 59 55 57 61 60 59 57 54 52 48 48 48 49 47 49 50 50 47 46 43 42 43 42 43 44 44 44 44 45 46 47 51 52 52 52
59 59 58 60 59 56 53 50 44 43 43 43 45 51 49 47 43 42 41 41 41 42 49 49 47 44 42 39 38 37 38 38 38 39 41 40 42 44 45 49 51 51 51
57 57 58 57 58 55 55 53 50 47 42 41 41 42 43 42 41 40 39 40 40 43 47 45 43 40 37 36 34 34 35 36 38 36 39 37 37 40 43 46 48 50 50
58 52 55 56 57 56 55 53 51 50 49 46 43 43 41 40 40 39 39 42 43 42 42 40 36 34 33 32 31 30 34 35 35 34 36 35 36 38 41 43 45 46 48
59 59 58 57 58 55 54 53 50 50 49 47 48 46 44 41 40 40 41 45 43 39 36 34 34 33 34 32 29 29 35 34 34 33 33 34 35 36 39 42 43 44 47
59 56 56 57 55 54 53 52 50 49 48 48 47 48 47 45 45 45 44 43 41 38 37 36 36 36 35 29 28 31 34 32 32 32 32 34 35 35 35 38 40 43 45
57 56 56 55 55 54 53 52 51 50 49 48 48 48 44 46 45 44 44 44 43 41 40 39 38 37 29 28 32 32 31 31 31 31 32 33 34 34 35 35 36 37 41
56 55 55 55 53 53 53 53 52 52 51 49 48 47 41 45 44 44 44 44 44 45 42 40 37 29 26 30 30 30 30 30 31 31 32 32 34 34 34 34 34 35 36
56 55 55 55 55 53 53 52 51 51 50 49 48 46 44 44 43 43 44 43 43 39 36 33 32 28 28 29 29 29 30 29 30 31 31 32 33 33 34 33 34 34 34
54 54 54 54 54 54 53 52 50 47 49 49 48 46 45 44 43 43 43 43 38 35 33 31 29 27 26 28 27 25 26 28 30 31 32 32 32 33 33 32 32 33 33
53 53 53 53 54 54 52 49 48 48 48 48 47 46 45 44 43 42 43 41 37 35 32 30 27 24 22 23 22 22 26 28 32 31 31 32 33 34 32 31 32 31 32
43 46 48 48 49 49 48 46 44 44 44 46 46 45 45 44 43 42 42 40 36 33 32 29 26 22 20 19 19 23 26 28 31 30 30 30 31 31 31 31 30 28 30

GFSGL_sfc_dewp_021.txt.gz
Dewpoint
72 73 73 71 71 66 67 65 65 66 67 67 67 67 67 67 67 67 67 66 66 66 66 66 66 66 62 62 63 62 60 59 56 54 55 59 61 62 61 62 61 60 57
71 72 72 70 65 67 65 65 66 66 66 66 67 67 66 66 67 67 66 64 65 65 64 65 65 63 66 68 65 65 62 62 59 58 60 58 61 62 62 62 60 58 58
70 70 70 66 67 66 65 66 65 65 65 65 66 67 66 66 66 67 66 65 65 64 64 65 64 65 65 66 65 62 60 62 62 59 57 57 58 59 59 60 60 60 58
69 69 69 66 68 67 66 65 64 65 64 65 66 66 66 67 66 65 65 65 65 64 65 65 65 64 64 65 64 65 64 63 62 59 58 56 56 59 58 56 55 55 55
70 70 69 67 68 68 68 67 63 64 63 65 65 65 65 65 63 65 65 65 66 65 65 65 64 64 63 63 60 62 63 60 57 57 57 55 54 54 55 54 54 54 56
71 69 69 67 68 67 67 67 66 64 65 65 65 64 65 63 60 61 64 65 66 65 64 64 64 63 62 62 62 62 62 62 61 60 56 56 58 57 55 55 54 52 51
70 70 68 68 68 67 65 66 66 66 65 64 65 65 65 65 60 60 63 65 65 65 65 65 64 60 61 60 60 60 60 60 61 61 59 58 58 58 58 56 56 55 55
70 69 68 68 67 67 66 65 67 67 64 64 65 66 65 65 60 59 61 65 66 65 66 65 64 62 61 60 59 59 59 59 60 57 58 57 57 57 56 56 56 56 56
69 69 68 68 67 66 65 65 67 67 65 64 65 66 66 67 58 58 60 64 63 63 64 63 61 60 59 56 57 58 58 57 56 55 55 55 55 56 56 55 53 53 51
69 69 68 68 67 66 65 66 67 67 66 64 64 66 64 66 58 57 60 61 61 62 62 60 57 58 55 54 57 57 56 56 55 55 54 55 56 55 56 56 54 55 51
70 69 68 67 67 66 67 67 67 67 66 66 65 67 65 65 62 56 56 60 61 60 59 57 57 53 52 51 51 56 55 53 53 52 51 51 51 53 53 54 55 53 54
69 68 68 68 66 66 67 67 67 67 66 67 66 63 63 65 58 55 55 55 60 59 58 57 56 50 49 49 50 51 50 49 49 49 49 48 49 49 49 51 54 55 56
69 68 67 67 67 67 67 67 67 67 66 66 62 62 61 63 62 53 52 52 54 57 56 53 50 48 48 49 49 48 48 49 48 47 46 46 46 47 51 49 52 56 57
68 67 67 67 67 67 66 65 64 63 63 61 61 60 62 61 59 56 54 54 52 52 51 52 51 51 48 47 48 48 47 46 44 43 43 43 44 43 42 43 47 52 54
66 66 66 65 64 62 58 58 60 62 56 59 60 61 60 59 57 53 52 54 53 50 51 53 51 51 51 50 48 46 45 44 42 40 39 39 38 38 38 42 47 51 53
64 63 62 61 60 58 56 53 44 44 44 45 46 55 55 47 44 43 43 42 43 44 49 50 50 50 49 46 44 42 42 40 39 38 38 37 36 37 37 42 46 49 52
61 60 58 58 59 58 57 56 53 46 43 41 41 42 44 43 41 40 40 40 40 43 48 49 49 48 46 43 39 37 36 37 42 37 36 36 36 36 38 42 45 48 50
59 54 57 57 57 59 58 58 56 53 51 48 42 43 40 40 40 40 40 43 46 46 49 48 46 43 40 39 37 35 33 34 35 35 35 35 35 35 36 39 43 47 49
58 57 56 55 57 58 59 57 54 54 51 49 47 45 43 40 40 41 42 46 44 44 44 43 41 39 39 39 36 34 34 34 34 35 33 33 33 33 34 37 42 44 46
60 58 59 60 58 58 57 55 53 52 51 50 49 49 48 46 46 46 46 46 44 43 42 41 40 41 41 37 34 32 34 35 35 33 33 33 33 32 32 33 39 41 43
59 57 56 57 57 56 56 54 53 51 51 50 51 49 45 47 45 44 43 44 43 43 43 42 42 41 37 35 34 34 35 34 33 33 32 32 33 31 33 33 34 39 39
57 58 56 55 55 56 55 54 54 52 51 50 50 49 43 47 45 44 44 44 44 45 44 45 41 36 32 31 34 34 34 32 33 32 32 32 32 32 32 32 32 34 38
57 58 58 58 57 55 55 54 53 52 52 50 48 48 47 47 45 44 43 44 44 44 44 40 37 33 31 30 34 36 34 31 31 33 32 32 31 31 31 31 32 32 34
56 56 57 57 57 56 56 56 53 50 50 49 48 48 48 48 47 44 43 43 43 42 40 36 33 29 28 28 33 32 33 33 33 32 34 33 32 32 30 31 31 33 32
54 55 54 55 55 55 55 53 51 50 49 48 45 46 46 47 47 45 42 43 42 41 38 35 31 29 24 26 26 28 28 27 33 31 31 33 34 34 31 29 31 30 32
46 49 52 53 53 53 53 52 50 50 48 44 44 45 46 46 46 46 43 42 41 39 37 33 31 28 23 23 23 24 26 27 32 30 31 31 31 29 29 29 29 27 30

GFSGL_sfc_dewp_024.txt.gz
Dewpoint
73 74 75 73 73 74 73 73 72 70 70 70 69 68 68 67 67 68 67 64 65 66 65 65 65 67 61 58 58 59 58 56 54 53 54 58 61 63 62 62 61 61 59
72 75 74 74 74 74 73 72 70 69 69 69 69 69 68 67 68 67 65 63 64 64 64 65 64 61 65 66 59 63 60 61 56 61 61 57 62 62 62 63 60 58 58
70 70 72 73 73 72 72 70 68 67 67 67 69 68 67 67 68 67 66 65 64 64 64 64 63 63 64 61 62 59 57 60 59 58 58 57 57 57 60 61 61 62 56
67 69 73 73 73 72 72 69 66 67 67 67 66 68 68 68 67 65 66 66 65 64 65 65 64 63 63 63 62 63 62 60 61 56 55 57 56 59 61 57 55 52 52
68 69 72 75 72 72 73 71 69 68 66 66 67 67 67 66 62 66 65 65 65 65 65 64 64 64 65 64 60 62 64 59 55 53 52 54 54 59 60 55 53 52 56
69 70 73 73 72 72 72 71 69 69 69 68 67 66 66 62 60 62 65 64 65 65 65 65 65 65 64 62 62 62 62 61 60 57 54 58 61 58 55 54 53 52 51
72 72 73 73 72 71 71 70 70 67 65 67 67 67 65 65 60 61 63 64 64 66 67 68 66 65 64 63 62 61 61 60 60 61 59 58 58 58 59 60 57 55 53
73 73 73 72 71 71 71 70 69 65 67 67 67 67 67 65 60 59 62 65 67 67 65 64 65 64 67 63 61 60 60 60 61 59 60 59 59 59 58 56 57 56 56
72 72 72 71 71 70 70 70 68 67 66 67 67 67 68 67 59 59 61 65 66 64 64 64 64 64 61 58 60 59 59 59 57 57 56 55 55 56 56 54 53 53 53
71 71 72 71 71 70 70 70 69 67 66 65 66 68 64 67 57 57 61 65 64 64 63 63 60 59 58 55 58 58 57 57 57 57 56 56 57 57 58 58 55 56 55
70 71 71 71 71 71 70 69 68 67 67 67 66 67 67 67 66 56 57 64 60 60 63 61 61 57 53 52 53 58 57 56 55 54 51 48 50 52 51 55 56 52 48
72 71 71 71 69 68 69 67 68 67 67 67 67 69 69 69 61 55 54 55 60 62 60 60 61 53 51 51 52 51 50 49 50 49 46 46 47 48 48 49 54 54 51
72 71 70 69 69 68 68 68 66 67 67 67 68 67 66 65 63 54 52 53 55 61 60 52 51 50 49 50 51 49 49 49 49 46 45 46 46 46 50 52 53 57 58
70 69 69 68 67 68 67 67 67 67 66 66 67 63 63 62 61 59 58 55 55 56 53 54 53 52 52 50 51 49 50 49 47 46 45 45 44 43 42 40 37 40 47
69 68 67 67 66 64 60 57 62 59 57 64 59 61 60 59 59 54 54 56 56 53 55 54 52 51 51 51 51 50 49 47 45 44 43 42 41 39 36 36 37 44 49
67 66 65 65 64 63 61 56 44 45 45 46 47 56 53 49 45 44 45 43 44 45 49 50 50 50 49 49 49 47 45 44 44 43 42 40 37 36 34 35 40 45 49
65 64 61 59 60 59 58 56 55 49 43 42 41 43 44 43 42 42 41 41 42 44 48 48 49 49 49 48 46 43 41 41 46 41 39 38 35 34 34 35 40 45 48
60 55 58 57 56 56 56 56 55 55 54 51 43 45 41 41 40 40 40 42 47 46 46 46 47 48 48 45 43 41 41 40 39 38 36 34 33 32 32 34 39 45 47
58 55 55 55 55 55 57 58 55 55 54 51 48 45 43 40 40 41 42 45 43 42 42 43 44 44 44 44 42 42 41 37 35 36 34 32 31 31 32 32 35 43 44
59 58 56 55 57 58 57 55 53 54 53 51 50 50 49 45 45 46 47 47 43 40 42 41 43 44 44 44 40 37 35 35 35 33 32 31 31 31 29 30 31 36 43
55 57 57 54 53 53 53 53 52 52 51 51 50 50 45 46 45 44 44 45 43 43 45 42 44 43 43 38 34 33 33 33 34 32 31 31 31 30 31 31 30 30 36
54 53 52 52 53 54 54 53 52 51 50 49 49 49 44 47 45 45 45 45 45 46 43 45 43 41 35 31 31 33 34 32 33 32 31 31 31 30 30 30 30 30 31
53 54 53 54 54 53 54 51 51 51 49 49 48 47 47 45 46 45 45 44 45 44 44 43 42 37 33 28 32 36 34 32 31 33 32 32 31 31 31 30 30 30 31
54 54 53 54 54 53 52 52 52 49 50 48 47 47 47 46 46 46 45 44 44 42 42 40 36 31 31 27 30 31 34 33 34 32 35 33 32 33 31 30 30 31 31
51 51 51 51 52 52 52 52 51 52 50 48 47 47 44 43 43 43 44 43 43 42 40 38 33 31 31 29 27 28 31 27 34 31 33 34 34 36 31 28 30 29 31
47 50 49 50 50 53 52 51 52 51 48 47 47 43 42 41 42 42 43 42 42 41 39 37 33 31 28 25 26 27 25 27 31 30 30 32 31 30 29 29 29 25 29

GFSGL_sfc_dewp_027.txt.gz
Dewpoint
76 76 77 76 76 77 75 76 76 76 73 72 72 71 71 69 70 71 70 67 66 67 66 66 67 68 60 58 62 66 63 63 58 58 56 60 67 66 64 65 62 63 59
74 76 76 77 76 76 76 76 76 75 74 72 72 71 69 69 69 69 68 64 65 65 66 67 65 60 67 69 61 66 61 63 56 63 61 58 64 66 67 67 62 57 59
72 73 76 76 76 76 76 76 76 75 73 71 71 71 69 69 69 69 68 67 66 64 64 64 63 64 67 63 64 63 57 62 64 59 57 56 59 59 61 65 65 63 59
67 70 75 76 77 76 77 77 76 74 72 71 71 70 69 69 67 68 66 66 65 65 64 65 64 64 66 68 66 68 66 61 61 58 58 57 59 62 60 62 58 58 58
70 71 74 77 78 78 77 76 75 74 71 71 70 67 67 64 63 68 66 65 67 65 65 64 66 66 65 64 61 64 67 61 55 54 55 54 52 61 60 57 56 55 57
72 72 75 77 78 77 76 76 74 72 71 70 68 65 66 64 62 63 66 64 67 67 66 67 67 66 66 64 64 64 63 64 64 58 57 56 61 59 56 54 54 52 51
74 74 76 77 77 76 75 75 74 72 70 69 68 67 67 68 60 61 63 65 65 67 67 68 67 67 65 65 64 64 63 62 61 62 61 61 61 62 62 61 60 57 54
74 75 76 76 76 75 74 75 74 72 70 69 68 69 68 68 60 60 62 65 67 67 67 67 67 66 65 64 64 64 63 64 65 62 64 62 63 61 60 58 60 59 56
74 75 75 75 75 74 72 73 73 72 70 69 68 69 69 69 59 59 62 64 64 67 67 67 65 65 62 61 61 60 61 63 59 58 58 57 56 56 56 54 52 52 53
73 74 75 75 74 73 72 73 73 72 70 69 68 69 65 69 60 58 61 70 68 63 67 67 61 63 58 58 61 61 60 60 61 59 58 58 58 58 57 58 56 53 54
72 73 74 73 73 73 73 73 71 69 68 68 68 67 68 68 68 56 56 69 65 66 62 63 62 58 55 54 55 61 58 57 58 56 53 52 53 52 49 57 61 56 50
73 72 72 73 71 71 72 71 70 69 69 68 68 67 70 71 63 56 55 56 61 64 61 62 61 56 54 52 53 55 52 51 52 50 49 49 46 46 47 51 58 56 53
73 74 74 73 71 72 70 69 67 68 66 67 65 69 69 70 67 55 53 54 56 60 62 57 53 51 51 51 52 52 50 51 50 50 49 46 45 47 56 54 56 59 58
73 72 71 70 70 69 67 68 67 67 67 68 67 67 65 69 65 64 61 60 56 58 55 56 55 54 54 52 53 52 52 52 50 49 46 46 45 44 43 42 39 38 38
70 69 69 68 68 67 60 60 67 64 59 65 65 65 64 62 62 56 56 59 59 56 58 58 55 54 53 53 53 56 55 54 49 47 45 44 42 41 39 37 36 38 40
68 67 66 66 65 64 62 57 45 46 45 46 48 56 56 49 45 43 42 43 45 46 54 54 51 51 53 56 56 55 55 50 47 46 45 43 40 39 36 35 36 38 42
66 66 64 62 62 61 61 59 58 50 44 42 42 43 47 46 42 42 42 42 43 46 49 49 49 51 56 55 53 48 45 45 51 44 43 41 39 37 34 33 34 37 43
64 58 62 59 58 57 57 57 55 56 55 53 45 46 41 41 41 41 41 43 47 46 47 46 46 51 49 47 46 45 44 44 43 42 40 38 35 34 33 33 33 36 40
59 57 56 55 54 54 54 54 53 54 54 53 49 46 44 41 41 42 42 47 45 44 42 43 44 44 44 45 45 45 46 43 39 37 37 35 33 32 33 32 32 36 39
57 57 55 54 54 54 54 53 52 52 53 51 50 50 48 46 46 46 47 48 45 41 40 41 41 43 44 45 44 42 40 37 37 35 33 33 33 32 30 30 31 31 33
55 53 58 53 54 54 53 52 50 51 51 51 52 51 47 48 46 46 46 45 45 43 44 43 43 44 44 44 39 35 33 33 34 32 31 32 32 31 32 31 30 29 30
54 52 52 51 52 55 56 57 55 50 52 53 51 49 45 46 46 45 46 46 45 46 44 45 43 42 40 36 32 31 33 32 32 32 32 32 32 32 31 31 30 30 30
52 53 52 55 56 55 52 51 54 55 53 52 51 49 48 44 46 46 46 46 46 45 45 44 44 41 38 33 30 35 35 32 32 33 33 33 33 33 33 32 30 30 31
56 53 55 57 56 56 56 55 55 50 50 51 51 49 49 47 46 47 48 45 45 45 44 43 39 36 33 32 29 30 32 35 34 33 36 35 34 34 33 32 30 31 31
49 49 52 53 55 51 49 50 53 53 50 50 48 49 49 47 46 46 46 46 43 44 42 41 38 35 34 33 30 32 31 28 32 31 31 37 36 38 32 30 31 29 31
46 46 46 51 51 55 52 53 55 55 53 49 50 49 46 47 45 44 44 45 42 42 42 40 38 36 32 30 30 30 27 26 30 29 30 34 34 33 29 31 30 27 29

GFSGL_sfc_dewp_030.txt.gz
Dewpoint
77 77 77 77 77 76 75 74 75 75 74 73 72 71 71 71 71 71 70 70 69 69 67 67 66 68 66 66 67 66 65 63 61 61 63 63 65 66 65 66 66 64 63
76 76 77 77 77 76 75 76 76 75 75 72 72 72 71 71 71 70 69 67 68 68 68 69 67 65 68 69 67 67 65 65 63 62 63 63 63 66 67 66 65 60 63
74 75 76 76 76 76 76 74 76 75 75 72 72 71 71 70 70 70 69 68 68 66 68 68 67 67 67 66 67 66 65 65 65 62 63 63 62 63 63 64 64 65 63
72 73 75 76 76 75 76 76 76 76 75 73 72 71 71 70 70 69 69 69 68 67 67 67 67 67 67 67 66 65 65 65 64 63 62 61 62 63 62 61 60 62 60
70 72 74 76 76 76 76 76 76 76 75 74 72 71 70 68 68 69 69 68 68 67 67 67 67 67 67 66 66 67 65 64 62 61 57 57 57 58 57 58 58 59 60
69 71 73 75 76 77 76 76 76 76 75 73 71 70 69 65 63 64 68 67 67 67 66 68 68 67 65 64 64 64 64 63 62 61 60 58 58 60 60 59 59 56 54
71 71 73 75 76 76 76 76 76 76 74 72 71 69 68 68 61 62 65 67 67 66 67 68 67 65 67 66 63 63 63 63 63 63 60 59 60 61 62 60 59 58 57
72 72 74 76 76 77 76 76 76 75 73 71 70 69 68 69 60 61 63 65 66 68 67 68 68 68 67 66 65 64 64 65 64 63 62 62 62 61 62 59 58 57 56
72 75 75 76 77 76 76 76 75 74 71 70 69 69 69 69 60 59 61 65 65 66 67 68 68 68 65 61 64 63 63 62 61 61 61 60 59 57 57 57 54 53 52
73 74 76 77 77 76 76 75 76 75 71 69 68 69 66 69 59 57 60 66 64 66 68 68 63 65 60 58 62 62 61 61 62 62 62 60 59 58 58 57 55 53 54
74 76 77 77 77 76 75 74 74 73 73 70 69 68 69 67 67 56 56 66 68 68 67 67 67 58 56 56 56 62 61 59 60 60 58 56 55 56 55 57 59 58 56
75 76 76 76 73 74 73 72 72 71 70 69 68 67 68 69 63 56 55 57 62 68 67 68 66 56 53 54 55 59 53 53 56 55 53 53 53 54 55 56 58 58 55
75 75 75 74 74 73 72 72 69 69 67 67 67 66 67 70 70 57 53 54 57 64 62 57 53 52 53 53 54 54 51 55 54 53 53 53 53 55 56 54 56 58 59
74 74 74 72 71 70 69 69 67 67 67 68 67 68 70 69 66 64 62 59 56 60 56 56 55 55 56 56 55 53 54 56 55 56 54 54 55 53 52 52 49 48 43
73 71 70 69 68 62 56 55 67 60 61 67 67 67 67 65 64 60 60 62 61 59 60 61 56 56 56 56 55 56 56 56 55 54 54 53 51 50 50 50 47 44 43
70 69 68 67 64 61 60 56 46 46 44 45 48 59 53 50 45 45 43 44 46 49 56 63 62 60 57 56 57 56 57 55 54 53 54 52 50 49 48 47 46 47 45
68 68 67 65 65 64 63 60 56 49 44 42 43 47 49 46 43 42 42 43 45 48 59 58 56 55 57 56 56 54 51 52 54 53 53 52 49 48 45 45 45 45 45
68 60 66 65 64 64 63 62 58 57 56 54 45 46 42 41 41 41 42 46 51 50 53 52 54 56 56 57 53 52 52 52 52 51 49 46 46 46 44 43 44 44 43
65 63 64 62 62 60 60 59 57 58 57 53 49 47 44 42 42 43 43 51 52 52 51 52 52 51 52 53 53 53 52 50 47 47 46 45 45 42 42 42 41 40 41
61 58 59 58 56 57 57 55 55 57 56 53 51 50 49 47 47 49 49 52 53 50 49 49 50 51 52 52 52 51 49 47 47 47 46 45 45 43 38 39 38 39 41
58 57 58 56 55 55 56 56 54 54 54 53 53 52 47 51 50 50 51 53 51 51 53 51 52 52 52 51 49 45 43 43 44 42 42 42 43 39 43 40 37 38 36
56 53 53 52 54 58 58 57 57 52 52 53 54 50 44 50 49 52 53 52 51 53 51 53 50 50 48 45 42 41 42 42 42 42 41 41 41 40 40 38 39 39 37
59 55 58 58 57 57 58 59 55 55 53 53 52 50 49 50 49 53 53 52 51 51 52 50 51 49 47 43 41 43 43 42 42 42 42 41 40 42 40 40 39 38 38
54 54 58 62 60 58 56 57 54 51 52 52 51 51 50 50 49 52 52 52 53 49 50 49 48 44 44 42 41 39 42 42 40 40 40 40 40 41 40 40 38 37 39
56 53 54 57 58 55 55 53 52 53 51 53 51 51 51 51 50 49 50 51 52 51 49 48 47 45 42 42 42 35 31 29 38 32 38 39 40 43 40 35 39 36 38
50 50 49 50 53 53 53 53 55 55 53 53 53 52 51 51 49 49 50 49 48 47 48 47 45 45 41 38 38 31 28 28 33 30 33 35 38 41 37 37 38 34 37

GFSGL_sfc_dewp_033.txt.gz
Dewpoint
73 73 74 74 74 74 73 73 72 70 71 70 71 71 70 70 69 68 66 66 67 65 65 64 65 63 62 61 63 61 60 60 57 56 59 60 62 61 62 62 63 62 61
74 74 74 74 75 75 73 72 72 71 71 70 70 71 70 70 68 68 67 66 65 65 64 64 63 63 62 62 62 61 61 61 60 57 59 60 59 59 61 62 63 63 61
73 74 74 75 74 75 74 73 72 72 72 70 70 69 70 69 69 68 67 65 66 65 65 65 64 64 63 64 64 62 62 62 61 59 59 60 60 60 59 61 61 62 62
73 74 74 74 75 75 75 73 74 74 72 70 70 69 69 69 68 69 67 67 66 65 66 65 65 64 63 63 62 62 63 61 61 60 59 59 59 58 59 57 56 58 59
72 73 73 74 75 75 75 75 72 74 73 70 69 70 70 69 68 68 67 67 66 65 65 65 65 66 66 65 63 62 62 61 59 58 57 56 56 56 56 56 57 57 57
69 71 73 73 75 75 74 74 74 72 74 72 70 70 69 69 65 66 67 67 67 66 65 65 64 67 67 66 64 64 62 60 58 58 57 57 57 58 59 58 57 56 54
65 69 71 73 74 74 74 74 74 73 74 73 71 70 69 68 63 64 66 67 66 66 65 64 65 65 64 63 63 63 63 62 61 59 57 57 57 59 59 58 58 58 57
66 68 70 72 73 74 74 74 74 74 74 72 70 69 69 68 63 61 63 65 66 65 66 66 65 65 65 63 62 61 61 62 61 62 61 60 60 60 60 59 58 55 55
67 67 70 72 73 74 74 74 74 74 73 71 70 69 68 67 61 59 61 65 65 64 66 67 67 65 63 63 62 61 60 61 62 61 61 61 61 61 61 56 53 51 51
65 69 70 72 73 74 74 74 74 73 71 70 69 68 65 66 60 58 60 65 64 64 64 66 62 64 61 60 61 60 59 59 60 60 60 58 58 57 58 56 54 52 52
69 73 73 74 75 75 74 74 74 72 70 69 68 67 67 66 63 56 56 64 64 64 65 65 66 60 57 56 58 60 60 58 57 55 54 54 53 53 54 55 57 56 53
73 75 75 75 75 74 72 73 72 71 69 68 67 66 67 67 63 56 55 58 63 66 65 65 63 58 54 54 56 58 55 53 53 52 52 51 51 52 51 51 53 56 57
75 75 75 73 73 72 71 70 69 69 68 66 66 65 66 67 67 57 54 54 58 64 64 59 55 54 53 54 55 56 53 52 52 52 51 52 51 49 50 48 47 44 44
73 72 72 71 71 70 69 69 68 67 67 67 66 65 65 65 64 60 58 57 57 57 56 54 55 55 55 56 54 53 52 52 52 52 52 51 50 47 45 46 43 41 39
72 70 69 68 63 59 55 61 65 60 63 67 67 67 65 64 63 60 58 60 59 58 57 56 54 53 53 53 53 52 53 53 54 54 52 49 46 46 45 43 41 38 37
69 68 65 64 63 60 58 53 45 46 45 46 51 57 53 54 51 50 50 50 52 53 56 57 54 54 54 55 54 54 55 55 54 53 51 46 45 45 42 42 41 39 41
68 66 65 63 63 61 59 57 53 49 45 43 44 46 49 47 45 43 42 43 45 49 55 56 55 54 54 55 55 54 53 54 51 48 47 47 45 42 42 39 37 40 38
67 61 66 64 64 62 60 58 56 55 54 51 44 44 42 42 42 42 43 46 48 47 51 50 50 51 53 52 50 49 47 47 45 40 38 38 38 41 38 37 37 37 36
66 65 65 64 64 62 61 58 57 57 53 49 47 45 42 42 42 43 44 50 50 50 49 49 46 47 48 48 48 47 45 41 38 37 37 40 41 37 35 36 37 40 40
62 61 62 63 62 62 61 58 57 55 52 50 49 48 47 45 45 44 44 45 49 46 44 45 46 46 47 47 45 43 41 40 40 42 41 40 38 35 34 37 35 36 36
58 57 57 57 56 56 57 57 57 54 52 52 51 49 45 47 47 46 46 48 47 48 46 45 46 45 45 44 43 37 36 37 39 37 36 36 36 36 38 35 35 37 36
57 56 55 54 55 56 56 56 57 54 53 52 52 49 44 50 50 50 51 51 49 48 48 46 45 45 40 37 36 35 36 38 38 36 36 36 36 38 37 36 38 36 35
61 60 58 56 58 58 59 58 55 55 56 54 52 49 47 49 50 51 51 51 50 49 48 46 46 44 40 35 33 37 37 37 39 39 37 37 38 39 38 37 38 34 33
61 60 60 59 59 58 56 56 58 53 54 53 51 49 49 50 50 50 49 49 49 49 48 45 44 42 38 35 34 37 39 36 36 32 32 33 35 38 40 38 35 34 34
61 61 60 58 56 55 55 56 54 53 52 52 51 50 50 51 50 50 51 49 49 48 47 45 43 38 35 34 33 27 30 31 28 29 33 31 32 35 38 32 32 35 34
52 56 56 56 55 54 53 54 54 53 52 53 52 52 52 51 49 49 50 49 48 49 47 45 43 41 36 36 31 29 28 30 29 29 27 28 31 35 38 32 33 34 33

GFSGL_sfc_dewp_036.txt.gz
Dewpoint
69 70 70 69 69 70 73 73 70 69 68 67 70 69 69 68 68 66 65 65 64 64 64 63 62 62 62 60 62 61 60 58 55 56 58 59 60 60 60 63 62 61 62
70 70 71 71 71 70 70 71 72 70 70 68 68 70 69 68 68 67 65 65 65 64 64 63 63 64 61 60 61 60 59 60 58 57 57 59 60 59 59 60 60 63 62
70 71 71 72 72 71 71 70 73 71 70 69 69 69 69 69 68 67 66 65 64 65 64 63 63 62 61 61 61 60 61 61 60 59 58 59 59 59 58 60 60 59 59
71 71 71 72 73 73 73 72 71 72 71 70 69 69 69 69 68 67 67 66 65 65 65 64 63 63 62 62 63 62 61 61 60 59 58 58 58 58 59 56 55 57 57
71 71 71 72 73 73 74 74 73 71 71 71 69 69 69 69 68 68 67 66 65 64 65 65 65 65 65 63 63 62 61 60 60 58 57 56 56 56 55 56 57 57 58
71 71 72 73 73 73 74 74 73 73 72 71 70 69 68 68 65 66 67 67 66 65 64 64 65 66 66 64 64 63 63 61 59 58 57 55 55 56 57 58 57 57 55
70 71 72 73 73 74 74 74 74 72 73 71 69 69 69 68 64 64 66 68 67 66 65 64 64 64 65 66 64 64 63 62 61 58 57 57 56 57 57 55 56 56 55
70 70 72 73 73 74 74 74 74 73 72 72 70 69 69 69 62 62 65 68 67 66 66 65 65 65 64 64 63 63 62 62 62 62 60 59 59 59 58 58 57 56 55
66 69 71 72 72 73 74 74 74 74 73 73 71 70 69 69 60 60 63 67 65 64 65 66 66 64 62 62 63 62 61 61 62 60 60 60 60 60 60 58 58 52 51
64 65 69 71 72 73 73 74 74 74 73 73 71 71 67 69 60 58 60 64 65 65 63 65 62 64 60 59 64 63 62 61 60 60 60 59 59 59 59 58 56 52 51
64 65 66 70 71 73 73 74 74 74 72 71 70 70 68 66 63 57 57 64 64 64 64 64 65 58 57 56 58 63 61 59 60 56 55 55 54 52 52 53 55 55 52
63 65 67 70 71 73 74 75 74 73 71 70 67 66 67 66 60 55 55 59 61 64 63 65 64 57 54 54 56 58 57 56 56 54 52 51 50 51 49 50 49 53 56
66 68 69 71 72 74 74 74 73 71 69 67 67 66 66 67 65 55 53 55 58 64 65 61 55 52 51 55 54 55 55 55 53 50 50 50 51 50 49 46 45 43 42
68 73 74 74 74 74 74 73 71 69 68 67 66 66 66 65 65 61 58 57 56 59 57 58 57 57 54 55 55 55 55 53 52 50 50 51 51 47 44 45 41 39 38
73 73 73 71 71 66 60 65 69 64 66 67 66 66 65 65 64 59 58 60 60 57 57 56 55 53 53 53 53 53 52 51 51 51 51 51 47 45 44 42 41 39 36
70 68 66 64 63 61 60 55 49 50 51 49 54 60 58 56 50 48 47 48 49 50 57 55 53 53 53 52 51 51 51 53 51 51 52 49 44 44 42 41 40 37 36
67 65 64 63 62 61 60 58 55 50 45 45 45 48 51 49 47 46 45 46 47 52 55 55 55 54 54 54 53 52 53 53 52 49 46 45 44 40 40 38 36 36 36
65 60 64 63 62 61 60 58 59 58 55 51 44 45 44 44 43 42 43 45 49 49 52 52 51 51 51 51 50 48 48 44 40 39 38 37 37 38 37 34 35 36 35
66 65 65 64 63 61 60 59 57 55 52 49 48 45 42 41 41 42 45 51 50 49 48 46 48 48 47 47 46 45 44 41 39 37 36 38 40 37 33 34 36 39 39
65 62 64 63 62 61 60 59 56 53 51 52 52 49 45 46 48 47 46 46 48 46 45 45 45 46 46 45 43 42 40 39 38 39 40 38 36 34 34 36 34 34 36
61 63 61 64 62 60 58 57 55 53 51 51 51 49 45 49 47 46 44 45 46 44 45 45 45 45 45 43 41 38 36 36 38 36 35 35 34 35 37 35 36 37 35
60 60 59 60 61 59 57 57 55 53 52 52 51 48 43 48 47 46 44 47 48 46 45 46 45 44 44 44 40 36 37 37 36 36 35 35 37 37 38 37 36 36 33
60 59 58 58 59 57 57 58 56 54 54 53 51 49 46 48 49 49 49 50 48 47 46 46 44 41 39 36 35 37 37 36 36 37 36 35 35 35 38 37 36 33 32
58 59 59 59 59 58 58 57 57 55 56 54 52 50 48 48 50 51 51 51 49 48 46 46 44 41 36 34 33 36 38 38 36 33 32 31 33 34 35 37 32 32 33
59 60 58 58 58 58 58 57 55 55 55 53 53 52 51 49 50 50 49 50 49 47 45 44 43 40 34 32 35 36 34 32 29 30 31 29 27 32 35 35 31 34 33
59 60 61 60 58 56 55 54 53 53 53 53 53 51 50 50 50 49 49 48 48 46 44 43 40 37 34 34 33 31 30 29 30 29 26 25 28 32 35 36 33 33 34

GFSGL_sfc_dewp_039.txt.gz
Dewpoint
67 68 68 69 70 70 70 70 69 67 67 68 69 69 69 67 66 65 64 63 63 63 63 62 62 61 61 60 61 59 58 55 53 55 57 58 59 59 60 60 63 61 60
67 68 68 68 69 70 71 71 70 68 67 67 68 68 68 67 67 65 64 64 63 62 63 63 62 62 61 61 61 59 59 59 57 56 56 58 59 59 59 59 59 61 62
67 68 68 68 68 68 69 70 72 70 69 67 67 68 68 68 67 66 65 65 64 64 63 63 63 62 61 61 60 60 60 60 59 58 58 58 59 59 58 59 59 57 58
66 67 68 69 69 68 68 68 70 72 70 69 67 67 68 68 68 67 66 65 64 64 65 63 63 62 62 62 61 61 61 61 59 59 58 58 58 58 58 57 56 56 57
67 68 67 69 70 69 69 68 68 70 71 70 69 68 69 69 68 67 67 66 65 64 64 64 64 64 64 63 62 62 62 61 61 59 58 56 56 55 55 56 56 57 57
67 68 69 69 70 71 70 70 70 69 70 71 69 69 69 69 66 65 67 66 65 65 65 65 65 66 65 64 63 63 63 61 61 59 57 57 58 56 56 56 56 55 54
68 69 69 69 70 71 71 72 72 71 70 70 70 69 69 69 63 64 66 67 67 66 65 64 64 65 65 65 63 63 63 63 62 60 59 57 58 58 58 55 55 55 54
68 69 70 70 70 71 72 72 72 72 71 71 70 69 69 69 62 62 65 68 67 67 67 65 64 64 64 64 64 63 63 62 62 61 60 60 60 60 58 57 56 56 56
67 69 70 71 71 71 72 72 72 73 72 72 71 70 69 69 61 60 63 68 67 67 67 65 65 64 62 61 62 61 61 61 62 61 61 60 60 60 60 58 58 56 52
67 68 70 71 72 72 72 72 73 73 72 73 72 70 67 70 60 58 64 68 66 65 64 64 62 64 59 59 63 62 61 61 62 62 61 59 58 58 59 59 56 52 51
65 68 69 70 72 72 72 73 73 73 73 72 72 71 70 70 62 57 60 67 66 65 64 63 64 59 56 55 59 63 62 61 60 60 57 55 54 52 51 52 54 53 51
64 65 67 69 71 72 72 73 74 73 73 72 71 70 70 68 60 56 57 61 62 63 63 63 63 55 53 53 56 58 57 58 58 55 53 52 50 50 51 49 49 52 55
62 63 65 66 70 71 72 73 74 74 73 71 70 68 67 67 65 57 54 56 58 64 64 61 56 51 50 52 55 56 56 57 54 52 51 49 50 51 49 45 45 42 40
62 62 64 65 67 71 73 74 73 73 72 70 68 67 66 66 64 60 59 58 58 60 58 58 57 57 55 56 55 56 57 55 53 51 49 49 50 49 44 44 41 39 38
67 65 68 69 69 58 53 53 65 65 69 69 67 67 66 65 65 60 58 60 61 57 57 58 56 55 54 53 53 55 53 53 52 50 49 50 49 45 44 42 40 39 36
71 70 69 63 62 60 61 61 52 52 55 52 54 59 64 56 52 51 48 48 49 50 58 57 56 53 53 52 52 51 51 53 50 50 50 50 48 44 43 40 40 36 34
65 64 63 62 63 63 64 63 59 56 53 50 48 48 51 52 47 46 46 48 47 52 56 54 54 52 52 52 52 51 51 52 51 51 50 47 45 43 39 38 35 35 34
64 58 63 63 62 62 61 61 61 61 60 57 47 51 49 47 45 45 44 48 55 52 53 54 54 54 53 52 51 51 50 49 47 44 40 39 37 37 37 33 34 35 33
65 65 63 63 62 61 61 60 59 58 56 52 52 49 45 42 42 43 45 56 54 50 49 48 49 50 50 49 47 47 44 42 40 38 36 38 39 37 33 33 35 38 37
64 60 61 62 61 61 60 59 56 56 55 57 57 53 46 47 50 50 50 50 50 49 46 47 47 47 46 45 44 43 41 39 38 37 37 38 36 34 34 34 34 34 35
64 63 61 62 61 60 60 59 57 56 56 56 54 50 47 53 51 49 47 47 47 46 45 45 45 45 45 43 42 41 38 37 36 38 37 34 34 35 36 35 35 35 35
61 63 63 62 61 59 58 57 54 54 54 53 50 47 43 50 50 47 45 46 45 45 45 45 45 45 44 43 41 37 36 36 37 36 35 35 36 37 37 36 35 34 32
59 59 59 59 60 57 58 56 54 53 52 52 51 48 47 49 48 47 45 47 47 45 45 45 45 44 44 43 40 38 38 37 36 37 36 36 35 35 36 36 35 31 32
57 58 58 57 57 58 58 58 56 53 55 53 52 50 49 49 49 48 47 49 48 46 46 45 43 40 38 36 35 36 37 37 37 36 35 33 33 34 34 35 31 31 33
56 56 58 58 58 58 57 57 57 57 56 55 52 52 52 49 49 50 50 50 49 47 45 45 44 41 37 34 33 35 35 33 34 32 30 28 28 30 34 35 32 33 33
58 59 58 58 58 58 57 57 56 56 56 55 54 53 51 50 50 50 50 50 49 47 45 44 43 41 37 34 33 35 32 31 30 30 29 26 25 32 35 35 34 32 34

GFSGL_sfc_dewp_042.txt.gz
Dewpoint
68 69 69 69 70 70 69 69 69 69 70 70 71 71 71 69 68 66 66 65 65 65 65 64 64 64 62 62 63 61 60 58 57 58 58 61 63 63 63 64 63 65 64
67 69 69 70 70 69 69 69 70 69 69 69 70 70 70 69 68 67 65 65 64 64 64 65 64 63 64 64 62 63 62 61 59 61 60 60 62 63 63 63 62 61 63
66 67 69 69 69 69 69 70 70 70 69 69 69 70 70 69 68 67 67 66 65 65 64 64 64 64 64 63 63 62 62 62 63 60 60 61 61 61 61 62 62 62 60
65 67 68 69 69 69 70 71 71 71 70 69 69 69 70 69 69 68 67 67 66 66 65 64 64 64 64 64 64 64 64 64 63 63 61 61 61 61 60 59 59 59 59
66 66 67 68 69 69 69 70 71 72 71 70 69 68 69 69 68 68 68 67 67 66 66 66 65 65 65 64 64 64 64 63 63 61 60 60 58 58 58 59 58 59 60
66 66 68 69 69 69 69 69 70 71 72 71 71 69 68 68 65 65 67 68 67 67 66 66 67 66 66 64 63 63 64 64 64 63 62 62 62 60 60 58 59 58 56
66 67 68 69 69 69 69 69 69 69 71 71 71 70 69 69 63 64 66 68 68 68 67 66 66 67 66 66 64 63 63 62 64 64 62 62 62 62 61 58 59 59 58
66 67 68 69 69 70 70 70 70 69 69 69 71 71 71 70 62 62 65 69 69 68 67 66 67 66 66 66 66 66 65 65 65 64 64 62 63 62 62 61 61 60 59
67 68 68 69 69 70 70 70 71 71 70 70 70 71 70 70 61 60 63 69 68 68 67 67 67 66 63 62 66 65 65 64 62 61 61 61 61 61 62 62 59 59 56
67 68 69 70 70 70 70 71 71 72 71 71 71 71 68 70 60 59 63 69 68 68 68 67 63 66 60 59 66 65 64 63 63 63 64 62 61 62 60 62 60 57 55
66 68 70 71 71 71 71 71 72 72 72 73 72 73 71 70 68 57 60 69 68 68 66 66 66 59 56 55 59 66 64 64 63 63 63 62 59 57 55 55 59 57 56
67 68 69 71 71 71 72 72 73 72 73 73 73 72 71 71 62 55 58 61 63 67 65 66 65 55 53 52 57 59 57 60 62 60 59 57 57 54 54 53 55 56 56
66 68 70 71 71 72 72 73 73 73 72 72 72 71 71 71 63 56 56 58 60 65 65 62 56 51 50 53 55 56 57 61 60 58 57 55 53 53 54 52 51 51 50
64 65 66 67 70 72 73 73 73 73 73 72 72 71 69 67 65 61 61 62 59 62 59 60 58 57 56 58 57 57 61 60 59 58 55 53 53 53 52 49 48 45 44
65 66 68 68 62 59 57 60 64 60 68 68 68 67 66 64 61 55 57 63 64 62 60 60 59 58 57 58 58 59 59 59 57 55 53 53 53 52 50 47 46 44 42
69 68 65 62 62 63 61 59 50 52 51 51 53 59 61 56 51 52 50 50 49 51 61 60 59 58 58 57 56 55 56 57 57 55 53 53 53 52 49 45 44 42 39
65 64 63 62 64 64 64 62 59 56 50 51 52 53 54 51 54 50 46 48 50 54 61 60 59 57 56 55 56 56 56 56 56 54 53 53 52 49 46 43 41 39 39
63 58 64 64 64 63 62 62 62 61 59 57 48 54 51 50 45 44 45 50 57 58 61 59 57 56 55 55 55 55 55 54 54 53 53 52 48 44 42 40 38 39 39
64 64 64 64 64 62 63 63 63 62 60 54 51 49 48 44 45 46 50 60 60 58 57 57 56 56 56 55 55 55 54 53 51 49 45 42 42 41 40 38 38 39 40
65 60 62 62 62 61 61 60 59 58 56 57 56 52 50 52 55 58 57 58 56 54 54 53 53 53 53 52 52 51 48 45 44 42 41 42 41 38 36 38 37 38 39
63 62 60 62 62 61 60 59 59 59 59 59 56 55 53 59 57 54 53 55 53 51 50 50 51 51 50 49 48 46 44 43 43 41 41 41 39 37 39 39 38 37 36
63 62 62 61 61 60 59 59 58 59 58 56 53 52 48 53 52 52 52 51 51 50 50 51 49 49 47 46 45 44 43 42 41 41 41 38 38 39 39 39 38 36 35
61 61 61 61 60 57 58 57 56 56 56 56 53 51 53 53 52 51 50 49 49 48 48 48 49 47 47 46 45 44 42 40 41 41 39 39 39 39 39 38 37 35 35
60 60 60 60 60 60 59 57 56 53 55 54 53 52 51 52 51 50 48 49 48 47 47 48 47 46 47 46 44 41 41 41 41 40 40 39 38 37 38 38 34 34 36
58 59 59 60 60 59 59 58 57 56 56 55 54 52 51 51 50 49 48 50 48 47 47 47 46 46 46 46 43 40 38 33 40 37 39 37 36 39 38 37 35 36 37
58 57 59 60 60 59 59 58 57 57 57 56 55 55 54 54 53 54 50 49 49 48 47 47 46 45 43 41 40 37 32 32 36 33 34 33 32 32 36 39 38 35 36

GFSGL_sfc_dewp_045.txt.gz
Dewpoint
71 72 72 72 72 73 73 73 74 74 75 74 74 74 74 74 74 74 72 71 69 69 68 67 67 68 62 63 63 62 60 59 57 59 60 63 65 65 64 65 65 65 61
70 72 72 73 73 72 73 73 74 74 75 75 74 74 74 74 74 73 72 70 69 69 68 67 66 64 67 67 63 66 63 64 59 63 62 61 65 66 66 66 63 57 60
69 70 72 72 72 72 73 73 74 74 74 74 74 74 73 73 73 73 72 71 70 69 68 68 67 67 66 64 65 63 63 64 64 60 59 61 62 62 64 65 64 63 61
67 69 70 72 72 72 73 73 74 74 74 74 74 74 74 73 73 72 72 71 70 69 69 69 68 67 67 67 66 66 66 64 64 62 60 61 62 64 63 60 59 60 60
68 69 70 72 73 73 73 73 74 74 74 74 74 73 74 73 70 73 72 71 71 70 69 69 69 68 66 67 65 67 67 65 62 61 61 59 60 61 61 60 60 60 60
69 69 70 72 73 73 73 74 74 74 74 74 74 73 73 70 66 66 71 71 71 71 70 70 70 68 66 64 64 65 67 67 66 61 59 60 64 63 64 61 60 58 57
69 70 71 72 72 73 73 73 74 74 74 74 74 73 73 73 63 64 66 72 72 72 72 71 69 68 67 67 64 63 63 64 65 68 65 65 65 65 65 61 63 60 59
70 70 71 72 72 73 73 73 73 73 73 74 74 74 73 72 63 62 65 71 72 73 72 72 71 70 69 68 68 67 66 66 66 64 67 67 68 66 65 64 64 63 62
69 70 71 71 72 73 73 72 73 73 72 73 74 74 74 73 62 61 64 70 71 73 72 72 71 71 66 63 69 68 68 67 64 62 63 62 61 62 62 62 60 59 58
69 70 71 72 72 72 73 73 73 73 72 70 72 74 71 74 62 59 63 69 71 70 72 72 64 68 62 60 67 68 67 67 67 66 65 62 63 63 61 65 61 58 56
69 70 72 72 73 73 74 74 74 73 73 74 73 73 74 73 72 58 59 71 70 70 70 70 69 60 57 56 61 69 67 67 65 66 65 64 64 63 62 62 63 57 51
70 70 72 73 71 71 74 72 74 73 71 75 75 73 73 74 64 57 57 61 67 70 69 69 69 56 54 54 58 62 59 62 65 64 63 61 61 59 59 57 59 58 55
70 71 72 73 72 74 74 74 72 73 72 72 73 73 73 72 72 57 55 57 59 69 70 66 60 52 52 53 57 57 58 67 65 63 61 60 59 57 58 58 58 58 57
71 72 72 72 73 73 72 72 72 72 73 73 74 73 73 72 69 63 60 60 60 64 62 61 58 58 57 58 58 58 66 67 63 61 60 58 56 55 54 53 51 50 48
69 70 70 70 72 70 66 67 74 76 71 73 74 72 67 62 60 58 60 64 65 60 62 62 61 61 61 61 61 61 62 62 61 60 58 55 53 53 53 52 51 50 47
70 69 67 66 67 65 63 60 51 52 52 52 52 60 61 53 49 50 50 50 52 55 62 62 61 62 61 61 60 60 60 60 60 60 57 54 53 53 52 51 50 48 45
68 66 65 66 65 64 64 63 61 57 49 49 51 51 53 54 51 51 51 49 50 56 63 62 63 61 61 61 60 59 59 60 62 59 56 54 54 54 52 51 48 45 43
67 59 67 67 67 66 66 65 63 62 60 59 52 48 49 49 49 47 46 50 57 60 64 62 61 62 61 61 59 59 59 59 58 57 56 55 55 53 51 48 45 43 39
67 67 67 67 66 63 63 62 61 62 63 60 57 53 48 42 42 43 47 61 61 61 62 62 62 62 61 59 58 57 57 56 56 56 56 55 53 50 47 44 40 40 39
64 60 62 65 65 65 65 65 63 62 60 58 58 55 52 54 56 57 61 63 61 61 62 63 61 59 58 58 58 58 57 56 56 55 53 50 47 45 42 38 36 35 36
64 64 61 64 64 63 63 62 62 61 60 59 57 55 50 58 58 60 60 61 60 61 60 58 58 57 58 57 57 55 54 52 52 49 47 46 45 40 38 36 35 34 34
63 63 63 63 62 61 61 61 61 61 60 58 56 55 48 61 61 61 61 60 59 58 57 57 55 54 53 53 52 51 50 48 48 47 46 44 42 38 37 36 35 34 34
63 63 62 62 62 58 61 61 61 61 60 58 57 58 57 58 58 56 56 56 56 54 53 53 53 51 51 50 50 50 48 46 46 45 43 41 39 38 37 36 34 34 34
63 63 63 63 62 60 60 59 59 55 59 58 58 57 56 55 54 55 55 54 52 51 51 50 48 47 49 48 48 46 44 43 43 43 43 40 38 38 37 36 34 35 34
60 62 62 61 61 60 59 58 58 59 59 59 57 56 55 55 54 53 51 51 50 50 49 48 47 49 49 48 47 45 40 35 42 38 42 42 40 41 36 33 34 34 35
55 58 59 60 61 61 60 59 58 58 58 58 58 57 57 56 54 52 50 49 49 48 47 47 48 48 48 47 46 40 32 33 39 35 40 39 37 35 33 34 36 34 35

GFSGL_sfc_dewp_048.txt.gz
Dewpoint
73 74 75 74 74 75 74 76 76 77 77 75 75 73 73 74 76 76 76 74 73 73 70 69 70 70 59 59 59 58 57 57 54 54 57 63 66 66 63 64 64 63 61
72 74 75 75 75 74 75 75 76 77 78 77 76 75 74 73 76 75 75 72 73 72 71 70 69 65 69 68 61 67 63 64 57 63 62 59 66 66 67 67 63 57 58
70 70 73 74 75 75 76 76 76 77 77 76 77 77 75 74 75 75 75 74 73 72 71 71 69 68 68 64 64 63 61 62 63 58 58 60 60 63 65 66 66 65 59
66 69 72 74 75 75 76 76 76 77 77 77 77 77 77 76 75 74 73 74 74 72 72 71 70 69 68 68 66 68 66 63 65 61 58 57 60 64 62 59 61 63 60
69 70 72 75 76 76 76 76 77 77 77 77 77 77 77 75 71 75 75 74 75 73 72 71 70 69 67 67 64 68 69 65 59 59 59 57 58 58 61 59 59 60 66
70 70 73 75 76 76 76 77 77 77 77 77 77 76 76 72 66 65 72 74 74 75 74 73 73 70 69 65 64 65 68 68 67 58 58 59 66 62 61 59 59 58 57
71 72 73 75 75 76 75 76 77 77 76 77 77 76 76 76 64 63 67 73 73 75 75 75 71 68 70 70 65 64 64 64 65 70 67 67 66 66 66 66 66 64 60
72 72 74 75 75 76 76 76 77 76 76 77 77 77 76 75 64 62 65 73 74 75 75 75 75 74 73 72 70 68 67 67 67 65 67 68 69 69 69 68 67 68 66
71 72 73 74 75 75 76 76 76 75 75 75 75 77 77 76 62 60 64 71 72 74 75 76 75 75 69 64 71 69 67 67 64 63 63 65 64 64 64 64 64 64 60
71 72 73 74 75 75 76 76 76 75 73 71 72 75 71 76 66 59 62 69 71 70 73 75 66 72 64 61 70 70 68 68 68 67 66 64 64 64 62 66 68 64 58
68 69 73 75 76 76 77 76 76 75 74 75 74 75 75 75 75 60 57 69 70 72 69 70 72 62 58 58 63 70 68 69 67 68 65 65 65 65 63 64 65 60 55
72 70 73 75 72 70 76 75 75 76 75 75 75 72 72 73 66 63 56 61 67 71 70 70 71 57 54 56 59 62 61 64 67 66 65 64 63 63 63 63 64 61 56
72 73 74 75 73 74 75 75 72 74 71 72 70 70 70 70 67 56 55 57 60 68 72 68 56 53 55 57 56 57 60 68 67 67 64 63 63 62 64 62 61 62 61
72 72 72 73 74 73 71 72 71 70 70 69 68 67 64 60 70 73 68 62 59 63 60 60 61 62 61 60 60 61 66 68 67 67 63 63 63 59 57 55 53 53 50
70 71 72 71 73 72 70 68 70 73 68 70 70 69 68 70 74 64 64 63 64 63 63 63 63 64 63 63 63 63 65 66 66 66 62 61 58 56 53 53 52 50 48
71 70 69 68 71 71 70 67 51 48 47 48 53 65 70 56 50 49 49 51 52 53 64 63 63 65 63 62 62 63 65 64 65 62 60 58 55 53 52 53 51 49 48
70 70 68 67 68 69 70 70 68 58 49 46 45 47 50 50 47 47 48 49 51 54 65 65 62 61 62 64 63 63 62 64 66 60 59 57 54 53 52 52 51 49 47
68 60 68 67 68 68 68 68 66 65 63 62 50 49 45 45 44 44 46 52 59 58 60 61 65 64 63 63 62 63 62 64 62 60 58 55 54 53 54 51 50 48 44
68 68 68 68 68 66 67 66 64 63 63 61 60 54 49 42 42 44 49 64 63 64 65 64 63 62 63 63 64 63 63 61 60 58 56 54 54 53 52 49 46 43 41
66 62 64 66 65 64 63 63 64 63 63 61 61 62 57 56 57 57 61 63 62 63 65 64 64 64 63 64 63 62 60 59 58 56 55 55 53 51 47 46 42 37 36
65 65 63 66 65 64 64 63 63 63 63 61 60 58 52 61 60 60 62 63 62 63 63 63 63 64 63 61 59 57 57 56 56 55 54 53 51 46 45 40 35 34 32
63 63 63 62 61 60 60 60 61 60 60 59 59 55 47 61 62 62 62 61 62 62 63 63 61 60 59 58 57 56 55 54 54 52 51 48 47 44 39 35 34 32 32
60 60 60 61 61 59 61 61 61 61 60 60 60 59 58 61 60 61 62 62 61 60 59 58 57 55 55 55 54 54 52 51 50 50 48 47 44 39 37 36 33 32 32
59 59 60 61 60 59 57 58 59 56 59 59 59 59 59 60 59 58 57 57 56 55 54 53 52 50 52 51 50 50 49 49 49 48 47 43 39 37 37 35 33 33 34
58 61 59 58 58 57 57 57 59 59 59 60 59 57 56 55 55 55 55 54 52 52 50 48 47 49 49 48 47 45 42 36 44 40 43 42 40 42 36 34 33 33 34
56 57 59 58 58 59 59 59 59 59 59 60 58 58 55 54 52 52 51 50 49 48 48 47 47 47 47 45 44 40 33 34 40 35 40 39 39 38 36 35 34 32 34

GFSGL_sfc_dewp_051.txt.gz
Dewpoint
76 76 77 77 77 78 75 76 76 78 78 76 77 76 76 76 77 78 78 76 76 76 74 74 73 74 60 59 60 60 58 58 56 56 58 67 70 68 65 65 64 66 62
74 76 76 77 77 76 77 76 77 77 79 79 77 77 76 76 77 78 76 73 75 75 74 74 72 68 73 72 61 70 64 67 59 69 67 63 68 70 71 70 64 58 62
72 73 75 76 76 76 77 78 77 78 78 78 78 78 77 76 76 77 77 76 75 75 75 74 72 72 73 65 67 64 62 64 64 61 61 61 65 65 67 70 70 69 63
67 70 74 76 76 76 77 78 78 78 78 78 78 78 78 77 76 76 77 77 76 74 75 75 73 72 72 72 70 70 70 64 65 61 61 61 63 68 65 62 64 64 63
69 70 73 76 77 77 77 77 78 78 78 78 78 78 78 77 74 76 75 76 77 76 75 75 74 72 69 70 67 69 69 67 61 63 63 61 60 61 63 63 62 61 67
70 70 74 76 77 78 78 78 78 78 78 78 78 78 78 74 67 66 73 74 76 76 76 76 75 71 70 66 65 65 68 69 67 62 62 63 66 66 63 60 61 61 58
70 73 74 76 76 78 78 78 78 78 78 78 78 78 78 78 65 64 67 74 75 76 76 76 75 70 71 72 66 64 64 65 66 69 67 67 70 69 69 70 68 65 62
72 72 74 75 76 77 78 78 78 78 78 78 78 78 78 77 65 62 65 73 74 75 76 75 76 74 74 72 72 69 68 68 68 66 67 69 70 72 73 71 72 70 67
72 73 73 75 76 77 77 78 78 78 78 78 78 78 78 78 64 62 65 72 72 74 75 75 74 75 70 65 73 72 70 68 66 64 64 65 65 65 69 72 67 63 62
72 73 74 75 76 76 77 78 78 78 77 74 76 78 74 78 64 60 64 72 72 71 73 75 67 72 65 61 71 72 71 69 68 66 66 64 65 67 64 70 70 63 61
70 72 75 76 77 77 78 78 78 78 76 77 76 77 78 76 74 60 59 72 71 71 70 71 71 62 60 58 62 72 70 68 67 67 67 67 67 68 68 66 68 69 61
73 73 75 76 74 73 78 78 78 78 78 77 77 75 74 77 67 63 57 60 66 72 72 70 70 59 58 56 60 63 61 65 68 69 67 66 66 67 67 66 67 67 65
75 75 76 77 76 76 78 78 75 77 73 74 71 72 70 71 74 62 58 57 60 72 71 67 60 54 54 56 59 60 61 69 70 67 66 65 67 67 68 68 68 68 65
76 76 76 76 77 77 73 73 72 71 71 70 69 69 69 69 70 70 66 64 60 66 63 69 63 60 60 64 61 62 69 68 67 68 67 68 68 67 65 64 60 60 58
73 72 75 72 75 74 72 65 70 72 65 69 69 69 68 68 67 61 67 70 71 67 66 65 63 64 63 63 64 65 68 68 66 68 67 67 65 66 63 60 58 56 52
72 70 68 67 71 70 70 66 49 49 47 46 48 62 66 55 52 54 52 51 52 52 64 63 62 63 63 63 64 64 67 65 66 67 65 64 65 61 59 57 56 54 51
72 71 67 66 69 69 71 70 69 58 48 45 45 45 46 46 45 47 47 47 48 56 64 63 63 63 63 64 63 63 64 64 67 66 64 64 63 59 55 56 54 52 49
71 61 69 69 69 69 69 69 69 70 68 63 51 51 44 44 44 44 46 52 60 61 63 63 62 63 65 64 63 64 65 66 66 64 65 61 58 57 55 54 52 51 49
69 68 68 68 68 66 68 67 66 66 65 63 60 55 50 43 44 46 49 63 62 62 66 64 64 64 64 63 63 63 63 63 64 65 61 58 57 55 55 52 50 46 47
67 62 65 67 67 67 66 64 65 64 63 63 61 62 60 59 62 61 63 65 64 63 64 63 63 64 63 63 63 64 63 65 65 63 60 58 56 53 52 51 48 46 44
66 66 63 66 66 65 65 65 64 63 63 62 61 59 52 61 61 61 62 62 61 63 63 64 65 63 63 63 64 65 64 62 62 60 58 57 56 51 51 49 46 43 38
61 62 63 62 63 63 63 62 61 60 59 59 59 57 47 61 61 60 62 62 62 64 63 64 63 64 63 63 62 62 60 59 59 58 57 54 53 51 47 45 42 37 34
58 58 60 59 60 59 60 60 60 60 60 60 59 59 60 60 60 61 61 61 61 62 63 64 65 64 63 61 61 61 59 57 57 57 53 52 50 48 45 42 36 35 33
59 60 60 59 59 58 59 59 59 57 59 60 60 60 60 61 61 62 62 62 63 62 63 60 58 57 59 58 56 55 55 55 54 52 53 50 47 45 42 39 36 35 34
58 59 58 58 58 58 58 59 58 59 60 60 60 59 61 62 60 58 59 57 56 56 55 54 53 53 53 53 52 51 42 36 50 45 50 50 48 47 39 37 36 34 35
59 58 58 58 59 59 58 58 58 58 58 58 58 58 57 56 57 57 54 53 52 51 50 49 49 50 49 48 47 40 33 35 42 37 46 45 42 40 38 38 37 32 35

GFSGL_sfc_dewp_054.txt.gz
Dewpoint
74 75 76 76 76 75 73 74 73 75 75 76 78 76 76 76 76 77 76 76 76 76 74 75 73 73 72 69 68 69 67 67 64 65 68 71 69 68 67 69 68 68 65
74 75 75 76 76 76 75 74 75 75 77 76 77 77 76 75 76 76 75 74 75 75 74 74 74 71 73 73 71 68 67 68 67 66 69 69 69 69 70 70 67 62 65
73 74 75 75 76 76 76 75 75 76 75 77 77 76 75 75 75 76 76 76 74 75 75 74 72 73 72 69 69 69 68 70 71 67 67 69 69 70 69 69 70 69 67
69 73 74 75 76 76 76 76 76 76 76 76 76 77 76 76 75 75 75 76 76 74 75 75 74 72 71 72 69 68 69 68 67 67 66 65 68 69 68 67 67 68 67
69 71 73 75 76 76 76 76 76 76 76 77 76 76 76 75 74 75 74 75 76 75 74 75 74 73 70 70 70 69 67 67 66 64 64 65 65 67 65 67 65 67 67
69 69 73 74 75 76 76 76 76 76 76 76 77 77 76 75 69 68 73 74 75 75 75 74 74 72 71 67 67 67 68 66 66 64 64 63 64 65 66 65 65 65 63
70 72 73 74 75 76 76 76 76 76 76 76 77 77 76 76 67 65 68 74 74 74 75 75 74 73 71 71 66 65 65 65 65 67 65 64 65 66 67 67 66 65 65
72 73 74 74 75 76 76 77 77 76 76 77 76 77 77 76 67 64 65 73 74 74 74 75 75 74 74 72 71 69 68 67 66 66 68 67 68 69 69 68 67 67 68
72 73 73 74 75 75 76 76 77 77 77 76 77 77 77 76 65 64 64 71 72 73 74 74 75 74 70 66 72 71 69 68 65 64 65 64 66 66 67 68 67 65 64
71 72 74 73 75 75 76 77 77 77 76 76 76 77 74 77 67 62 65 73 72 71 73 74 67 72 66 62 71 71 70 70 69 67 65 66 66 66 65 68 66 64 64
72 73 74 74 75 76 77 77 77 77 77 77 76 77 77 76 76 60 59 74 73 72 72 71 72 63 60 58 62 73 70 72 68 67 67 67 66 66 66 67 67 66 64
75 73 74 76 73 74 77 77 78 77 77 76 76 76 76 77 68 62 58 60 68 73 73 73 72 61 57 58 59 65 63 65 68 66 66 65 65 65 67 67 67 68 67
76 76 75 76 76 74 76 77 76 77 76 76 74 75 74 74 76 62 58 58 59 67 72 69 60 57 52 56 57 59 60 69 67 66 66 66 67 67 67 66 67 66 65
78 77 77 76 76 76 75 76 76 75 75 74 74 73 73 74 73 75 70 64 60 64 66 69 63 61 59 63 61 61 70 70 68 67 67 67 67 67 66 66 65 65 62
77 76 76 75 76 76 70 64 73 72 66 74 73 73 72 72 71 65 69 71 71 68 69 73 68 67 67 66 64 65 67 68 67 66 66 66 67 66 65 65 64 62 58
75 74 73 72 74 74 67 65 49 48 46 46 50 67 67 55 53 51 51 56 52 55 69 67 65 65 64 63 64 64 65 65 66 65 66 66 66 64 64 64 62 58 56
75 73 71 69 71 72 71 68 64 55 47 45 45 49 51 47 46 45 45 46 48 59 66 64 63 62 63 63 63 63 64 65 66 66 65 64 64 64 62 62 58 56 55
75 62 71 70 70 72 72 72 69 68 67 61 50 50 44 44 45 45 47 54 63 63 64 64 64 63 63 63 63 62 63 64 65 64 64 64 64 63 61 57 55 56 55
72 71 73 72 75 71 74 71 70 71 66 62 62 54 50 44 45 47 48 64 63 63 65 64 65 66 65 66 65 65 65 64 64 64 64 64 64 61 56 56 55 53 54
68 64 67 70 70 69 68 67 67 67 66 64 63 61 61 60 63 63 65 64 63 64 65 64 64 64 64 64 64 65 64 64 64 64 64 63 60 56 55 55 52 50 53
67 67 64 67 66 66 66 65 65 65 64 63 64 58 49 63 62 62 63 64 63 64 64 65 65 64 65 65 65 64 63 63 63 64 63 59 56 56 56 55 53 50 48
66 65 65 65 65 65 65 65 64 62 61 60 60 58 49 61 61 60 61 62 62 65 65 66 64 64 64 63 64 65 64 63 63 62 59 58 59 58 57 53 53 48 44
62 61 62 62 62 60 61 61 61 61 60 60 59 59 60 62 61 61 61 62 65 64 66 66 65 64 64 65 64 64 63 62 62 62 60 59 57 57 55 53 49 47 44
59 58 59 60 61 60 60 59 59 57 60 60 60 60 60 61 62 62 63 63 64 63 64 65 64 63 64 64 64 62 62 62 61 61 61 58 56 52 53 51 46 45 44
59 59 59 58 59 60 60 60 59 60 60 59 58 58 62 61 61 62 64 64 63 63 64 63 61 62 62 62 60 54 41 40 57 51 59 58 56 55 52 47 46 44 44
55 57 57 57 56 57 58 58 57 55 55 55 55 56 58 58 56 58 59 60 58 56 57 57 56 56 57 56 48 37 33 33 42 38 56 56 55 53 49 49 47 43 43

GFSGL_sfc_dewp_057.txt.gz
Dewpoint
71 71 72 73 73 70 72 71 69 70 70 75 75 74 73 73 74 74 72 73 74 73 72 72 71 70 67 66 65 63 62 61 58 59 61 63 61 65 64 62 64 65 62
71 72 71 72 74 73 70 71 71 70 72 71 75 75 74 73 73 74 74 73 73 73 73 71 72 71 69 68 68 62 62 63 59 57 64 66 62 64 62 64 65 64 65
70 71 73 73 73 74 73 71 71 71 71 73 71 74 74 73 74 73 74 74 73 73 73 73 70 71 69 68 68 66 64 62 64 61 61 66 66 66 66 66 66 65 65
69 71 72 73 73 73 74 74 71 72 72 73 73 72 74 73 73 73 74 74 73 73 74 73 72 71 70 69 68 66 64 64 64 65 62 63 65 66 64 63 65 67 66
69 70 72 73 73 73 73 74 74 72 73 72 72 74 74 74 73 73 73 73 74 74 73 74 74 72 70 69 69 67 64 63 65 61 62 62 62 65 64 65 62 63 65
63 70 71 73 73 74 74 74 74 74 72 73 74 72 74 74 69 68 72 73 73 73 74 73 73 72 71 67 67 67 66 62 59 64 61 61 61 62 64 62 63 63 63
65 66 70 72 73 73 74 74 74 74 74 73 73 74 74 74 67 66 68 72 72 73 73 73 73 73 71 72 67 66 66 65 63 60 62 62 61 62 63 65 63 64 63
65 67 68 71 72 73 73 74 74 74 74 74 74 74 74 74 67 65 66 72 72 72 73 74 73 73 72 72 72 69 69 68 66 64 62 63 63 66 66 67 66 65 65
68 68 69 71 72 73 73 73 74 73 74 73 74 74 74 75 65 64 65 71 72 72 72 72 73 73 70 65 72 71 70 69 66 63 64 62 64 65 67 67 66 64 63
66 71 72 71 72 72 73 73 74 74 74 74 74 74 72 74 66 62 64 72 71 71 71 71 66 70 65 62 71 72 70 70 69 65 66 64 64 65 64 66 65 64 64
70 71 72 73 73 73 73 74 74 74 75 74 74 74 75 74 74 62 60 73 73 72 71 71 70 62 60 59 62 73 71 71 69 68 66 66 67 66 66 66 65 65 64
71 71 72 73 73 74 74 74 75 75 75 75 74 74 75 75 67 63 59 61 69 73 73 72 71 61 57 57 60 64 63 64 72 70 67 66 66 66 67 67 67 68 67
73 72 72 73 73 70 74 74 74 75 75 75 74 74 74 74 75 62 57 58 60 70 74 70 65 59 57 55 56 57 58 68 71 70 68 67 67 68 67 66 67 67 66
70 74 74 73 74 72 75 74 74 75 75 74 74 74 73 74 74 74 68 63 59 62 65 68 64 62 59 62 60 59 63 67 69 70 68 68 67 66 66 66 65 64 61
69 75 75 74 73 74 62 60 71 69 68 74 74 74 73 72 72 66 69 68 69 66 67 69 66 66 66 66 65 63 64 67 69 69 67 66 66 65 65 66 65 62 58
70 72 74 74 74 70 62 59 48 47 45 45 55 68 62 56 49 49 51 54 55 54 67 68 67 66 65 65 64 64 64 65 65 64 65 65 65 65 64 64 64 61 57
74 71 73 71 73 69 66 65 62 55 47 45 44 46 54 50 46 47 48 48 51 58 65 64 64 63 63 63 63 63 63 65 66 65 65 64 64 64 62 62 61 59 56
73 67 72 71 71 71 68 66 64 64 62 59 50 48 45 46 47 47 48 56 63 62 64 63 62 61 62 62 62 62 62 63 64 63 64 64 64 63 62 61 59 57 54
73 73 71 70 70 71 70 67 66 66 61 58 57 53 47 45 46 47 49 62 61 61 61 61 61 61 61 61 61 60 61 61 61 62 63 63 62 62 60 59 56 53 52
69 64 67 71 70 71 71 70 66 63 62 60 60 59 59 55 60 62 61 61 62 62 62 62 62 61 61 62 63 61 62 62 62 61 61 62 62 61 59 56 54 53 52
68 67 64 67 67 66 67 66 66 66 65 62 59 56 53 62 60 61 61 61 61 61 62 62 62 62 62 61 61 63 62 61 63 61 61 61 61 56 55 55 52 51 50
68 67 66 66 67 66 66 66 65 62 61 60 59 56 48 61 61 61 61 61 62 62 64 64 62 63 62 62 62 61 61 61 62 61 61 60 57 56 55 54 50 48 46
66 66 65 64 63 61 61 61 61 59 59 59 59 59 60 61 60 60 60 61 63 63 64 64 63 62 62 62 63 63 62 61 62 62 59 58 57 56 55 53 50 46 44
60 61 60 60 60 60 60 60 60 57 60 59 60 60 60 61 61 61 62 63 63 63 63 64 63 62 62 62 62 63 63 62 61 61 59 58 57 53 52 49 47 45 42
59 58 59 59 59 58 57 56 56 56 55 55 56 57 57 58 59 61 62 63 63 63 63 63 64 63 63 60 50 46 39 38 57 54 59 57 55 53 50 46 43 42 41
57 56 56 56 56 56 54 53 52 52 53 53 53 53 54 53 53 53 52 51 48 47 47 48 52 51 48 44 41 36 32 33 39 41 54 53 53 51 48 44 42 40 40

GFSGL_sfc_dewp_060.txt.gz
Dewpoint
67 69 69 69 67 69 71 68 67 68 70 70 71 71 71 73 73 72 71 73 72 72 72 71 70 69 69 66 64 63 60 59 56 56 61 62 63 64 63 64 61 59 59
68 68 69 70 70 68 68 72 69 68 68 68 74 72 72 72 74 73 71 72 73 72 72 72 71 70 69 68 65 64 62 61 58 56 57 64 61 63 63 64 60 59 58
68 68 69 70 71 71 70 69 72 70 68 69 72 74 73 73 73 73 73 72 72 73 73 72 71 71 70 69 67 66 65 62 62 59 57 63 64 64 63 63 63 62 63
69 70 70 70 71 73 73 71 69 71 70 69 70 72 74 73 73 72 72 73 73 72 72 72 72 71 70 70 68 67 66 64 63 63 61 62 64 64 63 61 62 65 63
68 69 70 71 70 72 73 73 72 70 70 70 70 71 73 73 73 72 72 71 72 72 72 73 73 72 70 69 69 68 67 64 63 62 62 62 62 64 62 62 60 61 64
67 68 69 70 72 72 72 73 74 72 71 71 71 71 73 73 68 68 71 72 72 71 71 72 72 71 71 68 67 67 68 66 64 61 61 60 61 61 64 62 61 60 61
66 67 69 70 71 73 73 73 73 74 73 71 72 71 71 73 66 66 68 71 71 72 72 72 72 72 71 73 68 66 66 65 66 64 59 60 60 60 60 63 62 63 64
63 68 69 70 71 72 73 73 73 73 74 73 71 72 73 72 65 64 66 71 72 71 72 72 72 72 72 72 73 72 70 69 67 66 65 63 62 62 62 64 65 65 65
62 63 68 70 71 72 73 73 73 73 73 73 74 73 72 72 64 63 64 71 72 72 72 72 72 73 69 66 72 72 72 71 68 64 64 64 62 61 65 67 65 64 62
62 64 66 68 71 72 72 73 73 73 73 73 73 74 71 74 65 62 64 72 72 72 72 72 66 70 65 63 71 72 71 72 71 71 67 65 63 64 63 67 67 65 63
66 68 68 67 68 71 72 72 72 73 73 73 73 73 74 73 73 61 60 73 73 73 72 72 72 63 60 59 61 73 72 72 72 71 71 69 69 67 67 68 68 67 64
70 70 71 71 70 71 71 72 73 72 73 73 73 73 74 74 66 61 59 61 69 73 73 73 72 61 57 57 59 63 62 62 72 73 71 70 68 67 67 67 67 67 67
68 70 71 71 72 72 72 72 73 73 73 73 73 73 73 74 75 61 58 59 60 70 74 71 64 59 56 57 56 57 59 66 68 69 71 71 70 69 68 68 67 66 67
67 69 71 71 71 71 73 73 73 73 73 73 73 73 74 74 74 74 67 63 60 64 66 70 63 63 59 63 63 60 62 64 66 68 69 71 70 68 67 66 65 66 63
71 69 70 72 70 71 68 67 73 73 70 73 73 74 74 74 73 69 69 70 69 67 68 68 67 67 67 67 66 65 65 64 66 67 67 66 65 65 65 65 64 63 60
71 71 71 72 71 69 63 58 48 47 46 47 52 66 69 56 55 54 51 53 54 53 67 68 69 68 67 66 65 64 64 64 65 65 65 65 64 64 63 64 63 61 59
68 70 71 69 72 68 65 65 63 55 46 44 44 51 54 54 46 46 46 46 48 57 67 67 66 65 64 63 64 63 63 64 64 64 64 64 64 63 63 62 61 60 58
68 63 69 71 71 70 68 67 66 64 64 61 51 47 44 45 45 46 48 56 65 62 63 64 63 62 62 61 61 63 62 61 61 64 63 63 63 63 62 61 60 58 55
69 68 69 72 71 70 70 67 66 64 61 59 58 53 47 45 46 49 50 63 62 62 61 61 61 60 59 59 59 59 59 59 60 62 63 63 63 62 61 61 58 53 53
68 65 64 69 71 71 70 67 66 62 60 59 60 59 59 59 62 61 61 61 61 60 60 60 60 60 60 60 62 60 60 61 61 60 62 63 62 61 59 58 57 54 53
68 68 65 66 67 71 70 68 65 63 61 61 60 60 53 61 62 61 62 61 60 60 60 60 60 60 60 60 61 61 61 62 62 61 62 60 60 58 58 56 54 53 51
68 68 66 66 67 68 67 66 65 63 62 60 59 55 48 61 62 61 61 60 61 61 61 61 61 61 61 61 61 60 59 59 60 59 59 59 59 57 55 54 53 51 48
68 67 65 64 64 63 63 63 62 61 60 60 59 59 60 60 60 60 60 61 61 61 62 62 61 61 61 61 61 61 60 60 61 61 60 59 57 56 55 53 51 49 46
64 64 62 62 61 60 59 58 57 55 58 59 59 59 60 59 59 59 60 61 62 62 63 62 62 62 61 61 61 62 62 62 61 61 60 59 58 55 55 53 51 48 46
62 62 61 59 59 58 57 56 56 55 55 55 55 55 55 54 53 52 51 50 51 51 49 53 57 62 60 57 55 54 46 41 57 54 59 59 57 56 53 52 50 47 44
58 57 57 56 54 53 53 53 52 52 51 50 50 50 49 48 47 46 46 44 44 43 42 39 37 37 39 37 35 34 31 31 41 40 57 57 57 55 51 48 47 45 44

GFSGL_sfc_dewp_063.txt.gz
Dewpoint
67 67 67 68 68 68 67 67 67 67 66 67 71 71 71 73 72 71 71 72 71 71 71 70 69 68 68 67 64 63 60 58 55 56 59 61 62 63 63 64 63 61 59
66 67 67 67 68 69 70 67 67 67 68 69 69 71 71 71 73 72 71 71 71 71 71 71 71 70 68 67 66 64 62 61 58 57 57 60 61 62 63 63 64 61 59
64 66 67 67 67 67 68 70 70 67 66 67 70 71 71 71 72 73 71 71 71 71 71 71 71 70 70 69 67 66 64 62 61 59 59 59 62 62 62 63 62 62 60
64 65 66 68 68 69 68 67 69 71 69 68 67 69 72 72 72 72 73 72 71 71 72 72 72 71 71 70 70 68 67 64 62 61 61 60 61 63 63 61 61 62 61
65 66 66 67 69 69 70 70 68 69 70 70 69 68 71 72 72 72 72 72 72 72 72 72 72 72 70 70 70 70 68 66 66 64 63 61 61 62 62 62 60 59 61
66 66 67 68 68 70 71 71 71 69 69 70 70 69 69 70 67 68 71 71 71 71 71 72 72 71 70 68 67 68 69 68 67 66 65 64 63 61 61 61 62 61 60
66 67 68 69 69 69 71 72 73 71 70 69 69 70 69 70 65 65 68 71 70 71 70 70 70 71 70 72 68 66 66 65 67 69 67 65 65 63 61 62 64 63 63
65 67 68 69 70 71 70 71 71 73 73 71 70 70 70 70 65 64 66 71 71 71 71 71 71 71 71 71 71 72 70 70 69 68 69 69 69 68 66 65 65 65 66
64 66 67 69 69 70 71 71 71 71 73 73 72 71 71 71 63 62 64 70 71 71 71 71 71 71 68 65 71 71 72 72 69 65 65 65 64 64 66 66 64 64 63
63 66 67 68 69 70 70 71 72 72 72 73 73 73 69 71 64 61 63 70 71 71 72 72 66 69 64 63 70 71 71 72 72 72 70 67 65 67 65 67 67 65 64
62 63 65 69 69 70 71 71 72 72 72 73 73 73 73 72 72 60 60 71 72 72 72 72 72 63 60 60 61 72 72 72 72 72 73 73 71 70 70 69 67 67 66
66 65 65 66 68 70 71 72 72 72 72 72 72 73 73 73 65 61 59 60 68 73 73 73 73 62 58 57 59 62 62 62 70 71 72 72 71 70 70 69 68 68 68
68 69 69 68 67 67 70 70 71 72 71 72 72 72 72 73 73 60 58 58 60 69 73 71 64 58 55 57 56 58 59 66 67 68 68 69 70 72 70 68 67 66 66
69 68 70 70 70 71 71 70 71 71 71 71 72 72 73 73 74 73 67 64 60 64 65 69 66 64 61 65 63 60 64 65 66 66 67 68 69 68 66 67 65 64 62
69 69 69 70 69 70 70 68 71 71 69 72 72 73 73 73 73 68 69 72 71 68 68 70 67 68 68 67 67 66 66 65 65 65 66 66 66 64 64 64 64 62 61
67 67 68 68 70 70 67 62 48 48 48 47 50 63 72 62 59 55 54 54 55 53 66 69 70 69 69 68 66 66 65 64 64 65 65 64 63 63 62 62 61 61 61
65 66 67 66 68 69 66 65 65 55 46 44 44 46 47 58 51 50 49 48 47 55 69 69 70 68 66 66 65 63 63 62 64 64 64 64 63 63 62 62 61 60 59
65 60 66 67 68 69 68 67 66 65 65 64 50 47 45 47 46 46 45 52 59 60 66 67 66 66 64 63 62 62 61 63 61 63 63 64 63 63 62 61 60 58 56
65 65 66 67 68 68 70 68 66 65 65 62 58 53 46 43 45 47 49 67 66 65 63 63 62 62 61 60 60 59 59 59 59 60 62 63 63 62 61 61 59 53 53
65 62 62 65 66 69 70 68 66 64 63 62 62 61 59 59 63 62 62 63 64 64 62 61 60 59 59 59 59 58 58 59 61 59 62 63 63 62 61 60 57 55 53
65 65 64 65 65 67 69 68 67 64 63 62 61 60 53 62 61 62 62 62 62 62 61 60 60 60 59 59 62 61 61 61 61 59 59 62 61 61 60 59 57 54 52
65 66 66 66 65 66 69 67 65 64 62 61 60 57 48 62 62 62 62 62 62 62 62 60 60 59 59 59 59 59 59 60 61 61 58 59 60 58 57 55 55 53 50
65 66 66 65 64 61 64 64 63 62 61 60 60 59 60 61 61 61 61 61 61 60 60 61 60 60 60 60 60 60 59 59 59 59 59 59 58 57 55 54 53 51 48
64 66 63 62 61 61 61 60 59 56 60 60 60 61 60 59 59 58 58 59 60 60 59 60 60 60 60 60 60 60 60 60 60 60 60 59 58 54 55 53 52 50 49
66 63 60 58 58 57 57 57 57 57 56 55 54 54 53 51 49 49 48 48 46 45 42 41 42 49 48 46 47 50 41 37 54 53 59 59 58 56 55 54 53 50 48
58 57 57 57 56 55 54 52 51 50 50 50 49 49 48 46 46 45 44 43 42 41 39 38 37 36 36 35 34 32 31 32 47 45 58 59 58 57 55 54 53 51 49

GFSGL_sfc_dewp_066.txt.gz
Dewpoint
67 67 68 68 68 68 68 68 68 68 68 69 71 71 72 73 73 73 73 73 72 72 72 72 72 71 70 70 68 66 64 61 60 63 61 64 66 67 67 68 67 66 65
67 67 68 68 69 68 68 68 68 68 68 68 69 71 72 72 73 73 72 72 72 72 72 72 72 71 71 71 69 69 67 65 63 63 65 63 66 67 67 67 66 64 64
66 67 68 68 68 68 68 69 69 69 69 69 69 69 70 71 72 73 73 73 72 72 73 72 72 72 72 72 71 70 68 67 65 63 63 64 64 65 65 66 66 67 66
65 66 67 68 68 68 69 70 69 69 68 69 70 70 71 71 72 72 73 73 72 72 72 73 72 72 72 72 72 72 71 69 67 65 65 65 65 66 65 64 64 65 64
64 65 67 68 68 69 69 69 71 71 69 69 69 69 69 70 70 72 73 73 73 72 73 73 73 73 71 71 72 72 72 70 69 67 67 67 66 66 65 67 64 64 65
65 65 66 68 69 69 69 69 69 69 71 71 70 70 69 68 66 66 70 72 73 73 73 73 73 71 71 68 67 68 70 71 70 69 68 68 68 69 68 66 65 63 63
66 66 67 68 68 69 70 70 70 69 69 70 70 70 70 70 64 64 67 71 72 72 73 73 72 72 71 73 69 66 66 66 67 72 71 71 70 71 71 69 67 65 64
66 67 67 68 68 69 70 71 71 71 70 69 70 70 71 70 63 63 65 71 72 72 72 72 72 72 72 72 73 73 72 72 70 69 71 72 73 73 73 71 69 68 67
66 67 68 69 69 69 69 70 71 72 72 72 71 70 70 71 62 62 64 69 70 72 72 72 73 73 68 65 72 72 72 73 69 65 66 66 65 64 66 70 68 68 66
66 67 69 69 70 70 70 70 71 72 72 73 73 73 69 71 64 60 63 70 71 70 72 73 66 70 65 62 71 72 72 72 73 74 71 68 66 68 65 68 70 68 67
65 67 69 69 70 70 71 72 72 72 72 72 73 74 74 72 72 60 59 70 71 71 71 72 73 63 60 59 61 73 72 72 72 73 74 74 73 72 72 73 72 69 67
66 67 68 69 69 69 71 71 72 72 72 72 73 73 74 75 65 61 58 60 68 72 72 73 73 61 58 58 59 62 62 63 72 72 72 72 72 72 73 73 72 70 69
66 66 67 68 70 70 71 71 71 73 72 72 72 72 73 74 74 60 57 58 59 69 73 70 65 58 57 58 57 59 58 67 68 69 69 70 71 72 73 72 69 67 66
69 70 70 70 69 70 71 71 72 72 72 72 72 72 73 73 74 75 69 65 60 62 64 69 66 65 63 66 66 61 64 67 68 69 69 70 70 71 69 69 65 64 63
69 70 71 71 71 71 71 70 71 73 69 72 72 72 73 73 73 68 69 73 72 68 68 71 68 69 70 69 69 68 66 66 67 67 67 68 68 67 66 66 64 63 62
67 67 68 70 71 71 70 67 49 50 48 48 51 62 73 63 59 54 53 54 55 53 66 71 70 70 70 70 69 68 67 66 67 67 67 67 66 66 64 64 64 63 62
65 66 67 66 69 70 70 68 67 59 46 46 47 47 47 56 52 52 51 47 48 54 70 70 71 71 71 70 69 67 65 66 67 67 67 67 66 65 63 63 63 62 60
64 55 65 67 68 69 70 69 69 68 66 67 48 49 48 46 46 46 46 51 62 59 69 71 71 71 69 68 67 66 66 66 66 66 66 65 64 64 64 62 62 60 58
63 64 66 67 68 66 69 69 69 68 68 67 62 54 47 43 44 43 45 72 71 68 68 68 69 68 67 66 66 66 65 64 65 65 64 65 64 64 63 62 60 55 55
62 59 60 66 67 67 68 68 68 68 68 66 64 66 59 57 64 64 64 66 68 68 66 66 65 66 66 65 65 64 64 62 63 64 64 64 64 63 62 61 59 56 57
60 62 62 65 66 67 68 68 68 67 67 66 66 62 54 65 66 66 66 65 65 66 65 64 62 62 63 63 63 63 62 62 63 62 63 63 63 62 62 61 59 58 57
57 60 61 63 66 67 68 68 68 67 67 65 63 59 49 64 64 63 64 64 63 64 63 63 62 62 63 63 64 63 62 62 62 62 63 62 62 61 61 59 58 58 56
56 58 60 61 64 63 66 67 67 66 65 63 62 60 61 63 63 62 62 63 63 63 63 63 62 62 63 63 64 64 63 62 62 62 62 61 61 60 60 59 58 57 56
55 58 60 63 63 64 65 64 63 58 62 62 61 61 62 62 62 61 60 61 60 58 58 60 62 62 63 63 63 63 63 63 62 63 63 62 62 58 60 60 59 57 56
59 60 61 62 63 63 60 60 59 59 58 58 57 55 55 54 53 52 51 50 48 48 45 43 43 44 46 47 48 50 43 34 56 54 63 63 62 62 60 58 58 57 55
51 54 55 55 54 53 52 51 51 50 50 50 49 49 48 47 47 47 45 44 43 41 40 38 38 40 40 39 37 35 32 32 46 41 62 63 62 62 60 58 57 56 55

GFSGL_sfc_dewp_069.txt.gz
Dewpoint
70 71 71 71 71 72 71 71 72 72 72 72 72 73 73 73 74 75 75 74 74 75 75 75 74 75 71 70 71 69 68 66 63 60 62 65 69 68 67 69 69 69 66
69 71 71 72 72 70 71 71 71 72 72 72 72 72 72 72 73 74 73 72 74 74 74 75 74 72 75 75 72 73 72 71 67 70 69 66 69 69 70 70 66 63 65
68 68 70 71 71 72 72 72 72 72 73 71 72 72 72 72 73 73 73 73 74 74 74 74 74 74 74 73 73 72 70 71 71 69 68 68 69 68 69 71 69 70 66
66 67 70 71 72 71 73 73 72 73 73 72 73 73 72 71 71 71 72 73 74 73 74 74 74 74 74 75 74 74 74 72 72 70 68 67 67 70 69 67 67 67 67
68 69 70 72 72 73 73 73 72 72 72 73 73 72 72 71 68 72 72 72 73 73 74 74 74 73 71 72 72 75 75 73 70 69 68 67 67 67 69 68 68 68 70
69 69 71 72 73 73 73 73 73 73 72 73 73 72 71 69 64 65 70 71 72 73 73 74 74 73 72 68 68 68 72 75 74 71 69 69 74 72 70 70 70 70 69
69 70 71 72 72 73 73 73 73 74 73 73 72 72 72 73 64 64 66 71 72 73 74 74 71 68 72 74 70 67 67 66 68 74 74 74 74 74 76 75 73 72 70
69 70 71 72 72 73 73 73 73 72 73 73 73 73 73 73 64 63 65 71 73 74 74 74 74 74 74 74 73 72 73 73 73 71 73 74 75 76 77 76 74 72 72
69 70 71 71 72 72 73 73 73 73 72 73 72 73 74 74 63 62 64 69 70 73 74 75 75 75 70 65 73 73 74 73 69 66 67 66 66 65 67 71 70 71 69
69 70 71 71 72 72 73 73 74 74 72 71 71 73 70 74 65 60 64 69 71 69 74 75 67 71 65 62 73 73 73 73 74 75 75 72 69 72 66 70 72 70 69
68 69 72 72 73 73 73 74 74 73 73 74 74 74 74 73 73 60 59 71 70 70 70 70 71 62 61 60 62 74 74 74 73 75 76 76 76 75 76 76 76 73 70
71 71 72 73 70 70 74 73 74 74 74 74 74 73 73 75 66 62 58 60 69 72 72 72 73 61 58 58 60 64 63 65 73 74 74 74 74 74 74 75 76 74 72
71 72 73 73 73 73 74 74 72 74 71 72 71 71 71 72 74 61 58 57 59 70 73 70 64 58 57 60 58 60 60 68 71 72 72 73 73 73 74 72 70 69 69
71 71 71 71 71 72 71 71 70 70 70 70 70 70 71 72 73 74 72 67 60 64 66 71 69 67 65 69 69 66 69 72 73 73 73 73 73 71 70 70 67 66 65
71 70 69 69 70 71 71 70 70 73 69 70 71 71 71 71 72 68 70 74 73 69 70 73 73 72 72 71 72 73 73 70 69 70 71 72 70 69 68 68 67 65 64
68 69 69 72 71 70 69 69 52 53 50 50 52 61 71 63 58 55 53 53 55 54 70 73 72 71 71 72 72 72 72 68 69 70 70 70 69 68 66 66 66 65 64
64 68 68 67 69 71 72 71 71 63 49 49 48 48 49 55 51 49 49 48 49 55 72 73 73 73 72 72 72 72 70 70 71 69 69 69 68 66 65 64 65 64 64
61 56 65 67 68 69 69 70 70 70 70 71 52 53 47 46 47 47 46 53 64 60 71 73 73 73 73 74 73 71 70 69 68 68 68 67 66 65 64 63 62 63 61
55 56 60 62 65 65 69 69 69 70 70 70 71 56 50 44 44 44 45 72 74 74 73 73 74 74 73 73 72 70 68 67 68 69 67 65 65 65 64 63 62 57 58
53 56 58 60 61 64 65 67 67 69 70 70 70 70 67 57 65 65 61 65 73 74 74 72 71 71 71 70 68 68 68 67 67 66 65 64 64 64 63 62 61 61 60
52 53 56 58 58 60 61 64 65 66 68 68 70 69 58 67 69 70 69 69 71 73 73 72 70 69 69 69 69 68 67 65 65 65 63 64 64 64 64 63 62 61 60
54 53 54 53 55 57 60 62 64 65 66 67 67 66 48 63 68 69 70 70 71 71 69 69 67 66 65 65 65 65 64 63 63 63 63 63 63 63 63 62 61 60 60
53 54 56 56 56 56 60 61 60 64 65 66 67 65 60 63 66 69 69 69 67 67 66 65 64 64 64 64 64 65 64 63 63 63 62 62 63 63 62 61 60 60 60
53 54 55 57 56 58 58 59 60 59 64 64 65 65 63 64 65 65 65 64 64 64 64 64 64 63 64 64 64 64 63 63 63 63 64 63 62 60 61 61 60 60 60
50 53 57 58 58 56 60 61 63 64 63 63 62 60 59 58 58 57 57 60 59 57 56 57 59 62 62 61 61 63 44 36 58 51 63 64 63 64 62 61 61 60 60
46 46 47 49 53 54 55 53 51 51 50 49 50 49 49 51 49 49 49 50 48 46 46 46 45 46 47 45 41 36 31 33 51 40 62 64 63 63 62 62 61 60 60

GFSGL_sfc_dewp_072.txt.gz
Dewpoint
71 72 73 71 71 72 70 71 73 73 73 73 72 71 70 71 73 75 74 72 73 75 75 74 75 76 69 66 67 67 65 65 63 61 59 64 70 70 69 69 68 68 66
71 73 72 73 73 70 71 71 72 73 74 74 73 73 71 71 73 74 73 70 73 73 74 75 75 73 76 76 70 74 71 72 67 72 71 66 72 74 73 73 69 66 66
69 69 70 71 71 73 72 72 72 73 73 73 73 73 72 71 71 72 73 72 72 72 74 74 75 75 75 73 73 71 69 69 70 69 68 65 65 66 69 74 73 74 69
65 67 71 73 73 72 74 74 73 74 73 73 74 73 73 72 70 70 70 72 72 71 73 74 74 75 75 75 75 76 75 73 72 69 67 66 65 70 68 67 67 67 68
68 67 71 74 74 75 75 75 74 73 73 74 74 73 73 71 67 71 70 69 71 72 72 72 73 73 70 72 72 76 78 73 68 66 64 64 62 63 68 67 67 67 71
70 70 72 75 75 75 75 75 75 74 74 74 74 73 72 68 64 64 68 68 70 72 71 72 73 72 72 69 68 68 71 75 77 71 67 66 75 72 68 68 68 69 70
72 72 73 75 75 76 75 75 76 75 74 75 74 74 73 73 64 63 65 69 69 71 74 73 69 64 70 71 69 67 68 66 68 73 74 74 74 74 75 76 77 75 74
73 73 74 75 75 75 75 76 77 75 75 76 74 75 74 73 64 62 64 71 72 73 74 74 75 74 74 73 72 71 72 72 74 72 74 74 74 76 77 77 77 76 75
72 73 74 74 75 75 75 75 75 75 74 74 74 75 76 75 63 62 66 70 69 73 73 75 75 76 70 65 72 73 73 72 66 64 65 66 66 66 68 71 71 73 72
72 72 74 74 75 75 75 76 75 74 73 71 72 74 70 76 65 60 65 69 70 67 73 76 67 71 65 62 73 73 73 71 71 73 74 73 69 74 66 74 73 73 73
70 70 73 73 75 76 76 76 76 75 74 75 74 74 75 73 74 59 59 72 67 66 66 66 68 62 62 60 61 75 73 73 72 75 75 75 76 75 75 77 78 76 73
72 71 73 74 71 71 76 75 75 75 75 76 75 73 71 75 67 62 58 60 68 71 70 67 70 60 57 58 61 64 62 64 72 72 73 74 73 73 75 77 75 74 73
72 73 73 73 72 74 75 74 72 74 71 72 70 70 70 70 73 61 57 57 60 69 71 68 63 58 55 59 57 60 60 71 72 72 72 73 73 75 76 73 72 72 70
72 72 72 73 73 72 71 71 71 70 70 68 69 68 68 69 70 71 72 67 60 65 67 70 69 66 64 67 70 67 71 73 73 73 73 73 76 74 73 71 69 68 65
71 71 71 71 72 72 71 70 70 72 68 69 68 68 68 69 69 66 68 73 73 70 70 73 72 73 73 75 74 75 75 75 74 74 75 74 73 73 70 70 68 66 65
71 69 68 67 69 68 69 70 56 56 54 54 54 61 69 62 59 55 57 56 53 55 71 72 73 74 73 72 73 73 74 73 74 73 73 72 72 71 70 68 67 64 64
69 71 70 68 69 69 69 70 70 63 52 52 53 52 53 55 53 50 48 48 51 58 73 74 73 73 74 74 74 74 73 74 74 72 71 71 71 70 67 67 65 64 63
65 57 68 68 69 71 69 71 73 72 72 70 56 56 49 48 48 49 48 53 68 62 73 73 74 74 74 75 73 73 73 73 72 72 72 71 70 69 67 65 64 64 63
62 59 58 62 66 64 67 68 66 69 70 69 68 57 54 46 44 44 44 71 72 72 72 72 73 73 73 73 74 75 75 72 70 70 70 69 69 69 66 64 63 58 60
58 57 60 66 62 62 64 64 64 63 66 67 64 64 66 62 67 68 64 67 72 72 72 71 71 72 75 75 74 74 73 70 69 69 70 69 68 66 63 63 62 62 62
51 50 54 49 50 52 57 58 60 59 59 61 64 64 56 70 68 68 69 70 70 72 74 74 73 72 73 74 72 71 69 68 69 69 69 67 66 63 63 62 62 62 61
51 49 49 48 48 49 51 53 54 53 55 57 57 60 53 68 68 70 70 71 72 72 73 76 74 72 71 71 71 71 70 69 69 69 68 65 64 63 62 62 62 61 61
51 51 51 51 50 50 51 52 51 52 52 55 57 57 60 63 65 68 70 71 72 73 72 71 72 71 70 69 69 69 68 67 66 65 65 64 62 62 63 62 62 62 61
50 53 54 55 55 53 51 51 53 51 53 54 57 57 58 62 65 68 69 69 70 69 68 68 68 68 67 67 66 65 66 65 64 64 65 63 62 60 62 62 62 61 61
46 47 48 50 51 56 56 53 54 57 60 60 61 61 61 62 62 62 63 64 65 65 64 65 65 65 64 65 65 64 43 35 58 48 63 64 63 63 62 62 62 61 61
44 44 44 44 45 45 47 49 51 50 51 49 50 51 51 50 50 49 51 49 52 47 53 50 48 54 54 51 45 37 32 33 52 43 61 63 63 62 62 62 62 62 61

GFSGL_sfc_dewp_075.txt.gz
Dewpoint
72 73 73 73 73 74 72 74 75 75 76 75 73 72 72 72 74 77 77 75 76 76 75 74 75 78 70 66 66 66 66 64 63 63 63 67 76 74 71 72 71 73 68
72 73 73 74 74 73 73 73 75 76 77 77 76 75 73 72 75 75 73 72 72 73 73 76 74 71 78 78 71 76 70 73 67 72 71 68 74 75 76 78 72 68 70
71 70 73 73 74 74 74 74 74 76 76 75 76 76 75 73 74 75 75 74 71 72 73 75 75 76 77 73 76 73 69 71 71 69 69 67 67 67 71 75 75 74 70
66 68 72 74 74 73 74 75 75 76 77 77 77 77 76 75 73 72 73 75 75 72 73 74 74 75 77 78 76 78 76 74 71 69 68 67 67 72 70 68 68 67 68
69 69 71 75 75 75 75 75 76 76 76 77 77 77 76 73 69 73 73 73 75 74 73 73 74 73 70 72 72 76 78 74 69 67 66 64 63 64 70 68 68 68 71
71 70 72 74 76 75 75 76 76 76 77 77 77 77 76 70 64 65 71 71 73 74 74 75 76 73 72 68 68 68 72 76 77 71 68 68 74 71 69 68 69 69 70
72 72 72 75 76 76 76 76 77 77 77 77 77 77 76 76 63 63 65 71 72 73 75 75 72 64 71 74 70 67 68 67 68 75 75 74 74 75 76 75 76 76 74
72 73 73 75 75 76 77 77 77 77 77 77 77 77 77 75 64 62 64 72 72 73 74 75 76 74 73 73 75 74 74 75 75 72 75 75 76 77 78 76 77 77 75
73 73 74 74 75 76 76 77 77 77 77 77 77 78 78 77 63 61 65 70 71 74 75 75 75 75 70 66 74 73 73 73 66 63 64 64 65 64 67 72 72 73 71
72 73 75 75 76 76 77 77 77 77 76 73 75 77 73 78 66 61 65 69 71 68 74 76 67 72 66 63 75 75 74 75 74 74 75 73 67 72 66 73 75 74 75
71 73 76 76 77 77 78 78 78 77 75 77 76 77 78 76 77 60 59 73 68 67 66 65 67 62 61 60 62 75 75 75 74 75 74 73 76 77 79 76 79 78 75
74 74 75 77 74 74 78 78 78 78 77 77 77 75 72 77 68 61 58 61 69 71 68 61 64 57 57 58 61 63 62 64 71 71 71 71 72 74 74 78 78 77 74
75 75 76 76 76 75 77 78 75 77 72 73 71 70 68 68 73 61 57 57 60 69 70 64 62 57 54 57 57 60 61 71 71 71 72 72 73 73 79 76 75 74 72
75 76 75 75 75 75 73 73 72 70 71 69 69 68 67 66 67 70 70 65 61 65 67 70 67 65 61 67 70 65 71 73 73 73 74 73 74 79 77 73 70 71 67
73 72 74 72 73 74 73 71 70 72 67 69 66 66 67 68 67 64 66 73 72 69 70 72 71 70 71 72 73 74 75 75 74 73 74 75 75 78 74 72 71 70 66
72 72 70 69 71 71 70 70 56 58 54 54 55 63 68 57 56 55 55 53 56 57 70 71 71 71 72 71 73 74 74 73 75 76 76 76 75 74 72 71 70 69 67
65 69 70 68 69 69 70 69 69 64 55 55 55 54 53 53 53 53 50 50 54 59 73 72 71 70 72 73 73 73 73 74 77 76 75 75 74 73 70 70 69 69 65
61 58 66 69 69 67 68 68 68 70 70 69 58 60 52 50 50 49 50 55 71 66 72 71 71 73 75 73 72 72 73 72 76 75 74 73 73 72 70 69 69 68 65
63 61 59 65 65 67 73 70 69 71 69 66 68 59 54 47 47 47 47 71 71 71 70 71 72 72 73 73 73 74 73 73 75 74 73 73 72 72 70 69 68 60 61
62 60 61 66 66 70 68 62 64 62 64 65 63 70 67 64 68 70 68 70 71 71 69 67 68 70 71 72 72 74 75 75 74 73 73 72 70 70 70 68 67 64 63
64 64 62 60 62 65 61 66 61 63 65 67 66 64 56 70 68 64 68 70 70 70 71 70 70 69 75 75 74 73 75 74 73 72 71 71 69 69 70 69 65 63 62
51 50 56 60 58 58 59 63 62 63 62 61 63 63 54 62 66 63 62 64 68 71 70 72 71 71 73 74 73 73 73 71 70 71 71 71 70 69 68 66 64 63 62
51 51 52 52 52 52 54 54 50 51 52 53 54 55 61 59 60 57 60 63 67 68 69 73 74 72 73 72 72 72 72 72 72 71 71 70 69 67 66 65 63 61 61
48 50 51 52 54 55 54 53 50 48 50 49 52 53 59 61 61 64 66 68 69 71 72 73 71 70 72 71 70 70 70 69 69 68 68 67 66 64 64 64 63 62 63
44 44 45 45 47 48 52 52 52 52 54 54 54 55 56 57 57 57 57 55 56 54 50 53 53 56 60 54 53 52 44 33 54 47 64 66 66 65 63 62 63 63 63
41 41 41 41 42 42 42 43 43 44 44 44 45 45 45 46 47 47 46 46 46 45 43 42 42 41 43 45 38 35 32 32 47 38 60 64 63 63 62 63 63 62 62

GFSGL_sfc_dewp_078.txt.gz
Dewpoint
72 71 71 71 71 71 72 73 74 75 77 77 77 76 76 75 77 77 76 76 75 76 75 77 76 76 74 74 75 75 73 72 69 70 72 73 75 74 73 73 74 73 72
72 72 71 72 71 70 69 74 74 76 78 79 77 77 75 75 76 76 75 72 75 75 76 76 76 74 77 77 75 75 74 75 73 71 72 72 72 73 75 78 75 71 72
72 72 72 72 72 71 70 72 74 73 75 75 77 75 76 75 74 75 75 74 74 74 75 76 76 77 77 76 77 76 75 75 75 73 72 74 72 71 70 73 75 74 74
70 71 72 72 72 72 73 71 72 75 75 75 75 76 76 75 74 73 75 75 75 74 75 75 76 75 76 77 77 77 77 76 75 74 72 71 71 73 75 73 71 72 73
69 70 72 73 73 73 73 74 73 73 74 75 76 76 76 75 73 74 73 74 75 75 75 75 74 75 72 74 75 77 77 76 74 73 72 72 70 72 71 73 71 70 72
69 70 72 73 74 73 74 74 74 73 74 75 75 75 76 74 68 66 72 72 74 74 74 74 75 73 72 68 67 68 71 74 73 73 72 70 72 73 73 71 72 71 72
71 71 72 73 74 74 74 74 74 74 74 75 75 75 75 76 66 64 67 72 72 73 75 74 73 70 71 74 69 66 67 66 68 72 72 72 72 73 74 74 74 75 73
72 73 72 73 73 75 74 74 74 74 75 75 75 75 76 75 67 63 64 71 73 73 73 73 73 73 73 75 75 75 74 73 72 70 71 73 74 75 76 75 75 75 75
71 73 73 72 73 74 74 74 74 74 75 75 75 76 76 76 65 63 64 69 70 72 72 73 74 75 70 66 71 71 71 71 68 65 67 68 68 68 70 72 69 71 72
71 72 74 73 73 74 75 75 75 75 74 74 74 76 73 76 66 62 63 71 71 70 72 74 67 70 66 64 72 73 73 73 74 74 75 73 66 69 64 70 71 72 74
72 72 74 75 74 75 76 76 76 75 75 75 75 76 77 76 75 61 59 72 71 71 70 70 72 64 61 60 62 73 72 73 73 75 75 75 75 75 78 75 75 76 75
74 73 74 75 74 73 76 76 76 76 76 75 75 75 75 77 68 63 58 60 68 72 70 69 70 59 57 58 60 63 63 64 73 73 72 72 72 75 76 78 78 79 76
74 75 74 76 75 74 75 76 76 76 75 75 74 74 73 75 76 62 58 58 60 70 72 68 62 60 55 56 56 59 60 69 71 71 72 72 74 76 77 78 76 75 72
75 76 75 75 75 75 74 75 75 75 75 73 73 73 73 72 72 74 69 64 60 64 66 70 68 65 60 66 70 62 68 72 73 73 73 74 76 76 77 75 74 71 70
73 75 75 74 75 75 74 75 75 75 73 73 72 72 71 71 70 65 69 72 70 68 70 72 72 72 70 71 73 75 73 73 73 74 74 74 75 76 77 73 73 70 67
65 69 73 72 73 73 73 73 56 61 56 57 60 66 68 58 51 50 49 58 59 57 70 72 73 72 72 72 72 73 74 74 76 75 75 75 75 76 76 73 70 70 68
60 59 62 65 71 73 73 72 71 65 53 50 53 57 62 57 50 49 50 51 54 58 73 73 73 73 73 74 73 76 75 75 75 75 77 76 75 74 72 72 70 69 68
60 56 58 62 65 69 72 72 71 70 70 71 56 57 51 53 51 51 50 57 70 69 74 74 74 75 74 75 75 75 73 74 75 75 75 75 75 74 72 71 70 70 69
61 61 60 61 64 63 70 71 70 72 71 70 71 61 51 48 47 47 50 73 73 73 73 73 72 72 73 76 75 75 74 74 75 76 76 75 74 73 72 71 70 64 64
59 61 60 63 63 64 67 70 71 73 70 73 72 70 67 63 67 69 68 71 72 71 72 72 73 73 73 74 75 75 75 76 77 77 76 75 74 73 72 71 70 69 68
58 61 62 64 63 65 65 64 67 68 70 65 68 68 62 70 70 70 71 71 71 71 73 72 73 73 74 77 77 74 74 75 76 75 74 73 72 71 71 70 69 69 68
54 61 62 62 62 62 61 64 63 66 65 64 66 66 53 68 66 70 67 69 72 73 72 75 73 73 73 74 75 75 75 74 74 74 73 72 71 71 70 70 70 70 67
50 52 55 60 60 60 63 63 62 59 59 61 60 62 64 64 65 64 62 68 68 63 62 62 60 60 60 66 64 70 72 71 73 73 72 71 71 71 70 69 68 66 64
45 45 46 49 48 51 52 54 53 52 52 52 52 55 56 55 55 56 55 57 54 54 50 50 48 46 49 46 45 45 45 43 51 63 72 72 71 69 70 69 66 65 64
42 43 43 43 42 43 43 44 46 46 46 46 45 46 47 50 48 47 48 47 47 45 43 42 41 40 41 41 40 39 35 33 41 42 59 67 69 68 67 65 66 64 65
39 39 40 41 40 41 41 40 40 41 41 41 41 41 42 43 43 43 41 41 41 41 41 39 39 37 37 37 36 35 32 32 37 34 49 61 64 65 66 64 64 64 64

GFSGL_sfc_dewp_081.txt.gz
Dewpoint
67 68 66 66 71 71 70 67 72 70 73 73 73 73 73 73 74 73 72 72 73 73 72 72 72 72 71 70 72 71 71 68 64 66 68 70 69 68 68 70 71 70 69
68 68 68 66 68 70 69 69 72 70 72 73 73 73 73 72 72 73 73 72 71 72 73 72 72 73 72 71 71 71 71 71 70 66 68 69 70 70 70 71 72 73 71
69 68 68 68 66 68 67 68 69 73 73 74 73 72 72 72 72 73 73 72 71 73 73 73 73 72 73 74 73 72 73 73 73 71 71 72 72 70 69 69 71 72 73
69 69 68 68 68 66 66 66 70 71 72 73 74 73 74 72 72 72 73 73 72 72 73 72 73 73 73 73 74 74 73 73 73 72 71 71 70 70 72 70 69 70 69
70 70 69 69 68 69 68 68 64 72 70 71 73 74 74 74 73 72 72 73 73 73 73 73 73 73 72 72 73 74 74 73 73 72 71 70 70 69 69 70 69 69 70
69 70 70 70 70 69 70 69 67 65 72 72 72 72 73 73 69 68 71 72 73 72 72 73 73 72 71 68 68 69 73 73 71 71 70 69 68 69 70 70 70 70 69
68 70 70 70 70 70 70 70 71 68 66 70 72 73 73 73 67 66 68 71 70 72 72 71 71 71 70 72 70 67 66 66 67 69 69 69 68 69 70 70 71 71 71
68 69 70 71 70 71 70 71 71 72 70 70 71 72 73 73 67 65 66 69 70 69 70 73 72 71 71 70 71 71 71 70 69 68 68 69 70 71 72 72 72 72 73
69 68 70 70 71 71 70 70 71 71 72 71 71 73 73 73 65 65 64 66 68 70 70 70 70 70 68 66 69 69 68 69 69 66 66 66 66 66 69 73 71 68 68
69 71 70 70 70 71 72 71 72 72 71 72 72 72 71 73 66 63 64 70 68 67 70 71 66 70 65 64 70 70 70 71 72 72 72 67 65 67 66 70 72 68 70
64 66 73 71 70 71 72 72 72 72 72 71 71 72 73 73 73 63 60 71 71 69 68 68 70 63 60 59 60 69 68 68 70 72 72 73 74 74 74 68 68 71 71
62 63 71 72 71 72 72 73 72 72 72 72 72 72 72 73 67 64 59 61 68 70 69 69 68 61 59 58 60 62 62 63 71 72 72 71 71 71 71 75 75 74 75
61 63 71 73 72 71 72 72 73 73 72 72 72 72 72 73 74 63 60 58 60 69 71 68 64 60 57 56 56 59 59 64 67 69 69 70 71 72 73 74 73 72 71
60 62 73 72 73 72 73 73 73 73 72 72 72 72 72 72 73 74 70 65 60 63 66 68 64 64 64 67 65 61 61 66 67 68 69 70 72 73 74 73 71 70 68
60 62 68 73 72 74 73 74 73 73 72 72 72 72 71 72 72 68 71 72 71 68 68 70 70 70 70 70 70 71 68 68 70 71 72 72 74 74 73 73 73 69 68
59 61 60 65 69 74 74 72 57 61 59 59 61 68 72 62 61 58 56 60 60 57 67 70 70 70 70 70 70 69 73 70 71 72 73 73 73 73 72 71 69 70 68
58 59 60 61 65 67 73 73 72 65 55 52 52 58 57 60 50 50 49 51 52 59 69 69 70 72 72 72 71 71 70 73 74 74 74 73 73 73 72 71 70 70 69
58 56 59 60 61 64 65 70 73 71 69 69 54 54 49 50 49 48 49 55 61 64 70 71 71 72 72 73 73 73 73 73 73 72 72 73 73 72 71 70 70 70 70
57 58 59 60 61 61 65 68 72 72 70 70 65 54 52 51 51 50 49 71 71 70 72 72 73 74 73 73 74 73 73 73 73 73 74 74 74 72 71 70 71 63 66
55 57 58 61 62 63 64 65 66 69 70 71 70 68 62 61 65 66 66 68 70 72 72 73 72 72 72 72 74 74 73 72 72 73 74 75 74 72 71 71 71 71 69
51 55 59 61 61 62 62 63 63 65 67 67 67 68 56 67 67 68 68 68 69 71 71 71 71 71 72 73 73 74 74 74 74 74 73 73 72 71 71 72 71 70 68
48 51 55 57 61 61 61 60 59 61 63 62 64 60 55 65 64 66 64 61 62 61 59 55 54 52 52 51 53 60 70 71 72 73 72 71 70 69 69 70 70 70 69
45 45 48 50 52 53 54 54 53 53 53 53 56 56 53 53 53 53 53 52 50 51 51 50 50 48 49 45 45 46 46 46 48 55 69 71 70 69 69 68 69 69 68
42 42 43 43 45 48 49 48 49 47 48 47 47 48 49 49 49 47 48 47 46 45 45 45 45 45 43 44 41 41 41 39 42 51 54 63 70 67 70 69 69 68 66
39 41 40 40 41 41 42 42 43 43 44 44 43 43 43 44 44 43 44 43 42 41 40 39 38 39 40 40 38 37 35 33 41 39 53 58 62 64 69 70 69 68 66
38 38 38 39 39 40 39 39 39 39 40 40 40 41 41 41 40 41 41 41 41 40 38 37 36 35 35 35 34 34 32 33 38 38 49 58 60 60 59 64 64 64 63

GFSGL_sfc_dewp_084.txt.gz
Dewpoint
66 65 64 65 69 70 67 67 71 68 69 70 70 73 72 72 72 72 72 71 71 71 70 71 71 71 71 70 69 70 69 67 65 65 67 70 69 68 70 70 71 70 71
67 66 64 64 66 70 70 67 68 70 72 72 71 72 72 72 72 72 71 71 71 72 72 71 71 71 72 71 70 70 70 70 69 67 67 69 70 70 71 71 70 72 73
67 67 66 63 64 66 70 70 67 69 70 73 72 71 72 72 72 72 72 72 71 71 71 72 72 71 71 72 72 72 71 72 71 70 70 71 71 70 70 70 70 71 70
68 66 67 66 63 63 68 68 70 70 71 71 72 71 71 71 71 70 72 72 71 71 71 72 72 72 72 71 71 72 72 72 71 71 70 71 70 71 70 69 69 69 69
69 68 66 68 67 63 63 68 67 70 71 73 72 72 72 71 70 70 71 71 71 71 72 72 72 72 71 71 72 72 72 72 72 71 71 70 70 69 68 68 68 68 70
69 68 68 68 68 67 64 64 66 65 71 70 72 73 72 72 67 67 69 71 72 72 71 72 72 71 71 68 68 68 72 72 72 71 70 70 69 67 68 68 67 68 68
69 69 69 69 68 68 68 66 65 64 62 70 69 70 72 73 66 66 68 70 71 71 71 71 71 72 70 72 69 66 66 66 68 70 68 69 68 68 68 67 68 68 69
67 69 71 70 69 68 68 68 67 67 65 63 70 70 70 70 66 65 66 71 71 70 71 72 71 71 70 70 70 70 70 70 69 67 68 68 69 69 70 70 69 70 71
68 67 67 71 70 70 69 69 69 69 68 66 65 69 72 72 64 64 65 70 71 70 70 70 71 71 68 65 70 70 70 70 68 65 65 65 65 65 66 70 70 69 68
63 65 66 66 72 71 70 69 70 70 70 70 69 69 67 71 64 63 65 72 69 69 69 70 65 68 64 62 69 69 68 68 68 70 70 67 65 67 65 68 70 70 68
62 63 66 65 68 72 71 70 70 70 70 70 71 70 71 72 71 61 61 72 72 70 69 68 69 62 60 59 61 70 69 69 68 68 70 71 72 73 73 70 70 71 68
60 63 64 66 68 70 71 71 70 70 70 70 70 71 72 72 65 62 59 61 68 72 71 70 68 59 57 57 58 61 61 61 67 69 70 71 72 72 72 72 72 70 71
59 60 63 65 68 72 72 71 71 70 71 71 70 70 70 72 72 61 59 59 61 70 72 68 63 58 56 57 57 59 58 63 65 66 68 69 70 71 71 72 71 73 72
58 60 62 61 70 72 73 72 71 71 71 71 71 71 71 71 72 73 69 65 61 63 66 69 66 63 61 63 63 60 61 63 65 66 67 68 69 70 71 73 72 70 69
57 59 61 61 64 72 73 72 72 72 70 71 71 71 71 71 71 68 69 73 71 67 68 70 69 66 68 68 68 69 67 65 65 66 67 68 70 71 72 73 72 70 70
56 58 60 61 61 65 71 71 57 59 58 58 59 68 72 65 61 58 57 56 57 54 66 71 70 70 70 70 71 71 70 68 69 69 69 70 71 72 72 70 71 71 70
54 56 59 59 61 62 63 67 71 65 56 54 52 55 56 64 54 51 53 54 49 56 71 70 71 70 70 71 71 70 70 70 71 71 71 71 72 72 70 70 71 70 70
52 53 57 58 60 62 63 64 66 71 70 69 57 55 51 49 49 51 47 53 60 59 70 71 70 70 71 71 71 71 71 71 71 73 73 73 73 72 71 71 70 70 69
51 53 56 58 60 61 62 63 65 69 71 70 64 55 50 47 47 46 47 66 66 65 68 71 71 70 71 72 72 72 72 72 72 72 72 72 72 72 72 72 70 62 64
50 52 54 57 59 59 62 62 62 63 68 69 69 68 60 60 64 65 66 67 68 68 69 70 71 71 71 71 71 72 72 71 71 72 72 73 73 73 72 71 69 69 68
49 50 55 57 59 60 58 56 57 60 64 64 61 63 55 67 67 66 66 63 62 57 56 57 55 54 54 53 55 59 68 72 72 72 72 73 73 72 71 70 69 69 70
45 47 50 50 53 55 54 53 53 53 55 57 56 54 50 61 59 59 56 53 52 53 52 52 51 50 50 49 49 51 53 54 55 57 60 70 71 70 70 69 68 68 68
43 43 44 47 49 50 50 50 49 50 50 50 52 52 52 50 51 51 49 47 48 47 48 49 47 46 46 46 45 46 47 48 48 50 56 59 69 69 68 68 67 67 67
41 41 41 42 43 44 46 46 46 45 46 47 48 48 47 47 46 47 45 43 42 43 45 44 45 43 43 43 43 41 40 40 45 52 54 59 62 62 68 67 67 68 67
39 39 39 39 39 40 41 41 42 43 42 42 43 44 45 45 45 45 44 43 42 40 38 37 36 37 37 37 38 37 36 34 41 40 53 58 61 61 62 63 67 68 67
38 38 38 38 38 39 38 39 39 40 40 40 40 40 40 40 40 40 41 41 40 40 39 38 36 35 34 34 33 33 32 32 38 37 50 53 54 53 52 57 58 59 63

GFSGL_sfc_dewp_087.txt.gz
Dewpoint
65 66 66 67 69 67 67 67 69 69 69 68 69 72 72 71 71 71 71 70 70 70 70 70 69 70 70 70 69 69 68 66 65 66 66 69 69 70 70 71 71 71 72
65 65 64 64 66 69 68 67 67 69 69 69 69 70 72 72 71 71 71 71 70 70 70 70 70 71 70 70 70 69 69 69 68 67 68 69 69 70 71 70 70 70 71
66 65 64 64 64 65 68 69 66 68 69 71 70 70 71 71 71 71 71 70 71 71 71 71 71 70 70 70 70 70 71 71 70 68 69 70 70 71 71 70 70 69 70
67 66 65 64 64 64 64 69 69 67 68 69 72 71 71 71 71 71 71 71 71 71 71 71 71 71 71 71 70 70 70 70 70 69 69 69 70 70 69 69 67 68 69
68 68 66 66 64 64 63 65 68 69 68 68 69 72 71 71 71 71 71 71 71 70 70 71 71 71 71 70 71 71 70 70 70 70 69 69 69 69 68 68 67 68 69
69 68 68 67 67 64 63 63 66 67 68 70 70 69 71 71 66 66 69 69 70 70 69 70 71 71 70 68 67 67 69 70 69 69 69 69 70 68 67 67 66 66 66
69 69 69 68 68 67 65 63 63 65 66 67 69 71 70 71 65 65 67 69 69 70 70 70 70 71 70 72 69 66 66 66 68 71 69 69 68 68 67 66 66 67 67
69 70 70 70 69 68 67 66 63 63 64 63 66 69 70 71 65 64 66 69 70 70 70 71 70 70 70 71 70 70 70 70 68 67 69 69 69 69 69 68 68 68 69
67 66 66 67 69 70 69 67 67 65 64 64 62 62 67 69 63 63 64 70 71 71 71 70 71 71 67 65 69 69 69 69 67 64 65 64 64 64 66 68 67 68 67
60 62 65 66 66 68 71 69 69 68 67 67 65 64 63 66 62 61 64 70 69 70 71 71 65 68 64 62 68 69 69 68 68 68 68 66 64 66 64 67 68 68 67
59 61 63 65 67 66 67 71 71 70 69 68 68 67 66 67 68 60 60 70 70 69 70 69 69 62 59 58 60 69 68 67 67 68 68 68 69 70 71 69 69 70 69
58 59 60 63 65 68 67 70 71 70 70 69 69 70 70 69 62 60 58 61 67 70 70 71 70 60 57 57 58 61 60 62 66 66 67 68 69 70 71 72 71 70 72
56 58 59 62 63 65 66 69 72 71 71 70 69 69 70 71 71 60 58 58 60 69 71 69 63 58 55 56 56 59 59 63 65 65 66 67 68 69 70 70 70 71 72
53 55 58 61 61 63 67 71 71 71 70 71 70 70 69 70 71 72 67 63 60 63 66 69 66 64 62 64 63 61 62 64 66 66 66 67 67 68 68 69 70 70 71
53 55 57 60 60 62 64 71 72 72 71 71 71 71 71 70 71 67 68 71 70 67 67 70 71 67 67 68 67 67 66 64 64 65 65 66 66 67 68 69 70 70 70
51 53 54 57 60 61 63 64 60 58 56 55 55 66 70 64 59 54 54 54 55 54 66 71 71 71 71 70 70 70 69 68 68 67 67 68 68 68 69 69 70 71 71
49 51 53 55 58 60 62 63 64 65 53 51 52 53 54 60 53 51 52 50 48 54 71 70 71 71 71 71 71 71 71 71 71 70 69 69 69 69 69 70 71 70 71
48 49 51 54 56 59 61 63 64 66 68 70 58 54 52 51 48 48 46 52 57 59 70 72 71 71 71 71 71 71 71 71 69 70 70 70 70 70 70 70 70 71 71
48 49 50 52 54 57 60 61 63 64 66 69 67 58 51 49 50 46 48 68 69 67 67 69 71 72 71 71 71 71 71 71 71 71 71 71 72 71 71 71 71 63 64
48 49 51 55 56 58 60 59 59 61 62 65 69 68 61 58 62 63 61 64 68 67 67 67 69 70 70 70 71 71 71 71 71 72 72 72 72 72 72 71 71 68 68
46 47 50 54 55 56 55 54 55 55 58 59 58 56 55 65 67 67 66 61 58 57 58 56 56 54 53 53 57 62 68 71 70 70 70 71 72 72 72 71 70 68 68
44 45 46 49 52 53 51 52 51 52 52 53 54 53 47 57 56 54 52 51 52 50 51 50 48 48 49 48 49 51 54 56 58 60 62 65 69 71 70 69 69 68 67
42 42 43 45 47 48 49 48 48 48 49 49 49 49 49 49 49 49 48 47 47 47 48 47 46 46 47 46 47 46 47 47 50 51 57 62 66 68 68 69 68 67 66
41 40 41 41 42 44 44 44 45 43 44 45 45 45 46 47 46 45 44 43 44 45 47 46 43 42 42 42 43 42 40 40 44 49 51 58 63 62 66 68 68 67 67
39 39 39 40 39 40 40 41 41 42 42 41 42 43 42 42 42 42 42 42 41 42 40 41 41 40 39 39 39 37 35 33 42 40 51 55 57 57 58 60 61 62 64
38 38 38 39 39 39 38 38 38 39 39 39 39 39 40 40 40 40 40 39 39 39 39 39 38 37 37 37 35 33 32 32 39 38 48 50 50 49 52 54 55 57 57

GFSGL_sfc_dewp_090.txt.gz
Dewpoint
67 67 68 67 67 67 67 69 71 71 71 71 72 72 72 72 73 72 72 72 72 72 72 72 72 72 72 72 72 71 70 68 67 69 68 72 73 74 74 75 73 74 71
67 67 67 68 68 67 67 67 69 70 71 71 71 72 73 72 73 72 72 72 72 72 72 72 71 71 72 73 72 72 71 71 70 71 72 72 73 74 74 75 73 70 71
67 66 67 67 67 68 68 68 68 69 70 71 71 71 71 72 73 72 72 72 72 72 72 72 72 72 72 72 72 72 72 72 72 72 72 73 73 73 74 74 74 73 70
67 66 66 66 66 67 68 69 68 69 69 70 71 72 72 72 72 72 72 72 72 72 72 72 72 72 72 73 72 73 73 72 72 72 72 72 73 74 72 71 70 71 70
68 68 66 67 67 67 67 68 69 69 68 69 70 72 72 72 71 72 72 72 72 72 72 72 72 72 70 71 72 74 73 73 72 72 72 72 73 72 72 71 70 70 71
69 68 69 68 68 67 67 67 69 69 69 69 69 69 71 71 67 67 71 72 72 72 72 72 72 71 71 68 67 68 71 73 73 72 72 72 73 72 72 70 70 70 70
68 69 69 69 69 68 67 66 66 68 69 69 69 70 69 71 65 65 67 72 71 71 72 71 71 70 71 72 69 66 66 65 68 73 72 72 72 72 72 71 71 71 71
64 69 70 70 69 69 68 66 66 66 68 68 69 69 70 70 63 63 65 71 71 71 71 72 72 72 72 72 72 72 72 72 71 69 71 72 73 73 72 72 72 72 72
58 60 63 66 69 70 69 69 68 66 65 67 67 68 69 69 62 62 64 70 70 71 71 72 72 72 68 65 71 72 72 72 68 64 65 65 64 64 67 71 70 70 70
57 58 61 63 65 67 70 70 70 69 67 66 66 67 64 68 62 61 63 69 70 71 72 73 65 70 64 62 71 72 71 71 72 72 71 67 65 68 63 69 70 70 71
56 58 60 62 64 67 67 68 71 71 70 69 68 68 67 65 65 58 59 71 69 69 69 69 71 62 60 58 61 72 71 71 71 71 71 71 71 71 71 70 71 71 72
56 57 58 60 63 65 67 67 68 71 71 70 69 69 69 69 60 59 57 60 65 69 68 69 71 60 57 57 58 61 61 62 69 69 70 69 69 70 70 72 74 73 73
55 56 57 59 62 63 63 65 66 69 70 70 69 69 69 70 70 58 56 57 59 68 71 68 64 59 57 58 57 59 58 65 67 68 68 69 69 70 72 73 74 74 74
53 53 56 57 58 61 63 64 65 68 70 71 69 69 70 71 71 72 65 61 59 62 65 69 67 65 62 65 65 63 64 66 67 67 68 69 71 70 71 71 71 72 72
53 53 55 55 56 59 61 63 64 65 69 71 71 71 71 70 70 67 68 69 69 66 67 70 71 71 71 71 70 70 70 68 67 68 68 69 69 70 71 72 72 72 71
51 53 53 53 55 58 60 61 58 54 53 51 55 65 70 63 58 53 53 53 55 53 67 70 70 70 70 69 70 71 71 69 70 69 69 69 69 70 70 72 72 72 71
51 51 51 51 54 56 58 60 60 62 54 52 50 52 53 62 52 51 51 50 51 54 71 70 70 71 70 70 70 70 71 72 72 71 70 71 71 71 70 71 71 71 71
50 49 50 51 53 55 56 58 61 61 62 64 58 53 51 50 48 50 49 52 59 56 71 72 71 71 72 71 72 72 72 72 72 72 72 71 71 70 70 69 71 72 72
49 48 49 51 53 54 56 58 61 60 61 62 65 61 53 49 50 52 50 69 70 68 68 71 72 73 72 73 73 73 73 72 72 72 72 71 71 70 70 71 73 64 68
48 48 49 51 54 57 59 58 58 58 58 60 63 63 63 58 61 60 60 65 69 71 71 70 71 72 73 73 73 73 72 72 72 72 72 73 72 72 72 73 72 72 70
45 47 47 50 53 55 55 55 54 54 55 56 56 55 47 56 66 67 66 65 65 65 62 62 58 57 54 54 55 58 61 65 67 70 71 72 73 72 72 72 73 73 72
42 44 45 47 50 52 51 51 51 51 52 52 52 52 45 54 55 55 54 52 53 53 53 52 53 53 53 52 52 53 54 54 54 55 58 62 64 68 71 72 71 71 71
41 42 43 45 47 48 49 48 47 47 48 48 48 48 48 48 47 47 47 48 48 50 49 49 49 47 48 48 47 47 48 49 49 51 55 59 62 64 67 69 69 68 68
40 41 41 42 42 44 45 45 44 43 44 44 45 44 44 45 44 44 44 44 45 47 46 46 48 48 47 47 46 46 44 42 47 50 53 59 60 58 61 63 64 67 69
39 40 40 40 40 40 41 41 41 41 41 41 41 42 42 42 42 41 41 41 41 42 42 40 42 41 41 41 41 40 35 34 43 42 55 55 55 56 58 58 59 60 60
38 38 38 39 39 39 39 38 38 39 38 38 39 39 39 39 40 40 40 40 40 39 39 39 39 39 38 38 36 35 34 35 39 36 50 52 52 52 54 53 54 55 56

GFSGL_sfc_dewp_093.txt.gz
Dewpoint
69 70 71 70 70 70 70 71 73 73 74 74 74 74 74 74 75 76 75 74 74 74 74 74 74 75 71 71 72 72 71 70 67 67 70 72 76 75 75 76 73 71 70
69 71 70 70 70 69 70 70 71 73 74 74 74 74 74 74 75 75 74 72 73 73 73 74 73 71 75 75 71 74 72 74 71 72 72 71 74 76 76 76 73 69 72
69 68 70 69 70 70 70 70 70 71 72 73 74 74 74 74 74 74 74 74 73 73 73 73 73 73 74 72 74 72 71 72 73 71 70 70 72 73 73 74 73 74 68
66 67 69 70 70 70 71 71 71 71 71 72 73 73 73 74 74 73 73 74 74 73 73 73 73 73 74 74 73 74 74 73 73 71 69 69 70 73 73 69 66 67 69
70 68 68 70 70 71 71 71 71 71 71 72 72 72 72 72 71 74 74 74 74 74 73 73 73 72 71 71 70 73 74 72 69 68 67 67 67 67 70 68 66 67 70
70 70 70 70 70 70 70 70 71 71 71 71 71 71 71 68 65 67 72 73 74 74 73 74 74 72 71 68 68 68 71 74 73 69 66 68 73 71 68 68 68 68 65
63 66 71 71 71 71 70 70 70 70 71 71 71 71 71 72 64 65 68 73 73 74 74 74 72 69 71 73 69 66 67 66 68 73 73 72 73 73 73 73 73 71 70
60 61 62 65 71 71 71 71 71 70 70 71 71 71 72 71 63 64 66 72 74 74 74 74 74 73 73 73 73 73 73 73 73 71 73 73 74 74 75 74 74 74 72
57 59 61 62 64 66 71 71 71 70 70 70 70 71 71 72 62 62 65 68 70 73 73 74 74 74 70 66 73 72 73 72 67 66 66 66 66 65 67 71 69 68 66
57 58 60 62 62 64 66 68 71 71 70 68 68 70 67 72 64 60 63 67 68 66 72 75 66 71 65 62 72 72 72 71 71 71 73 70 67 71 64 71 70 68 67
55 57 59 61 61 63 65 67 68 70 71 72 71 71 71 70 71 59 58 70 67 67 65 65 67 62 61 59 62 74 72 72 70 73 72 70 70 71 71 72 74 71 68
57 56 58 59 60 63 64 63 65 68 69 69 72 71 70 72 64 60 57 59 66 69 69 67 68 59 58 57 60 64 63 64 71 70 69 68 68 69 70 72 75 75 73
56 56 56 58 59 61 62 62 64 66 68 68 69 69 70 70 71 59 56 56 58 67 69 66 61 57 56 58 58 60 59 68 70 69 68 68 68 69 74 74 75 77 77
56 56 55 56 57 58 59 61 63 64 66 66 66 68 69 70 70 71 67 63 58 61 64 67 66 64 64 66 67 64 68 71 70 70 68 69 70 71 71 71 71 71 71
53 55 54 53 56 56 58 59 59 63 64 65 67 70 68 69 70 67 68 70 68 66 67 69 69 70 70 70 71 72 72 72 71 71 70 70 70 71 71 71 71 71 70
52 52 52 52 51 52 57 57 55 53 53 51 50 54 66 63 58 55 54 54 54 54 66 69 70 70 70 70 70 70 71 70 71 70 70 70 70 71 71 71 72 71 70
51 51 51 50 51 50 54 55 56 56 52 51 49 48 48 54 52 50 50 50 50 55 70 70 70 70 70 70 70 70 70 70 74 71 71 71 72 71 71 71 71 72 72
50 49 49 49 50 51 53 54 57 58 60 62 57 56 53 46 48 50 51 54 61 57 70 71 72 71 72 71 71 71 71 72 72 73 73 72 72 72 72 72 71 71 71
50 48 49 49 49 49 53 56 57 59 60 59 61 60 55 51 48 49 51 67 69 70 67 70 72 73 73 73 73 73 72 73 73 73 73 73 73 72 72 71 71 63 67
47 48 48 47 48 50 52 56 57 56 57 57 59 60 56 56 63 65 61 65 68 71 73 70 71 72 73 74 74 73 73 72 73 73 73 73 74 73 72 73 72 72 72
44 46 47 46 47 49 53 55 55 55 55 56 56 55 46 51 57 64 67 66 67 70 66 63 63 62 61 61 63 65 66 66 64 64 66 69 71 73 73 73 73 73 73
44 43 44 44 46 49 51 52 52 52 52 52 53 52 45 54 54 55 55 54 53 53 55 56 56 55 54 56 58 59 59 59 58 57 59 61 63 65 67 70 72 72 73
43 42 43 44 45 47 49 50 49 49 48 49 48 48 48 48 49 48 50 51 51 50 51 52 53 52 53 52 52 53 56 55 56 57 59 60 62 64 65 66 69 70 71
41 41 42 43 44 44 46 47 46 44 45 45 45 45 45 44 44 44 45 46 44 44 46 48 48 49 50 50 50 50 50 51 55 56 56 60 60 59 63 63 63 65 68
39 40 41 41 41 41 43 43 43 43 42 42 42 42 43 42 42 41 41 41 42 42 42 43 43 42 43 42 42 43 38 36 46 43 57 57 57 59 60 61 61 62 63
38 39 39 39 39 40 40 40 40 39 39 39 40 40 40 40 40 40 41 40 39 39 39 39 39 39 39 37 36 34 32 32 42 37 54 54 55 55 55 56 56 56 57

GFSGL_sfc_dewp_096.txt.gz
Dewpoint
70 71 72 72 71 72 70 71 72 73 74 73 74 74 73 73 74 75 73 71 73 73 73 73 73 74 68 66 67 67 66 66 64 63 66 69 74 73 74 74 71 70 67
69 70 71 72 73 70 71 70 71 73 74 74 73 75 74 73 74 74 71 70 72 72 72 73 72 69 74 74 68 72 70 71 67 71 72 68 72 74 74 75 69 65 69
68 68 70 71 71 72 71 72 71 71 72 72 73 74 74 74 74 75 73 72 71 72 72 73 71 72 73 70 71 70 68 68 69 67 67 67 68 69 71 73 71 71 62
66 67 69 70 71 70 73 73 72 72 72 72 72 73 73 74 74 73 73 74 73 71 73 73 72 70 72 73 73 74 73 72 72 69 67 66 64 70 68 65 62 62 63
69 69 69 71 72 71 72 72 72 72 72 72 72 71 72 71 69 73 73 73 74 73 73 73 72 70 69 70 68 73 74 70 67 65 64 62 62 63 68 64 62 62 67
67 70 71 72 72 72 72 72 73 72 73 73 72 71 70 66 64 66 71 72 73 73 73 74 74 72 71 68 68 68 70 73 73 66 61 63 73 70 65 64 65 64 64
62 65 68 70 71 72 72 72 72 72 72 73 73 72 71 71 63 64 67 71 71 72 73 73 71 68 72 73 69 67 67 66 68 73 72 71 72 71 73 73 74 71 69
60 61 63 66 66 69 72 73 74 72 72 72 72 73 72 71 63 62 65 71 73 74 73 73 74 73 72 72 73 72 72 71 73 71 73 73 73 73 74 75 75 75 72
58 58 60 62 63 64 67 70 71 74 73 73 72 73 73 73 62 61 65 68 67 73 73 74 75 75 70 65 73 72 72 70 65 65 65 66 65 65 68 71 68 65 61
58 58 60 60 62 62 64 66 69 70 72 71 71 72 69 73 65 60 63 67 69 63 70 75 66 71 66 63 73 73 72 70 68 69 71 71 69 72 65 72 70 66 62
57 59 60 59 60 62 64 66 65 67 70 71 71 72 72 71 72 59 58 70 67 66 64 61 62 61 61 60 62 75 73 71 69 70 70 68 69 69 69 73 75 70 65
54 57 60 60 57 56 61 64 64 65 66 70 69 68 69 73 66 63 57 59 67 69 69 65 67 58 56 58 61 64 62 64 68 62 62 63 63 62 62 67 77 76 73
52 54 57 60 59 59 58 58 62 64 65 66 67 68 70 70 70 61 58 57 59 66 68 66 60 56 53 57 58 60 60 69 67 63 62 63 63 63 72 74 76 79 79
50 52 54 56 57 58 55 53 53 55 58 65 66 66 66 65 67 68 70 67 59 63 64 66 65 64 62 64 66 64 68 68 67 65 65 65 65 64 63 66 68 68 69
48 49 52 51 54 55 56 55 55 56 55 58 60 66 65 66 66 59 59 72 75 67 68 69 68 68 68 69 69 69 69 70 69 69 68 67 66 65 64 65 67 67 67
47 46 46 47 50 51 52 52 50 51 50 49 48 54 61 57 53 51 50 52 53 55 69 68 68 69 69 69 69 69 68 68 68 69 68 68 67 66 64 64 66 67 67
47 47 47 48 48 49 51 51 51 50 49 48 48 48 47 49 48 47 46 47 48 54 70 70 69 69 69 70 71 71 71 71 74 69 68 67 66 64 63 65 66 67 68
46 46 46 48 47 48 49 51 51 52 52 53 51 52 52 48 46 46 45 48 61 57 70 71 70 71 73 72 71 71 71 72 72 70 68 67 66 66 66 66 67 69 71
45 44 45 47 48 48 49 50 49 51 54 55 56 55 55 50 48 46 45 59 67 70 68 70 72 73 75 76 74 74 73 73 71 72 73 73 71 70 68 68 70 65 67
47 48 49 47 47 48 48 48 49 51 52 53 53 58 59 56 57 60 61 60 65 70 71 70 71 72 73 75 75 76 76 74 75 74 74 75 76 75 73 71 72 71 72
46 46 48 48 48 47 48 48 50 50 51 52 53 54 45 53 54 57 60 62 65 67 68 72 71 67 64 64 64 67 70 73 73 74 74 73 74 73 74 74 73 73 73
43 44 45 46 46 46 48 48 50 51 50 51 52 52 46 52 54 53 54 54 54 55 57 59 57 57 57 58 60 60 61 62 62 62 64 64 65 66 67 68 69 70 72
43 43 44 44 44 47 47 48 48 50 50 50 50 50 49 49 49 49 49 50 52 52 53 53 54 53 53 55 54 54 55 57 58 59 60 62 63 64 66 67 68 70 71
40 40 40 42 43 44 46 46 47 46 47 48 48 48 47 46 45 44 44 46 46 46 48 48 47 47 48 48 48 48 46 46 48 56 59 61 64 62 66 66 65 64 65
38 39 40 41 41 42 43 44 45 47 46 45 45 44 44 43 43 42 42 42 43 44 43 43 44 43 43 42 41 41 37 34 48 45 59 59 59 61 62 62 62 64 62
39 38 38 39 39 40 41 42 43 43 43 42 42 42 41 40 41 40 41 40 40 40 40 40 42 41 41 40 37 37 34 33 43 38 53 55 56 55 56 56 56 55 57

GFSGL_sfc_dewp_099.txt.gz
Dewpoint
72 72 74 72 73 74 72 71 72 74 72 73 73 72 72 71 73 75 75 74 73 74 73 72 73 76 69 65 65 65 65 65 63 64 65 70 77 77 74 76 72 73 70
72 73 72 72 73 72 72 71 72 74 74 73 74 74 73 72 75 73 72 69 71 71 71 73 71 68 76 77 68 76 70 73 66 73 71 68 74 77 77 78 70 65 65
71 69 71 71 72 72 72 72 72 74 73 72 74 75 73 73 74 74 74 72 71 71 71 71 70 72 75 71 74 71 67 69 71 68 67 67 68 68 71 75 76 74 63
70 69 72 73 73 72 72 73 73 74 74 74 75 75 74 73 72 72 73 75 73 71 71 71 71 71 74 76 74 77 74 72 71 68 67 66 65 71 67 65 65 63 62
70 72 72 74 72 72 73 73 73 74 73 74 74 74 72 71 68 74 74 73 75 74 73 72 72 70 69 71 68 74 77 72 67 65 64 63 61 65 68 64 65 62 67
64 66 70 72 73 74 72 74 74 73 75 75 74 73 73 66 62 65 70 72 74 75 75 75 75 72 70 68 68 68 71 74 76 66 62 63 74 69 65 64 66 63 64
62 62 64 67 68 72 73 73 73 75 75 76 75 74 74 74 65 63 66 70 72 74 76 76 72 66 72 73 69 67 68 66 67 74 74 74 74 75 76 76 74 73 70
62 61 60 63 65 66 68 73 74 75 74 76 74 75 75 73 65 63 64 70 73 74 75 76 76 76 76 75 75 74 74 74 74 70 73 74 75 76 77 75 77 78 74
59 60 60 60 62 63 65 67 69 73 73 75 74 75 75 75 64 62 65 69 68 72 74 75 75 76 71 66 74 75 75 74 66 67 68 68 67 66 69 70 67 66 63
58 60 61 61 60 61 62 63 65 67 70 71 72 75 71 75 67 60 64 69 70 67 72 73 66 71 66 63 75 75 75 74 73 72 72 70 68 71 66 72 70 67 65
54 55 58 61 62 60 61 62 63 63 66 67 69 71 74 74 73 60 58 72 70 68 67 67 66 61 61 60 61 76 74 74 73 74 71 69 68 69 71 74 76 71 68
54 54 55 57 58 59 61 61 62 64 65 66 67 68 69 73 67 65 57 59 68 71 71 68 68 57 56 58 61 64 63 66 71 68 65 62 62 62 63 68 77 77 74
52 53 54 56 56 59 61 61 58 61 60 65 67 67 70 72 68 60 58 57 59 67 71 68 59 57 54 56 56 58 60 68 68 67 67 66 64 62 70 73 77 81 81
51 51 51 52 55 55 53 55 55 54 54 53 54 57 64 66 70 68 70 70 62 64 66 68 67 64 60 62 65 63 66 68 68 69 69 68 66 64 64 65 65 66 67
49 49 49 48 50 52 54 52 54 58 53 53 52 51 53 57 63 56 55 61 64 63 59 67 70 69 69 69 70 71 71 70 70 70 69 68 67 67 67 67 66 65 65
48 46 44 43 44 45 47 50 49 49 48 48 47 51 54 52 51 51 48 47 47 49 63 67 70 70 69 69 70 70 70 69 70 71 70 69 68 68 68 68 67 65 65
48 47 45 45 43 44 47 48 47 49 48 46 45 46 45 50 47 45 44 45 45 48 63 67 69 71 71 72 70 69 69 70 73 70 70 70 69 69 68 67 67 66 65
49 48 46 44 44 44 46 48 48 48 48 50 48 48 47 45 44 44 45 46 59 57 61 66 68 71 73 74 74 71 71 72 71 72 74 72 70 68 67 67 66 65 65
47 46 45 45 44 44 45 46 46 48 48 47 48 50 52 49 48 48 46 58 61 62 65 67 69 73 74 74 75 76 76 75 73 72 73 74 72 68 67 67 66 59 62
46 48 48 47 46 46 47 45 45 47 48 47 46 49 52 54 56 55 57 61 62 62 63 67 71 70 72 71 72 75 76 75 74 74 74 75 74 74 70 70 70 70 68
42 43 46 45 48 49 46 44 44 44 45 46 48 48 45 55 54 53 57 57 58 57 58 59 62 68 68 68 67 65 68 69 71 72 73 74 75 75 75 75 74 74 74
40 41 43 43 45 46 46 47 46 45 45 46 47 47 45 52 52 54 54 55 54 55 55 55 57 59 58 60 61 61 62 63 64 64 63 64 65 67 69 71 71 70 70
41 41 41 43 45 46 47 47 47 48 47 48 49 48 49 50 50 51 50 50 50 50 50 51 52 54 55 55 55 56 57 58 59 59 61 61 62 64 65 66 67 67 68
38 38 39 40 41 42 43 45 47 47 47 48 48 48 48 48 48 48 47 47 46 46 47 47 48 47 48 49 49 49 50 50 52 54 58 59 61 62 64 65 66 65 65
38 38 38 38 39 40 41 42 43 45 45 47 46 46 47 47 46 45 44 44 43 43 43 44 44 43 43 43 44 44 40 32 45 46 55 59 60 62 63 65 64 65 64
36 38 38 38 38 38 40 40 41 43 44 44 44 44 44 43 43 42 42 41 41 41 40 40 40 40 40 39 38 35 33 33 41 37 55 58 59 60 60 61 59 59 58

GFSGL_sfc_dewp_102.txt.gz
Dewpoint
75 75 75 75 75 77 75 76 76 78 73 65 64 69 75 76 76 77 76 75 74 75 76 75 76 77 75 73 75 74 73 73 71 72 72 73 73 75 76 77 77 75 70
72 74 74 76 76 75 75 75 76 77 78 74 71 74 74 76 76 76 74 74 74 75 75 75 75 72 77 76 75 74 73 74 72 70 73 72 75 75 78 76 76 69 72
73 73 74 75 74 76 76 76 76 77 77 77 78 77 77 75 75 76 75 75 75 75 75 75 75 75 75 75 76 75 74 75 75 74 73 73 73 74 74 75 75 76 69
70 71 73 75 75 75 77 76 77 77 76 76 77 77 76 76 75 75 74 75 75 74 75 75 75 75 75 76 75 75 75 74 74 73 71 71 73 73 75 71 68 71 72
67 67 68 70 74 75 76 75 75 76 75 76 76 76 76 74 70 75 75 75 74 75 75 75 75 74 72 73 73 75 75 75 73 72 71 70 69 71 70 70 71 72 70
63 63 66 68 68 69 72 74 75 75 76 76 75 75 74 70 64 65 73 73 75 75 73 75 76 74 71 67 67 67 70 73 73 74 70 69 72 73 72 72 71 69 69
62 62 63 66 67 67 68 69 73 74 75 76 75 75 75 75 66 64 65 72 73 75 75 75 73 69 71 74 68 66 66 66 68 71 72 72 72 73 74 74 73 73 72
63 62 62 63 63 64 66 66 68 70 74 75 75 75 75 74 66 64 65 72 73 74 73 75 76 75 74 75 75 75 73 73 72 69 70 70 71 72 75 74 74 75 75
61 62 63 64 63 62 64 65 65 67 69 72 74 74 75 75 66 62 65 71 71 72 71 73 74 74 71 67 73 74 75 75 70 68 68 67 67 67 70 74 71 69 67
57 58 59 62 64 63 62 64 66 66 67 68 69 72 70 74 67 63 64 72 72 71 73 73 66 69 65 64 73 74 72 72 73 73 73 69 67 70 65 71 71 69 68
55 57 59 59 61 64 63 65 64 63 64 66 66 69 70 71 73 63 59 71 73 73 72 70 70 62 60 59 60 72 72 72 72 73 73 73 72 71 73 72 72 70 69
56 55 57 59 57 55 62 65 65 65 63 64 66 66 67 70 66 65 60 58 67 73 72 73 73 59 55 54 57 60 61 64 71 71 70 70 68 67 67 69 74 74 73
55 55 56 57 57 58 60 62 62 64 62 60 57 60 62 67 70 62 57 56 58 64 69 67 59 58 57 60 57 57 58 66 67 68 68 68 69 68 69 70 71 78 76
53 53 54 54 54 56 54 54 55 56 58 58 59 56 56 56 61 66 64 62 60 64 64 63 62 60 60 63 64 66 66 66 67 67 67 68 69 69 69 68 65 64 73
51 51 52 50 52 52 53 52 53 56 55 57 58 57 55 53 55 53 57 60 61 59 56 61 63 66 70 71 71 70 70 70 68 68 68 68 69 70 69 68 66 66 68
48 48 48 48 48 48 48 49 49 48 47 46 46 51 55 50 47 46 46 44 46 46 55 59 63 66 67 69 70 72 71 69 70 70 70 70 69 69 69 69 69 67 66
49 49 49 49 48 48 48 49 48 50 46 45 44 45 45 48 46 44 44 44 44 46 54 59 63 65 66 68 71 72 71 71 73 73 73 72 70 70 68 68 68 68 67
46 48 48 48 47 48 47 47 47 47 50 51 48 47 45 44 44 43 44 44 56 55 57 61 64 65 66 67 68 71 71 71 73 71 70 72 72 72 71 70 69 69 68
44 44 45 47 47 47 47 48 47 48 49 50 51 49 48 45 43 43 44 55 57 59 59 60 63 64 67 69 71 72 72 72 70 71 71 72 70 72 71 71 69 61 62
44 45 44 43 45 46 46 47 48 48 49 49 49 49 51 54 56 58 60 58 59 59 58 59 60 60 62 64 70 72 71 71 70 69 68 68 70 73 72 72 71 71 71
41 41 43 43 42 44 45 46 46 47 46 46 47 48 47 55 54 55 55 56 56 56 55 55 55 56 59 60 61 65 66 68 68 68 68 66 68 70 71 71 71 71 71
39 40 40 41 41 43 45 46 46 47 47 47 48 49 46 53 53 54 55 54 54 53 53 53 53 54 55 56 57 57 58 61 63 64 64 65 65 65 66 66 68 71 69
37 37 38 39 39 42 43 43 44 45 45 46 49 49 50 50 50 50 50 50 50 50 50 50 50 50 51 51 52 53 53 54 56 55 57 61 62 63 64 64 65 66 67
34 35 36 38 39 39 39 40 43 42 44 46 47 48 48 48 48 48 48 48 48 47 47 46 46 47 46 46 48 47 48 48 46 51 54 57 59 60 62 63 64 65 66
34 34 35 36 37 37 38 38 39 40 42 43 45 46 46 47 47 47 46 46 45 44 44 43 43 43 43 41 41 41 39 33 38 42 50 56 58 60 62 63 65 65 64
35 35 34 34 37 38 38 38 38 39 40 41 42 44 44 45 45 44 43 43 43 42 41 41 40 39 39 40 39 36 33 32 37 35 44 57 59 58 57 60 59 60 59

GFSGL_sfc_dewp_105.txt.gz
Dewpoint
66 69 72 73 73 73 73 72 71 71 71 67 68 66 69 72 72 72 72 70 71 72 71 71 70 72 71 71 72 70 69 70 66 66 69 68 69 69 70 75 73 73 71
66 69 72 72 73 73 73 73 72 71 71 69 66 65 68 72 72 71 71 70 71 70 71 71 70 71 70 72 71 71 70 70 68 66 69 70 71 70 70 74 73 73 70
69 69 71 72 73 73 73 73 73 72 71 69 69 70 72 72 72 73 73 72 71 72 72 72 70 70 70 71 70 71 71 72 71 70 69 71 70 70 71 69 66 69 67
68 68 68 68 71 72 73 74 74 73 73 73 72 73 71 72 73 72 73 73 72 72 72 71 72 72 71 71 71 70 71 71 70 70 70 69 70 70 69 66 66 69 66
65 66 67 68 68 69 71 72 72 73 73 73 73 74 74 73 72 72 72 73 72 71 71 73 73 72 72 72 72 71 71 71 71 71 69 66 65 68 68 69 68 69 67
63 64 66 67 67 68 68 68 72 72 72 73 73 72 72 74 68 66 71 71 73 71 70 71 72 73 72 69 68 68 70 68 67 69 69 68 67 68 69 69 70 69 67
61 62 64 65 65 66 67 67 68 68 71 71 71 72 73 73 67 65 64 69 71 73 73 72 71 69 69 71 69 65 65 66 66 66 65 67 68 69 69 68 68 69 69
61 62 61 61 62 64 65 66 66 67 68 69 71 72 72 73 67 64 65 66 68 69 70 72 72 70 70 72 73 73 70 68 68 67 67 67 67 67 69 69 70 70 71
56 56 57 58 62 60 60 63 64 66 67 67 69 68 69 72 67 63 65 69 69 69 69 70 71 71 69 67 71 71 72 73 70 66 66 66 66 66 68 72 71 69 69
54 55 56 57 58 57 60 60 61 62 64 66 66 66 66 69 66 62 63 70 71 70 71 71 66 67 64 64 69 71 71 71 72 71 70 67 66 68 66 68 69 69 69
53 53 55 55 55 55 57 61 62 61 61 61 63 64 66 66 67 63 60 67 70 71 71 72 71 61 57 56 57 66 67 66 68 71 71 71 72 72 71 70 69 70 69
53 52 53 54 54 53 55 56 59 62 62 61 61 62 65 65 63 62 57 57 60 67 69 71 70 57 55 55 59 59 58 60 65 65 67 68 69 69 70 70 71 70 69
50 50 51 53 53 54 55 54 53 57 60 61 57 54 55 55 56 57 56 58 59 63 65 62 58 56 56 61 58 58 59 62 63 63 64 65 65 67 68 67 66 67 71
49 49 49 49 49 50 52 53 53 53 54 57 57 55 54 54 54 62 60 60 58 62 62 60 59 58 57 60 62 66 68 68 67 66 66 66 66 66 67 68 67 67 65
48 48 48 49 48 48 48 50 50 50 51 50 54 56 55 54 53 54 53 55 57 57 54 58 58 59 61 62 65 68 70 70 69 67 67 67 66 66 66 67 67 67 66
47 48 49 49 48 48 48 48 47 46 45 44 44 46 48 51 48 46 44 44 46 48 55 56 57 58 60 62 63 65 68 69 71 71 70 69 69 69 67 68 69 68 67
43 44 45 46 48 47 47 47 46 46 45 44 43 43 43 45 45 44 43 42 44 46 51 55 55 58 62 64 65 66 66 68 70 71 71 71 71 71 69 70 70 69 68
43 45 44 45 45 45 46 46 46 46 46 47 46 45 45 43 43 43 41 45 54 49 53 56 58 61 61 62 64 65 66 66 69 71 70 70 68 67 66 67 66 64 66
43 42 43 42 42 44 44 45 45 46 46 47 47 47 46 44 43 41 42 52 55 55 58 58 57 58 59 60 60 62 64 66 69 70 69 70 69 67 66 66 65 59 61
42 46 45 42 42 42 41 43 44 45 45 46 46 46 47 48 49 51 51 53 56 57 55 55 55 55 55 55 56 59 60 63 65 66 69 69 69 68 67 65 64 63 64
39 39 41 40 41 41 41 41 42 44 44 45 46 47 45 47 50 51 55 57 55 53 52 53 53 52 52 53 53 55 57 58 59 62 64 65 67 66 65 67 67 67 67
38 38 38 37 39 40 40 39 40 41 42 44 44 45 44 48 51 50 50 50 50 49 49 48 48 49 50 50 51 50 51 53 55 58 58 60 62 63 64 65 66 66 67
36 34 35 35 36 38 38 38 39 39 40 42 43 43 46 48 48 49 49 48 47 46 46 46 46 47 47 48 48 47 48 49 51 52 52 54 57 59 61 62 63 64 64
34 34 34 34 35 35 36 37 37 38 38 39 41 42 44 46 47 47 47 47 46 46 44 45 45 44 44 44 44 44 44 45 45 44 46 49 53 55 59 60 61 62 63
35 35 34 34 33 34 35 36 36 37 37 37 38 39 40 42 44 45 45 45 44 43 43 42 42 41 41 41 40 41 39 34 36 36 41 46 50 55 57 60 61 63 64
38 37 35 35 34 35 35 35 36 36 36 37 37 38 40 40 42 42 43 43 42 41 41 41 40 39 38 38 38 36 33 32 34 33 38 45 50 55 58 58 60 60 59

GFSGL_sfc_dewp_108.txt.gz
Dewpoint
66 67 69 71 72 72 71 71 71 70 69 67 70 69 70 71 72 71 70 71 70 70 71 70 69 71 71 69 70 69 68 69 66 66 68 68 70 70 69 70 73 73 71
68 68 69 71 72 72 72 71 71 70 69 66 67 65 67 70 71 71 71 71 69 69 70 70 70 70 70 70 71 70 70 70 69 67 69 69 69 69 70 70 68 69 70
69 68 69 69 71 72 71 72 71 70 70 68 67 65 65 69 72 72 71 70 71 70 69 70 70 70 69 69 70 69 69 70 70 69 68 70 69 70 69 66 66 68 66
67 68 68 68 69 70 71 71 72 71 69 70 68 67 69 71 71 72 72 72 72 71 71 71 71 71 69 68 69 70 69 69 69 69 69 69 69 68 68 67 67 68 68
65 66 67 67 68 68 68 68 71 72 72 72 71 71 72 71 71 71 71 71 71 71 71 71 72 72 70 70 71 71 71 70 69 69 68 67 67 66 67 68 67 68 68
64 65 66 66 66 67 67 68 68 69 71 71 72 72 72 74 68 67 71 71 71 71 70 70 70 71 71 69 68 68 69 69 68 67 66 65 65 65 67 67 67 66 66
60 60 62 64 63 64 66 66 67 67 68 68 70 70 71 72 67 65 65 67 70 71 71 70 70 70 69 70 68 67 65 65 66 66 64 64 64 65 66 65 65 66 67
56 57 58 61 62 63 64 64 65 67 67 68 67 68 68 71 65 64 65 67 67 67 68 70 71 71 70 69 70 70 71 71 67 66 66 66 66 66 66 66 67 68 69
53 54 55 56 57 59 61 63 64 64 65 66 67 67 67 68 63 63 64 68 69 69 69 69 70 70 68 66 70 70 70 71 69 65 64 64 64 64 66 69 68 68 67
52 53 54 54 54 55 55 59 62 61 62 63 65 66 65 67 63 61 63 68 68 70 70 71 65 66 60 59 67 69 69 69 69 71 72 68 66 67 64 68 69 68 67
51 52 52 52 52 52 53 55 56 58 61 61 60 62 65 66 66 61 60 67 68 69 70 71 69 58 56 56 56 63 64 64 64 66 67 70 71 71 70 69 69 69 68
49 49 50 50 52 52 52 53 53 53 56 58 59 58 57 56 58 56 56 57 61 65 65 66 64 55 53 54 58 61 58 59 63 65 65 65 66 67 70 72 71 70 70
48 48 48 49 49 49 49 50 50 51 52 53 57 58 54 55 57 56 55 56 57 60 61 61 56 54 53 56 58 59 59 63 64 64 66 67 66 66 66 68 69 71 71
46 47 48 48 48 48 48 49 49 48 48 49 49 48 55 54 54 56 59 57 56 58 60 59 57 56 55 57 58 63 65 67 67 67 67 67 67 67 66 66 66 67 67
46 47 47 48 48 48 48 47 47 47 48 46 45 47 52 51 52 51 53 55 54 53 54 56 56 56 56 56 59 62 65 68 69 69 69 68 68 67 67 67 66 66 66
43 44 45 45 46 47 47 47 46 45 44 43 42 44 45 46 45 44 44 44 43 47 55 54 55 55 55 58 60 63 65 65 67 69 69 69 69 69 68 68 68 67 67
41 42 43 44 45 45 44 44 44 45 45 44 43 43 43 43 42 41 41 42 43 46 53 53 54 54 57 61 61 62 63 64 65 67 68 69 69 70 69 69 69 69 69
42 44 42 42 43 43 43 44 44 43 44 45 45 45 44 42 42 42 40 42 47 47 52 53 54 58 57 57 57 56 56 57 60 63 65 68 69 69 69 68 69 68 67
42 42 43 42 42 43 42 42 41 43 44 44 45 45 45 44 44 42 41 47 49 51 54 54 56 55 54 55 53 54 56 57 56 59 62 64 66 67 68 68 67 60 61
39 42 42 40 40 40 41 41 41 41 41 42 43 45 46 45 47 48 50 53 52 53 54 54 53 52 53 52 52 52 52 52 54 55 57 60 62 65 65 67 67 66 65
38 38 41 38 39 40 40 40 40 39 39 39 40 42 43 44 46 46 51 50 51 51 51 51 51 49 50 50 49 49 51 51 51 52 54 55 58 58 61 63 65 66 66
37 36 35 35 36 37 38 38 38 38 37 37 38 39 41 43 44 47 49 48 49 50 50 49 48 48 48 48 47 47 47 48 48 49 50 51 52 53 55 58 60 63 64
36 34 34 34 35 36 36 36 36 36 36 37 37 37 37 40 45 46 47 49 47 46 47 47 46 46 46 45 45 45 44 45 46 46 46 46 46 48 51 54 57 58 60
36 34 34 34 34 35 34 35 35 36 35 35 35 36 36 38 38 40 42 46 46 45 44 45 45 44 44 44 43 43 42 43 43 41 40 41 42 44 48 51 54 58 60
35 35 35 34 34 34 34 34 34 34 34 34 35 36 36 37 37 37 40 43 44 44 43 42 43 42 41 39 39 38 37 34 35 35 37 38 40 42 45 48 51 55 58
36 37 37 36 35 35 36 35 35 34 34 35 35 35 35 36 38 38 40 41 42 42 42 42 41 40 37 37 37 35 32 31 33 33 35 36 39 43 47 49 52 55 58

GFSGL_sfc_dewp_111.txt.gz
Dewpoint
67 68 68 69 71 69 68 68 69 70 70 70 70 71 71 71 71 70 70 69 69 69 70 70 69 69 70 69 70 69 68 68 66 67 67 68 69 69 68 69 69 69 69
67 68 68 68 69 70 71 72 71 70 70 68 68 68 69 70 71 71 70 70 70 68 69 69 69 70 69 69 70 69 69 68 68 66 68 68 69 69 69 66 67 68 67
68 68 67 68 69 70 71 72 71 70 69 68 65 68 67 68 70 71 71 70 69 70 69 68 69 69 69 68 68 68 68 69 69 68 68 69 69 69 68 67 67 66 68
67 67 67 67 69 69 70 70 71 70 69 69 67 65 66 65 69 71 71 71 70 70 70 70 70 70 70 69 68 69 69 68 68 68 68 68 68 67 68 66 66 66 67
66 67 67 67 68 68 68 68 69 70 71 70 70 68 68 68 68 70 70 71 71 71 71 71 71 71 70 69 71 70 70 69 69 68 67 66 66 65 64 66 66 66 66
65 65 65 65 67 67 67 67 67 68 68 70 70 72 71 72 67 66 70 70 70 70 70 70 70 70 69 68 67 68 70 70 68 67 66 65 65 64 65 66 65 64 64
59 60 61 63 63 65 65 65 66 66 68 68 68 68 68 69 63 64 66 69 70 70 70 70 70 70 69 70 68 66 66 65 67 68 66 65 64 65 65 65 65 65 65
53 54 55 57 60 62 63 62 63 64 64 65 67 67 67 69 62 62 64 67 68 68 67 68 70 70 70 70 70 69 69 70 69 67 66 67 66 66 66 66 66 66 67
52 52 53 54 55 56 58 61 62 63 63 64 65 66 66 67 63 61 63 68 68 68 69 69 69 69 65 63 68 69 69 70 68 65 64 64 63 63 65 68 67 66 68
50 51 51 52 53 54 54 55 59 61 62 63 63 64 64 67 63 62 63 68 67 68 69 70 61 63 57 57 65 66 67 68 68 67 67 68 67 68 64 67 69 68 68
49 49 49 49 50 51 51 52 52 53 55 58 61 62 62 63 64 57 57 66 66 67 68 69 68 58 56 55 56 64 65 66 66 66 66 66 67 69 70 68 69 69 69
48 48 48 49 49 49 49 49 50 50 50 51 54 53 56 57 58 56 55 57 60 61 61 64 63 54 52 52 55 58 58 59 64 65 66 66 66 67 67 70 71 70 70
47 47 48 48 48 48 47 47 48 47 47 48 48 48 48 53 55 55 55 56 57 57 58 59 55 53 52 55 56 56 57 61 64 64 65 65 66 67 67 67 67 70 71
45 45 47 46 47 48 47 47 47 46 45 45 45 45 46 48 50 54 53 55 55 55 56 56 56 55 54 55 57 60 62 63 64 65 66 67 68 68 67 67 66 66 66
43 44 44 45 45 45 46 46 46 46 45 45 45 45 45 45 46 45 44 47 52 52 52 55 55 55 55 55 57 60 62 63 64 66 67 67 68 68 68 68 67 66 66
41 42 42 43 43 44 44 44 45 45 44 42 42 43 45 45 43 42 41 41 42 47 52 53 53 54 54 55 57 59 60 61 61 61 63 65 66 67 67 68 69 68 67
40 41 41 42 42 42 42 42 42 41 43 43 42 42 42 42 42 41 41 40 44 47 50 50 51 53 54 56 57 56 54 56 56 58 60 59 62 65 66 68 68 68 67
40 44 41 41 41 41 41 41 41 41 42 44 43 43 43 42 41 41 40 45 48 47 47 50 51 53 55 55 53 52 52 53 54 54 54 57 60 61 63 65 66 66 66
40 40 40 40 39 40 40 41 41 41 41 41 42 42 42 42 41 42 42 47 49 50 51 52 52 55 55 53 52 52 52 52 52 53 53 53 54 56 59 60 62 58 60
38 41 41 38 38 38 39 39 39 38 38 39 39 40 42 41 42 44 47 48 51 53 53 53 52 51 51 50 51 51 50 49 50 50 50 52 52 53 54 56 56 58 61
38 37 39 36 35 36 37 37 36 36 35 36 36 37 40 38 39 41 44 47 48 51 51 50 50 50 50 50 48 49 49 49 48 48 48 49 51 51 52 51 51 55 57
36 35 34 34 34 35 36 36 36 35 35 35 35 35 37 37 37 38 41 44 48 50 49 47 47 47 46 48 48 47 47 47 47 47 46 46 47 47 48 49 50 50 54
35 34 33 33 34 35 34 35 35 35 34 34 34 34 34 34 35 36 36 38 40 43 48 47 46 45 45 45 46 45 45 45 45 45 44 43 43 44 44 45 46 47 50
35 34 34 34 34 34 34 34 34 35 34 34 33 33 32 33 35 36 36 36 38 40 43 45 44 43 43 43 43 43 43 43 43 42 42 41 40 41 42 44 45 47 49
35 34 34 34 34 34 34 34 34 34 34 34 34 34 34 34 34 33 35 37 38 39 40 42 44 43 42 41 41 40 38 34 36 36 38 37 38 39 40 42 43 45 47
35 36 36 36 35 35 34 34 34 34 33 35 35 34 34 35 35 35 35 36 38 38 39 40 41 41 41 41 39 37 34 32 34 32 34 36 37 39 40 42 43 45 47

GFSGL_sfc_dewp_114.txt.gz
Dewpoint
70 70 70 71 71 70 69 69 70 72 71 71 71 72 72 72 72 72 72 72 72 72 72 72 71 72 73 73 72 71 71 70 69 69 70 71 72 73 73 72 71 71 70
68 68 68 69 70 71 71 70 70 71 71 71 71 71 72 72 72 72 72 72 72 71 71 71 71 71 72 72 71 72 71 71 70 69 71 71 72 73 73 73 69 66 69
68 68 68 68 69 70 71 72 72 72 71 70 69 69 70 71 71 72 72 72 72 71 71 71 71 71 72 71 71 70 70 71 71 71 70 71 72 71 71 71 71 71 68
67 67 66 67 68 69 71 72 72 72 71 71 69 68 69 69 69 71 72 72 72 71 72 72 72 72 72 72 71 72 72 71 71 71 71 70 71 71 69 68 68 69 69
67 67 66 67 68 68 69 69 70 71 72 71 71 70 69 68 67 69 71 72 72 72 72 72 72 72 70 71 72 74 73 72 72 71 71 70 69 68 68 68 68 68 70
64 63 64 65 66 67 67 67 68 69 69 70 70 71 72 71 64 66 69 72 72 72 71 72 72 71 71 67 67 67 71 73 72 71 70 69 70 69 68 68 69 69 68
59 59 60 63 63 64 64 66 67 67 67 67 68 68 69 69 62 63 66 71 71 72 72 72 71 70 71 72 69 66 66 65 68 73 71 70 70 70 70 70 70 69 69
54 54 56 57 58 61 63 63 63 64 64 65 66 67 67 68 62 61 63 70 70 70 70 70 70 71 71 71 71 71 71 72 72 69 71 72 71 71 71 71 71 70 71
51 53 54 55 55 56 57 60 61 63 64 64 65 66 67 68 62 60 64 69 69 70 71 71 71 71 61 61 70 70 71 71 68 65 65 65 64 64 66 70 70 70 69
50 51 51 53 53 54 54 56 57 60 62 63 63 63 63 67 58 59 62 68 68 69 70 70 60 63 57 57 67 68 68 69 70 70 71 70 67 69 64 69 70 69 69
49 50 50 51 51 52 53 53 53 54 55 56 59 61 62 62 62 56 57 65 66 66 67 67 68 60 57 55 55 63 66 66 66 67 68 69 69 70 70 71 71 70 69
49 49 49 50 49 48 50 50 50 51 51 52 52 50 53 56 56 56 54 55 58 61 61 63 64 54 51 52 55 56 56 57 62 63 65 66 67 67 68 69 72 72 71
47 47 48 49 48 49 48 49 47 48 47 48 48 48 48 50 51 51 51 51 55 59 58 57 54 53 53 55 55 55 56 64 65 64 64 65 67 68 70 71 71 72 72
45 46 46 46 46 46 46 47 46 46 46 46 47 47 47 49 49 48 47 49 52 54 55 55 56 55 54 55 58 60 63 64 65 65 65 66 68 68 69 69 69 69 68
44 44 44 44 45 44 45 45 45 46 45 46 46 46 47 47 46 44 44 46 47 48 50 56 56 55 55 56 58 60 62 64 62 61 61 61 61 64 65 67 68 68 67
43 42 43 43 43 42 42 42 44 43 43 42 42 44 46 45 43 42 41 40 42 46 53 54 52 52 53 54 57 60 60 57 57 57 59 59 58 59 61 64 65 67 67
43 43 43 42 41 41 41 41 40 42 43 42 41 42 42 41 41 41 39 40 43 46 51 51 52 53 53 54 58 58 55 54 55 55 54 54 56 56 59 60 62 63 64
44 43 42 41 40 40 40 40 40 39 39 39 41 42 40 40 40 41 42 44 48 49 52 53 53 54 55 56 56 54 53 52 52 52 53 54 54 53 54 55 56 58 59
41 42 41 40 40 39 39 38 37 37 37 36 37 38 40 40 40 40 42 46 45 45 50 52 54 53 53 52 52 52 52 51 50 50 51 51 52 53 52 52 54 51 52
42 43 39 38 36 36 37 36 35 35 35 35 35 35 37 36 36 37 39 42 45 46 47 51 52 50 51 50 50 50 49 49 49 49 48 49 49 50 50 51 51 50 51
38 41 39 36 35 36 36 35 35 35 34 34 34 35 38 35 35 36 36 39 38 41 45 47 50 50 48 48 47 47 47 47 47 48 48 48 48 48 49 48 49 49 49
36 36 35 35 35 36 36 36 35 35 34 34 33 34 36 34 34 35 36 36 37 40 40 43 44 47 47 46 46 46 46 45 45 46 46 46 46 46 45 46 46 45 47
36 35 35 35 35 36 36 35 35 35 35 34 34 33 33 32 32 32 33 34 34 37 40 41 41 43 44 45 44 45 44 44 44 45 44 43 43 43 43 42 43 44 45
36 35 34 35 35 35 36 36 36 35 35 35 35 34 34 33 32 33 33 33 34 37 38 39 40 38 40 41 43 42 41 42 41 40 41 41 40 40 40 41 42 42 43
35 36 35 35 35 35 36 36 36 36 36 36 35 35 35 34 34 34 34 35 35 35 37 38 40 39 38 40 41 42 40 35 38 38 38 38 38 38 38 39 40 40 41
36 36 36 36 36 36 37 37 37 37 36 36 36 36 35 34 34 34 35 35 36 37 37 38 38 39 40 40 40 38 35 33 35 33 35 35 36 36 38 39 40 41 42

GFSGL_sfc_dewp_117.txt.gz
Dewpoint
72 74 74 73 72 72 72 73 73 74 74 74 74 74 74 74 74 75 75 74 73 74 74 74 74 74 71 72 72 72 71 70 65 65 70 71 74 74 73 73 69 66 65
71 73 73 73 74 73 72 71 72 73 74 74 74 73 74 74 75 74 73 71 73 73 72 74 73 70 74 74 71 74 72 73 69 71 72 70 73 74 74 73 69 65 69
72 71 71 71 71 72 73 74 73 74 74 74 73 73 72 73 75 74 74 72 72 73 73 73 72 73 74 71 73 71 71 72 72 70 70 71 72 72 72 72 72 73 67
69 68 69 69 70 70 72 74 74 75 74 74 73 73 72 71 72 72 74 74 73 73 73 73 73 73 73 74 73 75 74 74 74 72 70 69 71 73 72 69 68 69 70
68 68 68 69 69 70 71 72 74 75 74 74 73 73 72 71 68 71 72 72 72 72 72 73 73 72 71 71 74 77 74 70 67 67 67 68 67 68 69 69 68 68 70
65 67 67 68 68 68 69 70 71 72 73 74 73 74 74 72 63 65 70 71 73 74 74 74 74 72 72 68 67 67 71 75 75 68 68 69 72 71 68 68 67 66 63
60 63 63 65 66 67 67 67 68 69 72 71 71 71 71 71 62 64 67 73 74 74 75 75 74 69 71 73 69 67 67 66 67 75 74 73 72 72 73 73 72 71 69
57 59 60 62 63 64 65 66 66 67 68 68 69 70 70 68 61 61 64 73 74 74 73 73 74 74 72 71 73 73 73 73 74 71 73 74 74 74 75 74 74 74 72
55 56 57 59 59 58 59 61 65 65 66 65 67 68 69 69 61 61 66 71 71 72 72 72 72 73 60 60 72 73 73 73 67 66 65 64 65 65 67 70 70 69 68
53 54 55 55 56 56 56 57 59 62 63 62 65 67 63 63 56 57 61 63 64 65 70 68 61 62 58 57 66 70 71 71 72 72 72 71 68 72 65 72 71 69 68
54 54 53 53 54 54 55 56 57 57 59 60 62 62 63 61 57 53 53 62 58 57 57 58 63 56 54 54 55 64 64 63 62 65 67 68 69 70 70 72 75 72 69
52 51 51 52 50 51 54 53 55 55 56 56 56 53 53 56 51 50 50 51 55 60 58 56 58 53 51 52 55 56 55 57 59 59 60 60 62 63 65 68 71 72 72
50 50 50 51 50 51 51 51 49 52 50 51 50 49 50 51 51 50 50 51 52 55 57 55 53 51 53 54 55 55 58 62 62 61 60 63 64 65 69 69 70 72 73
49 48 48 48 48 48 46 46 46 47 47 47 47 48 49 49 47 47 48 50 51 52 52 54 55 55 54 56 56 59 61 61 61 61 60 59 60 60 60 62 63 68 68
46 46 45 45 45 45 45 44 45 46 45 45 47 47 47 46 44 44 44 47 47 49 50 53 52 53 53 54 54 57 62 62 57 56 55 56 55 55 55 57 58 60 63
45 43 42 41 41 41 41 41 43 44 42 41 42 42 44 43 42 41 40 41 42 44 49 50 50 50 51 52 53 53 55 58 57 56 56 55 54 54 53 54 55 56 56
44 43 40 40 39 39 39 38 37 40 42 40 40 41 41 40 40 40 40 41 44 45 46 46 49 50 50 51 52 54 55 56 58 55 55 54 54 54 52 52 52 53 53
44 44 39 38 38 37 37 37 35 35 34 35 39 39 40 38 38 39 39 40 40 42 43 48 51 50 50 51 52 53 53 53 53 53 53 53 53 53 52 52 51 51 51
41 38 38 37 36 36 35 34 33 35 35 33 34 36 37 37 37 38 38 39 39 40 42 43 44 46 47 49 50 51 51 50 49 50 51 51 50 49 50 51 50 49 49
41 41 39 35 35 34 34 34 34 34 34 33 32 32 33 35 35 36 37 37 37 37 38 40 43 44 47 50 49 49 49 49 49 48 48 48 49 48 47 47 49 48 48
39 39 37 35 34 34 35 34 34 33 33 33 33 34 36 35 33 34 34 35 36 36 37 37 39 41 43 45 47 45 45 45 46 45 45 46 46 46 46 45 45 46 47
36 36 34 34 35 36 35 35 35 34 34 33 33 34 36 33 33 33 34 34 34 35 36 37 38 38 38 39 44 44 43 43 43 44 43 44 44 43 43 44 44 43 43
36 35 34 35 35 38 36 35 35 35 35 36 34 32 32 32 32 32 33 34 34 34 35 36 37 37 37 37 38 40 40 39 41 42 41 41 41 40 40 41 40 41 42
37 36 35 35 36 35 36 36 36 36 36 36 36 35 35 34 33 33 34 34 34 34 34 35 37 37 38 39 39 38 39 41 42 42 42 41 41 40 40 40 40 40 41
37 37 36 36 36 36 35 36 35 36 37 37 37 37 37 36 35 34 34 34 33 34 36 37 38 37 37 38 39 39 38 33 37 37 38 38 38 38 38 38 38 39 39
38 38 38 37 37 38 37 36 36 36 37 38 38 38 38 38 37 36 35 35 35 36 36 36 37 37 37 38 38 37 34 32 35 33 35 36 36 36 37 37 38 38 39